Wetterdaten: Donnerstag, 19.10.2017
Datum Zeit Temp. A. Pool Temp. Feuchte A. Luftdruck Regen Wind Richtung Richtung Sonnenschein ET UV Solar Taupunkt Windchill Windben Empfang
19.10.2017 00:00 8,1 C 12,2 C 97 % 1015,0 hPa 0,0 l/m 0,5 km/h (0 Bft) S 178 0 min 0,000 mm 0,0 UV-I 0 W/m 7,7 C 8,1 C 1,6 km/h (1 Bft) 97,56 %
19.10.2017 00:02 8,3 C 12,2 C 97 % 1015,0 hPa 0,0 l/m 0,0 km/h (0 Bft) S 178 0 min 0,000 mm 0,0 UV-I 0 W/m 7,9 C 8,3 C 0,0 km/h (0 Bft) 93,62 %
19.10.2017 00:04 8,4 C 12,2 C 97 % 1014,9 hPa 0,0 l/m 1,1 km/h (1 Bft) S 178 0 min 0,000 mm 0,0 UV-I 0 W/m 8,0 C 8,4 C 3,2 km/h (1 Bft) 94,44 %
19.10.2017 00:06 8,5 C 12,2 C 97 % 1014,9 hPa 0,0 l/m 1,5 km/h (1 Bft) S 178 0 min 0,000 mm 0,0 UV-I 0 W/m 8,1 C 8,5 C 3,2 km/h (1 Bft) 96,55 %
19.10.2017 00:08 8,4 C 12,2 C 97 % 1015,0 hPa 0,0 l/m 1,8 km/h (1 Bft) S 178 0 min 0,000 mm 0,0 UV-I 0 W/m 8,0 C 8,4 C 3,2 km/h (1 Bft) 97,44 %
19.10.2017 00:10 8,2 C 12,2 C 97 % 1014,9 hPa 0,0 l/m 1,1 km/h (1 Bft) S 178 0 min 0,000 mm 0,0 UV-I 0 W/m 7,8 C 8,2 C 3,2 km/h (1 Bft) 98,11 %
19.10.2017 00:12 8,1 C 12,2 C 97 % 1014,9 hPa 0,0 l/m 1,3 km/h (1 Bft) S 178 0 min 0,000 mm 0,0 UV-I 0 W/m 7,7 C 8,1 C 3,2 km/h (1 Bft) 97,87 %
19.10.2017 00:14 7,9 C 12,2 C 97 % 1014,9 hPa 0,0 l/m 1,6 km/h (1 Bft) S 178 0 min 0,000 mm 0,0 UV-I 0 W/m 7,5 C 7,9 C 3,2 km/h (1 Bft) 97,37 %
19.10.2017 00:16 7,9 C 12,2 C 97 % 1015,0 hPa 0,0 l/m 1,3 km/h (1 Bft) S 178 0 min 0,000 mm 0,0 UV-I 0 W/m 7,5 C 7,9 C 1,6 km/h (1 Bft) 97,87 %
19.10.2017 00:18 8,0 C 12,2 C 97 % 1014,9 hPa 0,0 l/m 1,7 km/h (1 Bft) S 178 0 min 0,000 mm 0,0 UV-I 0 W/m 7,6 C 8,0 C 3,2 km/h (1 Bft) 97,87 %
19.10.2017 00:20 8,0 C 12,2 C 97 % 1015,0 hPa 0,0 l/m 1,6 km/h (1 Bft) S 178 0 min 0,000 mm 0,0 UV-I 0 W/m 7,6 C 8,0 C 3,2 km/h (1 Bft) 98,00 %
19.10.2017 00:22 8,0 C 12,2 C 97 % 1015,0 hPa 0,0 l/m 2,1 km/h (1 Bft) S 178 0 min 0,000 mm 0,0 UV-I 0 W/m 7,6 C 8,0 C 3,2 km/h (1 Bft) 98,11 %
19.10.2017 00:24 7,9 C 12,2 C 97 % 1015,0 hPa 0,0 l/m 3,1 km/h (1 Bft) S 178 0 min 0,000 mm 0,0 UV-I 0 W/m 7,5 C 7,9 C 4,8 km/h (1 Bft) 97,14 %
19.10.2017 00:26 7,7 C 12,2 C 97 % 1015,0 hPa 0,0 l/m 2,1 km/h (1 Bft) S 178 0 min 0,000 mm 0,0 UV-I 0 W/m 7,3 C 7,7 C 3,2 km/h (1 Bft) 94,34 %
19.10.2017 00:28 7,5 C 12,2 C 97 % 1015,0 hPa 0,0 l/m 1,6 km/h (1 Bft) S 178 0 min 0,000 mm 0,0 UV-I 0 W/m 7,1 C 7,5 C 3,2 km/h (1 Bft) 98,00 %
19.10.2017 00:30 7,5 C 12,2 C 97 % 1014,9 hPa 0,0 l/m 1,4 km/h (1 Bft) S 178 0 min 0,000 mm 0,0 UV-I 0 W/m 7,1 C 7,5 C 3,2 km/h (1 Bft) 97,87 %
19.10.2017 00:32 7,6 C 12,2 C 97 % 1015,0 hPa 0,0 l/m 0,8 km/h (0 Bft) S 178 0 min 0,000 mm 0,0 UV-I 0 W/m 7,2 C 7,6 C 1,6 km/h (1 Bft) 100,00 %
19.10.2017 00:34 7,7 C 12,2 C 97 % 1014,9 hPa 0,0 l/m 0,4 km/h (0 Bft) S 178 0 min 0,000 mm 0,0 UV-I 0 W/m 7,3 C 7,7 C 1,6 km/h (1 Bft) 98,00 %
19.10.2017 00:36 7,8 C 12,2 C 98 % 1015,0 hPa 0,0 l/m 0,0 km/h (0 Bft) S 178 0 min 0,000 mm 0,0 UV-I 0 W/m 7,5 C 7,8 C 1,6 km/h (1 Bft) 97,87 %
19.10.2017 00:38 7,9 C 12,2 C 98 % 1015,0 hPa 0,0 l/m 0,2 km/h (0 Bft) S 178 0 min 0,000 mm 0,0 UV-I 0 W/m 7,6 C 7,9 C 1,6 km/h (1 Bft) 97,56 %
19.10.2017 00:40 7,8 C 12,2 C 97 % 1015,0 hPa 0,0 l/m 1,2 km/h (1 Bft) S 178 0 min 0,000 mm 0,0 UV-I 0 W/m 7,4 C 7,8 C 1,6 km/h (1 Bft) 96,00 %
19.10.2017 00:42 7,8 C 12,2 C 97 % 1015,0 hPa 0,0 l/m 0,3 km/h (0 Bft) S 178 0 min 0,000 mm 0,0 UV-I 0 W/m 7,4 C 7,8 C 1,6 km/h (1 Bft) 97,44 %
19.10.2017 00:44 7,6 C 12,2 C 97 % 1015,0 hPa 0,0 l/m 0,0 km/h (0 Bft) S 178 0 min 0,000 mm 0,0 UV-I 0 W/m 7,2 C 7,6 C 0,0 km/h (0 Bft) 97,87 %
19.10.2017 00:46 7,5 C 12,2 C 97 % 1015,0 hPa 0,0 l/m 0,0 km/h (0 Bft) S 178 0 min 0,000 mm 0,0 UV-I 0 W/m 7,1 C 7,5 C 0,0 km/h (0 Bft) 97,87 %
19.10.2017 00:48 7,6 C 12,2 C 97 % 1015,0 hPa 0,0 l/m 0,0 km/h (0 Bft) S 178 0 min 0,000 mm 0,0 UV-I 0 W/m 7,2 C 7,6 C 0,0 km/h (0 Bft) 96,00 %
19.10.2017 00:50 7,6 C 12,2 C 97 % 1015,0 hPa 0,0 l/m 0,0 km/h (0 Bft) S 178 0 min 0,000 mm 0,0 UV-I 0 W/m 7,2 C 7,6 C 0,0 km/h (0 Bft) 96,00 %
19.10.2017 00:52 7,5 C 12,2 C 97 % 1015,0 hPa 0,0 l/m 0,0 km/h (0 Bft) S 178 0 min 0,000 mm 0,0 UV-I 0 W/m 7,1 C 7,5 C 0,0 km/h (0 Bft) 97,87 %
19.10.2017 00:54 7,5 C 12,2 C 97 % 1015,0 hPa 0,0 l/m 1,0 km/h (0 Bft) S 178 0 min 0,000 mm 0,0 UV-I 0 W/m 7,1 C 7,5 C 1,6 km/h (1 Bft) 97,56 %
19.10.2017 00:56 7,5 C 12,2 C 97 % 1015,0 hPa 0,0 l/m 1,6 km/h (1 Bft) S 178 0 min 0,000 mm 0,0 UV-I 0 W/m 7,1 C 7,5 C 3,2 km/h (1 Bft) 97,87 %
19.10.2017 00:58 7,5 C 12,2 C 97 % 1015,0 hPa 0,0 l/m 2,0 km/h (1 Bft) S 178 0 min 0,000 mm 0,0 UV-I 0 W/m 7,1 C 7,5 C 3,2 km/h (1 Bft) 97,87 %
19.10.2017 01:00 7,4 C 12,2 C 97 % 1014,9 hPa 0,0 l/m 1,2 km/h (1 Bft) S 178 0 min 0,000 mm 0,0 UV-I 0 W/m 7,0 C 7,4 C 3,2 km/h (1 Bft) 98,00 %
19.10.2017 01:02 7,3 C 12,2 C 97 % 1014,9 hPa 0,0 l/m 0,2 km/h (0 Bft) S 178 0 min 0,000 mm 0,0 UV-I 0 W/m 6,9 C 7,3 C 1,6 km/h (1 Bft) 98,00 %
19.10.2017 01:04 7,3 C 12,2 C 97 % 1015,0 hPa 0,0 l/m 0,0 km/h (0 Bft) S 178 0 min 0,000 mm 0,0 UV-I 0 W/m 6,9 C 7,3 C 0,0 km/h (0 Bft) 97,87 %
19.10.2017 01:06 7,3 C 12,2 C 97 % 1015,0 hPa 0,0 l/m 0,0 km/h (0 Bft) S 178 0 min 0,000 mm 0,0 UV-I 0 W/m 6,9 C 7,3 C 0,0 km/h (0 Bft) 97,37 %
19.10.2017 01:08 7,3 C 12,2 C 97 % 1014,9 hPa 0,0 l/m 1,0 km/h (0 Bft) S 178 0 min 0,000 mm 0,0 UV-I 0 W/m 6,9 C 7,3 C 1,6 km/h (1 Bft) 96,00 %
19.10.2017 01:10 7,2 C 12,2 C 97 % 1015,0 hPa 0,0 l/m 1,1 km/h (1 Bft) S 178 0 min 0,000 mm 0,0 UV-I 0 W/m 6,8 C 7,2 C 1,6 km/h (1 Bft) 96,00 %
19.10.2017 01:12 7,2 C 12,2 C 97 % 1014,9 hPa 0,0 l/m 0,3 km/h (0 Bft) S 178 0 min 0,000 mm 0,0 UV-I 0 W/m 6,8 C 7,2 C 1,6 km/h (1 Bft) 98,00 %
19.10.2017 01:14 7,1 C 12,2 C 97 % 1015,0 hPa 0,0 l/m 0,8 km/h (0 Bft) S 178 0 min 0,000 mm 0,0 UV-I 0 W/m 6,7 C 7,1 C 1,6 km/h (1 Bft) 97,87 %
19.10.2017 01:16 7,1 C 12,2 C 97 % 1014,9 hPa 0,0 l/m 1,2 km/h (1 Bft) S 178 0 min 0,000 mm 0,0 UV-I 0 W/m 6,7 C 7,1 C 1,6 km/h (1 Bft) 97,37 %
19.10.2017 01:18 7,2 C 12,2 C 97 % 1014,9 hPa 0,0 l/m 0,9 km/h (0 Bft) S 178 0 min 0,000 mm 0,0 UV-I 0 W/m 6,8 C 7,2 C 1,6 km/h (1 Bft) 98,00 %
19.10.2017 01:20 7,3 C 12,2 C 97 % 1015,0 hPa 0,0 l/m 0,7 km/h (0 Bft) S 178 0 min 0,000 mm 0,0 UV-I 0 W/m 6,9 C 7,3 C 1,6 km/h (1 Bft) 98,11 %
19.10.2017 01:22 7,3 C 12,2 C 98 % 1015,0 hPa 0,0 l/m 1,2 km/h (1 Bft) S 178 0 min 0,000 mm 0,0 UV-I 0 W/m 7,0 C 7,3 C 1,6 km/h (1 Bft) 97,56 %
19.10.2017 01:24 7,2 C 12,2 C 97 % 1015,0 hPa 0,0 l/m 1,0 km/h (0 Bft) S 178 0 min 0,000 mm 0,0 UV-I 0 W/m 6,8 C 7,2 C 1,6 km/h (1 Bft) 97,87 %
19.10.2017 01:26 7,2 C 12,2 C 97 % 1015,0 hPa 0,0 l/m 0,7 km/h (0 Bft) S 178 0 min 0,000 mm 0,0 UV-I 0 W/m 6,8 C 7,2 C 1,6 km/h (1 Bft) 100,00 %
19.10.2017 01:28 7,1 C 12,2 C 97 % 1015,0 hPa 0,0 l/m 0,4 km/h (0 Bft) S 178 0 min 0,000 mm 0,0 UV-I 0 W/m 6,7 C 7,1 C 1,6 km/h (1 Bft) 100,00 %
19.10.2017 01:30 7,1 C 12,2 C 97 % 1015,1 hPa 0,0 l/m 0,3 km/h (0 Bft) S 185 0 min 0,000 mm 0,0 UV-I 0 W/m 6,7 C 7,1 C 1,6 km/h (1 Bft) 100,00 %
19.10.2017 01:32 7,1 C 12,2 C 97 % 1015,0 hPa 0,0 l/m 0,6 km/h (0 Bft) S 185 0 min 0,000 mm 0,0 UV-I 0 W/m 6,7 C 7,1 C 1,6 km/h (1 Bft) 100,00 %
19.10.2017 01:34 7,1 C 12,2 C 97 % 1015,0 hPa 0,0 l/m 0,9 km/h (0 Bft) S 186 0 min 0,000 mm 0,0 UV-I 0 W/m 6,7 C 7,1 C 3,2 km/h (1 Bft) 94,74 %
19.10.2017 01:36 7,1 C 12,2 C 97 % 1015,0 hPa 0,0 l/m 0,3 km/h (0 Bft) S 186 0 min 0,000 mm 0,0 UV-I 0 W/m 6,7 C 7,1 C 1,6 km/h (1 Bft) 100,00 %
19.10.2017 01:38 6,9 C 12,2 C 97 % 1015,1 hPa 0,0 l/m 0,0 km/h (0 Bft) S 186 0 min 0,000 mm 0,0 UV-I 0 W/m 6,5 C 6,9 C 0,0 km/h (0 Bft) 100,00 %
19.10.2017 01:40 6,9 C 12,2 C 97 % 1015,1 hPa 0,0 l/m 0,0 km/h (0 Bft) S 186 0 min 0,000 mm 0,0 UV-I 0 W/m 6,5 C 6,9 C 0,0 km/h (0 Bft) 100,00 %
19.10.2017 01:42 7,0 C 12,2 C 97 % 1015,1 hPa 0,0 l/m 0,0 km/h (0 Bft) S 186 0 min 0,000 mm 0,0 UV-I 0 W/m 6,6 C 7,0 C 0,0 km/h (0 Bft) 100,00 %
19.10.2017 01:44 7,1 C 12,2 C 97 % 1015,1 hPa 0,0 l/m 0,0 km/h (0 Bft) S 186 0 min 0,000 mm 0,0 UV-I 0 W/m 6,7 C 7,1 C 0,0 km/h (0 Bft) 100,00 %
19.10.2017 01:46 7,2 C 12,2 C 97 % 1015,2 hPa 0,0 l/m 0,0 km/h (0 Bft) S 186 0 min 0,000 mm 0,0 UV-I 0 W/m 6,8 C 7,2 C 0,0 km/h (0 Bft) 100,00 %
19.10.2017 01:48 7,2 C 12,2 C 98 % 1015,2 hPa 0,0 l/m 0,0 km/h (0 Bft) S 186 0 min 0,000 mm 0,0 UV-I 0 W/m 6,9 C 7,2 C 0,0 km/h (0 Bft) 100,00 %
19.10.2017 01:50 7,3 C 12,2 C 98 % 1015,2 hPa 0,0 l/m 0,1 km/h (0 Bft) S 186 0 min 0,000 mm 0,0 UV-I 0 W/m 7,0 C 7,3 C 1,6 km/h (1 Bft) 100,00 %
19.10.2017 01:52 7,4 C 12,2 C 98 % 1015,2 hPa 0,0 l/m 0,3 km/h (0 Bft) S 186 0 min 0,000 mm 0,0 UV-I 0 W/m 7,1 C 7,4 C 1,6 km/h (1 Bft) 97,87 %
19.10.2017 01:54 7,4 C 12,2 C 98 % 1015,2 hPa 0,0 l/m 0,2 km/h (0 Bft) S 186 0 min 0,000 mm 0,0 UV-I 0 W/m 7,1 C 7,4 C 1,6 km/h (1 Bft) 100,00 %
19.10.2017 01:56 7,5 C 12,2 C 98 % 1015,1 hPa 0,0 l/m 0,0 km/h (0 Bft) S 186 0 min 0,000 mm 0,0 UV-I 0 W/m 7,2 C 7,5 C 0,0 km/h (0 Bft) 100,00 %
19.10.2017 01:58 7,6 C 12,2 C 98 % 1015,1 hPa 0,0 l/m 0,0 km/h (0 Bft) S 186 0 min 0,000 mm 0,0 UV-I 0 W/m 7,3 C 7,6 C 0,0 km/h (0 Bft) 100,00 %
19.10.2017 02:00 7,6 C 12,2 C 98 % 1015,1 hPa 0,0 l/m 0,0 km/h (0 Bft) S 186 0 min 0,000 mm 0,0 UV-I 0 W/m 7,3 C 7,6 C 1,6 km/h (1 Bft) 100,00 %
19.10.2017 02:02 7,6 C 12,2 C 98 % 1015,1 hPa 0,0 l/m 0,0 km/h (0 Bft) S 186 0 min 0,000 mm 0,0 UV-I 0 W/m 7,3 C 7,6 C 0,0 km/h (0 Bft) 100,00 %
19.10.2017 02:04 7,6 C 12,2 C 98 % 1015,1 hPa 0,0 l/m 0,0 km/h (0 Bft) S 186 0 min 0,000 mm 0,0 UV-I 0 W/m 7,3 C 7,6 C 0,0 km/h (0 Bft) 100,00 %
19.10.2017 02:06 7,7 C 12,2 C 98 % 1015,1 hPa 0,0 l/m 0,7 km/h (0 Bft) S 186 0 min 0,000 mm 0,0 UV-I 0 W/m 7,4 C 7,7 C 1,6 km/h (1 Bft) 98,00 %
19.10.2017 02:08 7,7 C 12,2 C 98 % 1015,1 hPa 0,0 l/m 0,1 km/h (0 Bft) S 186 0 min 0,000 mm 0,0 UV-I 0 W/m 7,4 C 7,7 C 1,6 km/h (1 Bft) 100,00 %
19.10.2017 02:10 7,7 C 12,2 C 98 % 1015,2 hPa 0,0 l/m 0,0 km/h (0 Bft) S 186 0 min 0,000 mm 0,0 UV-I 0 W/m 7,4 C 7,7 C 1,6 km/h (1 Bft) 100,00 %
19.10.2017 02:12 7,7 C 12,2 C 98 % 1015,2 hPa 0,0 l/m 0,7 km/h (0 Bft) S 186 0 min 0,000 mm 0,0 UV-I 0 W/m 7,4 C 7,7 C 1,6 km/h (1 Bft) 100,00 %
19.10.2017 02:14 7,7 C 12,2 C 98 % 1015,1 hPa 0,0 l/m 2,1 km/h (1 Bft) S 186 0 min 0,000 mm 0,0 UV-I 0 W/m 7,4 C 7,7 C 3,2 km/h (1 Bft) 100,00 %
19.10.2017 02:16 7,7 C 12,2 C 98 % 1015,2 hPa 0,0 l/m 2,6 km/h (1 Bft) S 186 0 min 0,000 mm 0,0 UV-I 0 W/m 7,4 C 7,7 C 3,2 km/h (1 Bft) 98,11 %
19.10.2017 02:18 7,6 C 12,2 C 98 % 1015,2 hPa 0,0 l/m 2,4 km/h (1 Bft) S 186 0 min 0,000 mm 0,0 UV-I 0 W/m 7,3 C 7,6 C 3,2 km/h (1 Bft) 97,87 %
19.10.2017 02:20 7,6 C 12,2 C 98 % 1015,3 hPa 0,0 l/m 2,8 km/h (1 Bft) S 186 0 min 0,000 mm 0,0 UV-I 0 W/m 7,3 C 7,6 C 4,8 km/h (1 Bft) 95,74 %
19.10.2017 02:22 7,6 C 12,2 C 98 % 1015,3 hPa 0,0 l/m 2,7 km/h (1 Bft) S 186 0 min 0,000 mm 0,0 UV-I 0 W/m 7,3 C 7,6 C 4,8 km/h (1 Bft) 95,74 %
19.10.2017 02:24 7,5 C 11,7 C 97 % 1015,4 hPa 0,0 l/m 2,9 km/h (1 Bft) S 186 0 min 0,000 mm 0,0 UV-I 0 W/m 7,1 C 7,5 C 4,8 km/h (1 Bft) 97,37 %
19.10.2017 02:26 7,4 C 11,7 C 97 % 1015,4 hPa 0,0 l/m 2,0 km/h (1 Bft) S 186 0 min 0,000 mm 0,0 UV-I 0 W/m 7,0 C 7,4 C 4,8 km/h (1 Bft) 94,00 %
19.10.2017 02:28 7,4 C 11,7 C 97 % 1015,4 hPa 0,0 l/m 0,6 km/h (0 Bft) S 186 0 min 0,000 mm 0,0 UV-I 0 W/m 7,0 C 7,4 C 1,6 km/h (1 Bft) 98,00 %
19.10.2017 02:30 7,4 C 11,7 C 97 % 1015,4 hPa 0,0 l/m 0,9 km/h (0 Bft) S 186 0 min 0,000 mm 0,0 UV-I 0 W/m 7,0 C 7,4 C 3,2 km/h (1 Bft) 94,74 %
19.10.2017 02:32 7,5 C 11,7 C 98 % 1015,4 hPa 0,0 l/m 0,8 km/h (0 Bft) S 186 0 min 0,000 mm 0,0 UV-I 0 W/m 7,2 C 7,5 C 3,2 km/h (1 Bft) 98,00 %
19.10.2017 02:34 7,5 C 11,7 C 98 % 1015,4 hPa 0,0 l/m 0,7 km/h (0 Bft) S 186 0 min 0,000 mm 0,0 UV-I 0 W/m 7,2 C 7,5 C 3,2 km/h (1 Bft) 98,11 %
19.10.2017 02:36 7,6 C 11,7 C 98 % 1015,4 hPa 0,0 l/m 1,9 km/h (1 Bft) S 186 0 min 0,000 mm 0,0 UV-I 0 W/m 7,3 C 7,6 C 3,2 km/h (1 Bft) 97,37 %
19.10.2017 02:38 7,6 C 11,7 C 98 % 1015,4 hPa 0,0 l/m 1,2 km/h (1 Bft) S 186 0 min 0,000 mm 0,0 UV-I 0 W/m 7,3 C 7,6 C 3,2 km/h (1 Bft) 98,21 %
19.10.2017 02:40 7,7 C 11,7 C 98 % 1015,4 hPa 0,0 l/m 1,6 km/h (1 Bft) S 186 0 min 0,000 mm 0,0 UV-I 0 W/m 7,4 C 7,7 C 4,8 km/h (1 Bft) 97,44 %
19.10.2017 02:42 7,7 C 11,7 C 98 % 1015,4 hPa 0,0 l/m 1,4 km/h (1 Bft) S 186 0 min 0,000 mm 0,0 UV-I 0 W/m 7,4 C 7,7 C 3,2 km/h (1 Bft) 97,87 %
19.10.2017 02:44 7,8 C 11,7 C 98 % 1015,4 hPa 0,0 l/m 2,6 km/h (1 Bft) S 188 0 min 0,000 mm 0,0 UV-I 0 W/m 7,5 C 7,8 C 4,8 km/h (1 Bft) 96,00 %
19.10.2017 02:46 7,8 C 11,7 C 98 % 1015,4 hPa 0,0 l/m 3,0 km/h (1 Bft) S 188 0 min 0,000 mm 0,0 UV-I 0 W/m 7,5 C 7,8 C 4,8 km/h (1 Bft) 94,29 %
19.10.2017 02:48 7,8 C 11,7 C 98 % 1015,4 hPa 0,0 l/m 2,6 km/h (1 Bft) S 188 0 min 0,000 mm 0,0 UV-I 0 W/m 7,5 C 7,8 C 4,8 km/h (1 Bft) 94,34 %
19.10.2017 02:50 7,9 C 11,7 C 98 % 1015,4 hPa 0,0 l/m 2,8 km/h (1 Bft) S-SW 194 0 min 0,000 mm 0,0 UV-I 0 W/m 7,6 C 7,9 C 4,8 km/h (1 Bft) 98,31 %
19.10.2017 02:52 7,9 C 11,7 C 98 % 1015,4 hPa 0,0 l/m 2,0 km/h (1 Bft) S-SW 194 0 min 0,000 mm 0,0 UV-I 0 W/m 7,6 C 7,9 C 4,8 km/h (1 Bft) 97,87 %
19.10.2017 02:54 7,9 C 11,7 C 98 % 1015,4 hPa 0,0 l/m 0,2 km/h (0 Bft) S-SW 194 0 min 0,000 mm 0,0 UV-I 0 W/m 7,6 C 7,9 C 1,6 km/h (1 Bft) 100,00 %
19.10.2017 02:56 8,0 C 11,7 C 98 % 1015,4 hPa 0,0 l/m 0,2 km/h (0 Bft) S-SW 194 0 min 0,000 mm 0,0 UV-I 0 W/m 7,7 C 8,0 C 1,6 km/h (1 Bft) 95,74 %
19.10.2017 02:58 8,1 C 11,7 C 98 % 1015,4 hPa 0,0 l/m 0,0 km/h (0 Bft) S-SW 194 0 min 0,000 mm 0,0 UV-I 0 W/m 7,8 C 8,1 C 0,0 km/h (0 Bft) 100,00 %
19.10.2017 03:00 8,1 C 11,7 C 98 % 1015,4 hPa 0,0 l/m 0,0 km/h (0 Bft) S-SW 194 0 min 0,000 mm 0,0 UV-I 0 W/m 7,8 C 8,1 C 0,0 km/h (0 Bft) 100,00 %
19.10.2017 03:02 8,2 C 11,7 C 98 % 1015,5 hPa 0,0 l/m 0,0 km/h (0 Bft) S-SW 194 0 min 0,000 mm 0,0 UV-I 0 W/m 7,9 C 8,2 C 0,0 km/h (0 Bft) 100,00 %
19.10.2017 03:04 8,2 C 11,7 C 98 % 1015,5 hPa 0,0 l/m 0,0 km/h (0 Bft) S-SW 194 0 min 0,000 mm 0,0 UV-I 0 W/m 7,9 C 8,2 C 0,0 km/h (0 Bft) 100,00 %
19.10.2017 03:06 8,2 C 11,7 C 98 % 1015,5 hPa 0,0 l/m 0,2 km/h (0 Bft) S-SW 194 0 min 0,000 mm 0,0 UV-I 0 W/m 7,9 C 8,2 C 3,2 km/h (1 Bft) 100,00 %
19.10.2017 03:08 8,3 C 11,7 C 98 % 1015,5 hPa 0,0 l/m 1,3 km/h (1 Bft) S-SW 194 0 min 0,000 mm 0,0 UV-I 0 W/m 8,0 C 8,3 C 3,2 km/h (1 Bft) 98,00 %
19.10.2017 03:10 8,3 C 11,7 C 98 % 1015,5 hPa 0,0 l/m 0,6 km/h (0 Bft) S-SW 194 0 min 0,000 mm 0,0 UV-I 0 W/m 8,0 C 8,3 C 1,6 km/h (1 Bft) 100,00 %
19.10.2017 03:12 8,3 C 11,7 C 98 % 1015,5 hPa 0,0 l/m 0,3 km/h (0 Bft) S-SW 194 0 min 0,000 mm 0,0 UV-I 0 W/m 8,0 C 8,3 C 1,6 km/h (1 Bft) 100,00 %
19.10.2017 03:14 8,4 C 11,7 C 98 % 1015,5 hPa 0,0 l/m 0,1 km/h (0 Bft) S-SW 194 0 min 0,000 mm 0,0 UV-I 0 W/m 8,1 C 8,4 C 1,6 km/h (1 Bft) 100,00 %
19.10.2017 03:16 8,4 C 11,7 C 98 % 1015,5 hPa 0,0 l/m 0,0 km/h (0 Bft) S-SW 194 0 min 0,000 mm 0,0 UV-I 0 W/m 8,1 C 8,4 C 1,6 km/h (1 Bft) 100,00 %
19.10.2017 03:18 8,5 C 11,7 C 98 % 1015,5 hPa 0,0 l/m 0,1 km/h (0 Bft) S-SW 194 0 min 0,000 mm 0,0 UV-I 0 W/m 8,2 C 8,5 C 1,6 km/h (1 Bft) 100,00 %
19.10.2017 03:20 8,6 C 11,7 C 98 % 1015,5 hPa 0,0 l/m 0,0 km/h (0 Bft) S-SW 194 0 min 0,000 mm 0,0 UV-I 0 W/m 8,3 C 8,6 C 0,0 km/h (0 Bft) 100,00 %
19.10.2017 03:22 8,6 C 11,7 C 98 % 1015,5 hPa 0,0 l/m 0,2 km/h (0 Bft) S-SW 194 0 min 0,000 mm 0,0 UV-I 0 W/m 8,3 C 8,6 C 1,6 km/h (1 Bft) 98,00 %
19.10.2017 03:24 8,6 C 11,7 C 98 % 1015,5 hPa 0,0 l/m 0,0 km/h (0 Bft) S-SW 194 0 min 0,000 mm 0,0 UV-I 0 W/m 8,3 C 8,6 C 0,0 km/h (0 Bft) 100,00 %
19.10.2017 03:26 8,6 C 11,7 C 98 % 1015,5 hPa 0,0 l/m 1,2 km/h (1 Bft) S-SW 194 0 min 0,000 mm 0,0 UV-I 0 W/m 8,3 C 8,6 C 3,2 km/h (1 Bft) 98,00 %
19.10.2017 03:28 8,6 C 11,7 C 98 % 1015,5 hPa 0,0 l/m 0,1 km/h (0 Bft) S-SW 194 0 min 0,000 mm 0,0 UV-I 0 W/m 8,3 C 8,6 C 1,6 km/h (1 Bft) 98,00 %
19.10.2017 03:30 8,7 C 11,7 C 98 % 1015,5 hPa 0,0 l/m 0,0 km/h (0 Bft) S-SW 194 0 min 0,000 mm 0,0 UV-I 0 W/m 8,4 C 8,7 C 0,0 km/h (0 Bft) 97,37 %
19.10.2017 03:32 8,7 C 11,7 C 98 % 1015,5 hPa 0,0 l/m 0,3 km/h (0 Bft) S-SW 194 0 min 0,000 mm 0,0 UV-I 0 W/m 8,4 C 8,7 C 1,6 km/h (1 Bft) 100,00 %
19.10.2017 03:34 8,7 C 11,7 C 98 % 1015,6 hPa 0,0 l/m 0,0 km/h (0 Bft) S-SW 194 0 min 0,000 mm 0,0 UV-I 0 W/m 8,4 C 8,7 C 1,6 km/h (1 Bft) 100,00 %
19.10.2017 03:36 8,7 C 11,7 C 98 % 1015,6 hPa 0,0 l/m 0,8 km/h (0 Bft) S-SW 194 0 min 0,000 mm 0,0 UV-I 0 W/m 8,4 C 8,7 C 3,2 km/h (1 Bft) 100,00 %
19.10.2017 03:38 8,7 C 11,7 C 98 % 1015,6 hPa 0,0 l/m 0,3 km/h (0 Bft) S-SW 194 0 min 0,000 mm 0,0 UV-I 0 W/m 8,4 C 8,7 C 3,2 km/h (1 Bft) 100,00 %
19.10.2017 03:40 8,6 C 11,7 C 98 % 1015,6 hPa 0,0 l/m 2,7 km/h (1 Bft) S-SW 198 0 min 0,000 mm 0,0 UV-I 0 W/m 8,3 C 8,6 C 4,8 km/h (1 Bft) 100,00 %
19.10.2017 03:42 8,6 C 11,7 C 98 % 1015,6 hPa 0,0 l/m 2,2 km/h (1 Bft) S-SW 198 0 min 0,000 mm 0,0 UV-I 0 W/m 8,3 C 8,6 C 3,2 km/h (1 Bft) 100,00 %
19.10.2017 03:44 8,6 C 11,7 C 98 % 1015,7 hPa 0,0 l/m 2,5 km/h (1 Bft) S-SW 198 0 min 0,000 mm 0,0 UV-I 0 W/m 8,3 C 8,6 C 4,8 km/h (1 Bft) 100,00 %
19.10.2017 03:46 8,6 C 11,7 C 98 % 1015,6 hPa 0,0 l/m 1,5 km/h (1 Bft) S-SW 198 0 min 0,000 mm 0,0 UV-I 0 W/m 8,3 C 8,6 C 3,2 km/h (1 Bft) 100,00 %
19.10.2017 03:48 8,7 C 11,7 C 98 % 1015,6 hPa 0,0 l/m 2,5 km/h (1 Bft) S-SW 198 0 min 0,000 mm 0,0 UV-I 0 W/m 8,4 C 8,7 C 3,2 km/h (1 Bft) 100,00 %
19.10.2017 03:50 8,7 C 11,7 C 98 % 1015,6 hPa 0,0 l/m 1,5 km/h (1 Bft) S-SW 198 0 min 0,000 mm 0,0 UV-I 0 W/m 8,4 C 8,7 C 3,2 km/h (1 Bft) 97,14 %
19.10.2017 03:52 8,7 C 11,7 C 98 % 1015,6 hPa 0,0 l/m 1,0 km/h (0 Bft) S-SW 198 0 min 0,000 mm 0,0 UV-I 0 W/m 8,4 C 8,7 C 3,2 km/h (1 Bft) 100,00 %
19.10.2017 03:54 8,8 C 11,7 C 98 % 1015,5 hPa 0,0 l/m 2,5 km/h (1 Bft) SW 214 0 min 0,000 mm 0,0 UV-I 0 W/m 8,5 C 8,8 C 4,8 km/h (1 Bft) 97,22 %
19.10.2017 03:56 8,8 C 11,7 C 98 % 1015,5 hPa 0,0 l/m 0,8 km/h (0 Bft) SW 214 0 min 0,000 mm 0,0 UV-I 0 W/m 8,5 C 8,8 C 3,2 km/h (1 Bft) 98,18 %
19.10.2017 03:58 8,8 C 11,7 C 98 % 1015,5 hPa 0,0 l/m 0,2 km/h (0 Bft) SW 214 0 min 0,000 mm 0,0 UV-I 0 W/m 8,5 C 8,8 C 1,6 km/h (1 Bft) 94,34 %
19.10.2017 04:00 8,9 C 11,7 C 98 % 1015,4 hPa 0,0 l/m 1,4 km/h (1 Bft) SW 214 0 min 0,000 mm 0,0 UV-I 0 W/m 8,6 C 8,9 C 3,2 km/h (1 Bft) 98,00 %
19.10.2017 04:02 8,9 C 11,7 C 98 % 1015,4 hPa 0,0 l/m 0,6 km/h (0 Bft) SW 214 0 min 0,000 mm 0,0 UV-I 0 W/m 8,6 C 8,9 C 1,6 km/h (1 Bft) 94,44 %
19.10.2017 04:04 8,9 C 11,7 C 98 % 1015,4 hPa 0,0 l/m 0,8 km/h (0 Bft) SW 214 0 min 0,000 mm 0,0 UV-I 0 W/m 8,6 C 8,9 C 1,6 km/h (1 Bft) 97,62 %
19.10.2017 04:06 8,9 C 11,7 C 98 % 1015,4 hPa 0,0 l/m 0,1 km/h (0 Bft) SW 214 0 min 0,000 mm 0,0 UV-I 0 W/m 8,6 C 8,9 C 1,6 km/h (1 Bft) 98,00 %
19.10.2017 04:08 8,9 C 11,7 C 98 % 1015,4 hPa 0,0 l/m 0,0 km/h (0 Bft) SW 214 0 min 0,000 mm 0,0 UV-I 0 W/m 8,6 C 8,9 C 0,0 km/h (0 Bft) 97,87 %
19.10.2017 04:10 8,9 C 11,7 C 98 % 1015,4 hPa 0,0 l/m 1,4 km/h (1 Bft) SW 215 0 min 0,000 mm 0,0 UV-I 0 W/m 8,6 C 8,9 C 6,4 km/h (2 Bft) 97,37 %
19.10.2017 04:12 8,9 C 11,7 C 98 % 1015,4 hPa 0,0 l/m 2,5 km/h (1 Bft) SW 217 0 min 0,000 mm 0,0 UV-I 0 W/m 8,6 C 8,9 C 3,2 km/h (1 Bft) 98,11 %
19.10.2017 04:14 8,9 C 11,7 C 98 % 1015,4 hPa 0,0 l/m 2,7 km/h (1 Bft) SW 217 0 min 0,000 mm 0,0 UV-I 0 W/m 8,6 C 8,9 C 4,8 km/h (1 Bft) 95,12 %
19.10.2017 04:16 8,9 C 11,7 C 98 % 1015,4 hPa 0,0 l/m 1,3 km/h (1 Bft) SW 217 0 min 0,000 mm 0,0 UV-I 0 W/m 8,6 C 8,9 C 3,2 km/h (1 Bft) 97,37 %
19.10.2017 04:18 8,9 C 11,7 C 98 % 1015,4 hPa 0,0 l/m 0,8 km/h (0 Bft) SW 217 0 min 0,000 mm 0,0 UV-I 0 W/m 8,6 C 8,9 C 3,2 km/h (1 Bft) 96,43 %
19.10.2017 04:20 8,9 C 11,7 C 98 % 1015,4 hPa 0,0 l/m 1,2 km/h (1 Bft) SW 217 0 min 0,000 mm 0,0 UV-I 0 W/m 8,6 C 8,9 C 3,2 km/h (1 Bft) 95,74 %
19.10.2017 04:22 8,9 C 11,7 C 98 % 1015,5 hPa 0,0 l/m 3,0 km/h (1 Bft) SW 217 0 min 0,000 mm 0,0 UV-I 0 W/m 8,6 C 8,9 C 4,8 km/h (1 Bft) 94,00 %
19.10.2017 04:24 8,9 C 11,7 C 98 % 1015,5 hPa 0,0 l/m 2,8 km/h (1 Bft) SW 217 0 min 0,000 mm 0,0 UV-I 0 W/m 8,6 C 8,9 C 4,8 km/h (1 Bft) 96,23 %
19.10.2017 04:26 8,9 C 11,7 C 98 % 1015,5 hPa 0,0 l/m 2,1 km/h (1 Bft) W-NW 292 0 min 0,000 mm 0,0 UV-I 0 W/m 8,6 C 8,9 C 3,2 km/h (1 Bft) 93,18 %
19.10.2017 04:28 8,8 C 11,7 C 98 % 1015,5 hPa 0,0 l/m 2,9 km/h (1 Bft) W-NW 302 0 min 0,000 mm 0,0 UV-I 0 W/m 8,5 C 8,8 C 4,8 km/h (1 Bft) 94,00 %
19.10.2017 04:30 8,8 C 11,7 C 98 % 1015,5 hPa 0,0 l/m 1,8 km/h (1 Bft) W-NW 302 0 min 0,000 mm 0,0 UV-I 0 W/m 8,5 C 8,8 C 3,2 km/h (1 Bft) 95,12 %
19.10.2017 04:32 8,8 C 11,7 C 98 % 1015,5 hPa 0,0 l/m 2,5 km/h (1 Bft) W-NW 287 0 min 0,000 mm 0,0 UV-I 0 W/m 8,5 C 8,8 C 4,8 km/h (1 Bft) 95,12 %
19.10.2017 04:34 8,8 C 11,7 C 98 % 1015,5 hPa 0,2 l/m 2,7 km/h (1 Bft) W 265 0 min 0,000 mm 0,0 UV-I 0 W/m 8,5 C 8,8 C 4,8 km/h (1 Bft) 96,00 %
19.10.2017 04:36 8,8 C 11,7 C 98 % 1015,6 hPa 0,0 l/m 1,3 km/h (1 Bft) W 265 0 min 0,000 mm 0,0 UV-I 0 W/m 8,5 C 8,8 C 3,2 km/h (1 Bft) 96,00 %
19.10.2017 04:38 8,8 C 11,7 C 98 % 1015,6 hPa 0,0 l/m 2,7 km/h (1 Bft) W-SW 243 0 min 0,000 mm 0,0 UV-I 0 W/m 8,5 C 8,8 C 4,8 km/h (1 Bft) 96,00 %
19.10.2017 04:40 8,8 C 11,7 C 98 % 1015,6 hPa 0,0 l/m 3,4 km/h (1 Bft) W-SW 243 0 min 0,000 mm 0,0 UV-I 0 W/m 8,5 C 8,8 C 4,8 km/h (1 Bft) 94,87 %
19.10.2017 04:42 8,8 C 11,7 C 98 % 1015,6 hPa 0,0 l/m 3,4 km/h (1 Bft) W-SW 243 0 min 0,000 mm 0,0 UV-I 0 W/m 8,5 C 8,8 C 4,8 km/h (1 Bft) 94,00 %
19.10.2017 04:44 8,8 C 11,7 C 98 % 1015,6 hPa 0,0 l/m 2,5 km/h (1 Bft) W-SW 244 0 min 0,000 mm 0,0 UV-I 0 W/m 8,5 C 8,8 C 4,8 km/h (1 Bft) 97,56 %
19.10.2017 04:46 8,8 C 11,7 C 98 % 1015,6 hPa 0,0 l/m 3,3 km/h (1 Bft) W-SW 245 0 min 0,000 mm 0,0 UV-I 0 W/m 8,5 C 8,8 C 4,8 km/h (1 Bft) 92,45 %
19.10.2017 04:48 8,8 C 11,7 C 98 % 1015,6 hPa 0,0 l/m 3,6 km/h (1 Bft) S-SW 203 0 min 0,000 mm 0,0 UV-I 0 W/m 8,5 C 8,8 C 6,4 km/h (2 Bft) 95,74 %
19.10.2017 04:50 8,7 C 11,7 C 98 % 1015,6 hPa 0,0 l/m 2,5 km/h (1 Bft) S-SW 196 0 min 0,000 mm 0,0 UV-I 0 W/m 8,4 C 8,7 C 4,8 km/h (1 Bft) 96,23 %
19.10.2017 04:52 8,7 C 11,7 C 98 % 1015,6 hPa 0,0 l/m 2,4 km/h (1 Bft) S-SW 196 0 min 0,000 mm 0,0 UV-I 0 W/m 8,4 C 8,7 C 4,8 km/h (1 Bft) 100,00 %
19.10.2017 04:54 8,6 C 11,7 C 98 % 1015,6 hPa 0,0 l/m 3,1 km/h (1 Bft) S-SW 212 0 min 0,000 mm 0,0 UV-I 0 W/m 8,3 C 8,6 C 4,8 km/h (1 Bft) 100,00 %
19.10.2017 04:56 8,7 C 11,7 C 98 % 1015,5 hPa 0,0 l/m 3,1 km/h (1 Bft) S-SW 212 0 min 0,000 mm 0,0 UV-I 0 W/m 8,4 C 8,7 C 4,8 km/h (1 Bft) 100,00 %
19.10.2017 04:58 8,6 C 11,7 C 98 % 1015,5 hPa 0,0 l/m 2,7 km/h (1 Bft) S-SW 212 0 min 0,000 mm 0,0 UV-I 0 W/m 8,3 C 8,6 C 3,2 km/h (1 Bft) 100,00 %
19.10.2017 05:00 8,6 C 11,7 C 98 % 1015,5 hPa 0,0 l/m 2,1 km/h (1 Bft) S-SW 212 0 min 0,000 mm 0,0 UV-I 0 W/m 8,3 C 8,6 C 3,2 km/h (1 Bft) 100,00 %
19.10.2017 05:02 8,6 C 11,7 C 98 % 1015,5 hPa 0,0 l/m 2,3 km/h (1 Bft) S-SW 212 0 min 0,000 mm 0,0 UV-I 0 W/m 8,3 C 8,6 C 4,8 km/h (1 Bft) 100,00 %
19.10.2017 05:04 8,5 C 11,7 C 98 % 1015,5 hPa 0,0 l/m 3,5 km/h (1 Bft) S-SW 212 0 min 0,000 mm 0,0 UV-I 0 W/m 8,2 C 8,5 C 4,8 km/h (1 Bft) 98,00 %
19.10.2017 05:06 8,5 C 11,7 C 98 % 1015,5 hPa 0,0 l/m 3,0 km/h (1 Bft) S-SW 212 0 min 0,000 mm 0,0 UV-I 0 W/m 8,2 C 8,5 C 4,8 km/h (1 Bft) 100,00 %
19.10.2017 05:08 8,5 C 11,7 C 98 % 1015,5 hPa 0,0 l/m 1,0 km/h (0 Bft) S-SW 212 0 min 0,000 mm 0,0 UV-I 0 W/m 8,2 C 8,5 C 3,2 km/h (1 Bft) 100,00 %
19.10.2017 05:10 8,4 C 11,7 C 98 % 1015,5 hPa 0,0 l/m 1,1 km/h (1 Bft) S-SW 212 0 min 0,000 mm 0,0 UV-I 0 W/m 8,1 C 8,4 C 3,2 km/h (1 Bft) 100,00 %
19.10.2017 05:12 8,4 C 11,7 C 98 % 1015,5 hPa 0,0 l/m 2,0 km/h (1 Bft) S-SW 200 0 min 0,000 mm 0,0 UV-I 0 W/m 8,1 C 8,4 C 3,2 km/h (1 Bft) 100,00 %
19.10.2017 05:14 8,4 C 11,7 C 98 % 1015,6 hPa 0,0 l/m 2,1 km/h (1 Bft) S-SW 200 0 min 0,000 mm 0,0 UV-I 0 W/m 8,1 C 8,4 C 4,8 km/h (1 Bft) 100,00 %
19.10.2017 05:16 8,4 C 11,7 C 98 % 1015,6 hPa 0,0 l/m 2,5 km/h (1 Bft) S-SW 200 0 min 0,000 mm 0,0 UV-I 0 W/m 8,1 C 8,4 C 4,8 km/h (1 Bft) 100,00 %
19.10.2017 05:18 8,4 C 11,7 C 98 % 1015,6 hPa 0,0 l/m 1,5 km/h (1 Bft) S 171 0 min 0,000 mm 0,0 UV-I 0 W/m 8,1 C 8,4 C 3,2 km/h (1 Bft) 100,00 %
19.10.2017 05:20 8,3 C 11,7 C 98 % 1015,6 hPa 0,0 l/m 2,6 km/h (1 Bft) S 170 0 min 0,000 mm 0,0 UV-I 0 W/m 8,0 C 8,3 C 6,4 km/h (2 Bft) 100,00 %
19.10.2017 05:22 8,3 C 11,7 C 98 % 1015,6 hPa 0,0 l/m 2,3 km/h (1 Bft) S 174 0 min 0,000 mm 0,0 UV-I 0 W/m 8,0 C 8,3 C 4,8 km/h (1 Bft) 100,00 %
19.10.2017 05:24 8,2 C 11,7 C 98 % 1015,6 hPa 0,0 l/m 1,9 km/h (1 Bft) S 175 0 min 0,000 mm 0,0 UV-I 0 W/m 7,9 C 8,2 C 3,2 km/h (1 Bft) 98,00 %
19.10.2017 05:26 8,2 C 11,7 C 98 % 1015,6 hPa 0,0 l/m 3,8 km/h (1 Bft) S-SW 213 0 min 0,000 mm 0,0 UV-I 0 W/m 7,9 C 8,2 C 4,8 km/h (1 Bft) 100,00 %
19.10.2017 05:28 8,2 C 11,7 C 98 % 1015,8 hPa 0,0 l/m 4,5 km/h (1 Bft) S-SW 203 0 min 0,000 mm 0,0 UV-I 0 W/m 7,9 C 8,2 C 6,4 km/h (2 Bft) 100,00 %
19.10.2017 05:30 8,2 C 11,7 C 98 % 1015,8 hPa 0,0 l/m 4,1 km/h (1 Bft) S-SW 203 0 min 0,000 mm 0,0 UV-I 0 W/m 7,9 C 8,2 C 6,4 km/h (2 Bft) 100,00 %
19.10.2017 05:32 8,1 C 11,7 C 98 % 1015,7 hPa 0,0 l/m 1,8 km/h (1 Bft) S-SW 203 0 min 0,000 mm 0,0 UV-I 0 W/m 7,8 C 8,1 C 3,2 km/h (1 Bft) 100,00 %
19.10.2017 05:34 8,1 C 11,7 C 98 % 1015,8 hPa 0,0 l/m 1,6 km/h (1 Bft) S-SW 203 0 min 0,000 mm 0,0 UV-I 0 W/m 7,8 C 8,1 C 3,2 km/h (1 Bft) 100,00 %
19.10.2017 05:36 8,0 C 11,7 C 98 % 1015,8 hPa 0,0 l/m 2,7 km/h (1 Bft) S 187 0 min 0,000 mm 0,0 UV-I 0 W/m 7,7 C 8,0 C 4,8 km/h (1 Bft) 100,00 %
19.10.2017 05:38 8,0 C 11,7 C 98 % 1015,8 hPa 0,0 l/m 3,0 km/h (1 Bft) S-SW 205 0 min 0,000 mm 0,0 UV-I 0 W/m 7,7 C 8,0 C 4,8 km/h (1 Bft) 100,00 %
19.10.2017 05:40 8,0 C 11,7 C 98 % 1015,9 hPa 0,0 l/m 5,0 km/h (1 Bft) S-SW 200 0 min 0,000 mm 0,0 UV-I 0 W/m 7,7 C 8,0 C 8,0 km/h (2 Bft) 100,00 %
19.10.2017 05:42 8,0 C 11,7 C 98 % 1015,9 hPa 0,0 l/m 5,0 km/h (1 Bft) S-SW 196 0 min 0,000 mm 0,0 UV-I 0 W/m 7,7 C 8,0 C 6,4 km/h (2 Bft) 100,00 %
19.10.2017 05:44 7,9 C 11,7 C 98 % 1015,8 hPa 0,0 l/m 3,3 km/h (1 Bft) S-SW 196 0 min 0,000 mm 0,0 UV-I 0 W/m 7,6 C 7,9 C 6,4 km/h (2 Bft) 100,00 %
19.10.2017 05:46 7,9 C 11,7 C 98 % 1015,9 hPa 0,0 l/m 3,4 km/h (1 Bft) S-SW 196 0 min 0,000 mm 0,0 UV-I 0 W/m 7,6 C 7,9 C 4,8 km/h (1 Bft) 98,00 %
19.10.2017 05:48 8,0 C 11,7 C 98 % 1015,8 hPa 0,0 l/m 1,4 km/h (1 Bft) S-SW 196 0 min 0,000 mm 0,0 UV-I 0 W/m 7,7 C 8,0 C 3,2 km/h (1 Bft) 100,00 %
19.10.2017 05:50 8,0 C 11,7 C 98 % 1015,8 hPa 0,0 l/m 1,8 km/h (1 Bft) S-SW 196 0 min 0,000 mm 0,0 UV-I 0 W/m 7,7 C 8,0 C 4,8 km/h (1 Bft) 100,00 %
19.10.2017 05:52 7,9 C 11,7 C 98 % 1015,8 hPa 0,0 l/m 0,3 km/h (0 Bft) S-SW 196 0 min 0,000 mm 0,0 UV-I 0 W/m 7,6 C 7,9 C 1,6 km/h (1 Bft) 100,00 %
19.10.2017 05:54 8,0 C 11,7 C 98 % 1015,7 hPa 0,0 l/m 0,7 km/h (0 Bft) S-SW 196 0 min 0,000 mm 0,0 UV-I 0 W/m 7,7 C 8,0 C 1,6 km/h (1 Bft) 100,00 %
19.10.2017 05:56 8,0 C 11,7 C 98 % 1015,7 hPa 0,0 l/m 1,1 km/h (1 Bft) S-SW 196 0 min 0,000 mm 0,0 UV-I 0 W/m 7,7 C 8,0 C 3,2 km/h (1 Bft) 100,00 %
19.10.2017 05:58 8,1 C 11,7 C 98 % 1015,6 hPa 0,0 l/m 0,4 km/h (0 Bft) S-SW 196 0 min 0,000 mm 0,0 UV-I 0 W/m 7,8 C 8,1 C 1,6 km/h (1 Bft) 100,00 %
19.10.2017 06:00 8,1 C 11,7 C 98 % 1015,6 hPa 0,0 l/m 0,9 km/h (0 Bft) S-SW 196 0 min 0,000 mm 0,0 UV-I 0 W/m 7,8 C 8,1 C 3,2 km/h (1 Bft) 100,00 %
19.10.2017 06:02 8,1 C 11,7 C 98 % 1015,6 hPa 0,0 l/m 1,8 km/h (1 Bft) S-SW 196 0 min 0,000 mm 0,0 UV-I 0 W/m 7,8 C 8,1 C 3,2 km/h (1 Bft) 100,00 %
19.10.2017 06:04 8,1 C 11,7 C 98 % 1015,6 hPa 0,0 l/m 2,0 km/h (1 Bft) S-SW 196 0 min 0,000 mm 0,0 UV-I 0 W/m 7,8 C 8,1 C 3,2 km/h (1 Bft) 100,00 %
19.10.2017 06:06 8,1 C 11,7 C 98 % 1015,6 hPa 0,0 l/m 1,0 km/h (0 Bft) S-SW 196 0 min 0,000 mm 0,0 UV-I 0 W/m 7,8 C 8,1 C 3,2 km/h (1 Bft) 100,00 %
19.10.2017 06:08 8,1 C 11,7 C 98 % 1015,7 hPa 0,0 l/m 3,4 km/h (1 Bft) S-SW 200 0 min 0,000 mm 0,0 UV-I 0 W/m 7,8 C 8,1 C 6,4 km/h (2 Bft) 100,00 %
19.10.2017 06:10 8,1 C 11,7 C 98 % 1015,7 hPa 0,0 l/m 3,9 km/h (1 Bft) S-SW 208 0 min 0,000 mm 0,0 UV-I 0 W/m 7,8 C 8,1 C 6,4 km/h (2 Bft) 97,56 %
19.10.2017 06:12 8,1 C 11,7 C 98 % 1015,7 hPa 0,0 l/m 2,9 km/h (1 Bft) SW 219 0 min 0,000 mm 0,0 UV-I 0 W/m 7,8 C 8,1 C 4,8 km/h (1 Bft) 100,00 %
19.10.2017 06:14 8,1 C 11,7 C 98 % 1015,7 hPa 0,0 l/m 1,2 km/h (1 Bft) SW 219 0 min 0,000 mm 0,0 UV-I 0 W/m 7,8 C 8,1 C 4,8 km/h (1 Bft) 100,00 %
19.10.2017 06:16 8,2 C 11,7 C 98 % 1015,8 hPa 0,0 l/m 4,1 km/h (1 Bft) SW 219 0 min 0,000 mm 0,0 UV-I 0 W/m 7,9 C 8,2 C 6,4 km/h (2 Bft) 100,00 %
19.10.2017 06:18 8,2 C 11,7 C 98 % 1015,7 hPa 0,0 l/m 3,3 km/h (1 Bft) SW 220 0 min 0,000 mm 0,0 UV-I 0 W/m 7,9 C 8,2 C 6,4 km/h (2 Bft) 97,37 %
19.10.2017 06:20 8,1 C 11,7 C 98 % 1015,6 hPa 0,0 l/m 2,3 km/h (1 Bft) SW 219 0 min 0,000 mm 0,0 UV-I 0 W/m 7,8 C 8,1 C 4,8 km/h (1 Bft) 97,87 %
19.10.2017 06:22 8,1 C 11,7 C 98 % 1015,7 hPa 0,0 l/m 2,3 km/h (1 Bft) SW 220 0 min 0,000 mm 0,0 UV-I 0 W/m 7,8 C 8,1 C 3,2 km/h (1 Bft) 98,11 %
19.10.2017 06:24 8,1 C 11,7 C 98 % 1015,6 hPa 0,0 l/m 1,2 km/h (1 Bft) W 269 0 min 0,000 mm 0,0 UV-I 0 W/m 7,8 C 8,1 C 3,2 km/h (1 Bft) 97,73 %
19.10.2017 06:26 8,0 C 11,7 C 98 % 1015,6 hPa 0,0 l/m 1,3 km/h (1 Bft) W 269 0 min 0,000 mm 0,0 UV-I 0 W/m 7,7 C 8,0 C 3,2 km/h (1 Bft) 94,74 %
19.10.2017 06:28 8,0 C 11,7 C 98 % 1015,6 hPa 0,0 l/m 1,3 km/h (1 Bft) W 269 0 min 0,000 mm 0,0 UV-I 0 W/m 7,7 C 8,0 C 3,2 km/h (1 Bft) 98,11 %
19.10.2017 06:30 7,9 C 11,7 C 98 % 1015,6 hPa 0,0 l/m 1,5 km/h (1 Bft) W 269 0 min 0,000 mm 0,0 UV-I 0 W/m 7,6 C 7,9 C 3,2 km/h (1 Bft) 95,74 %
19.10.2017 06:32 7,9 C 11,7 C 98 % 1015,6 hPa 0,0 l/m 1,7 km/h (1 Bft) W 269 0 min 0,000 mm 0,0 UV-I 0 W/m 7,6 C 7,9 C 3,2 km/h (1 Bft) 96,23 %
19.10.2017 06:34 7,9 C 11,7 C 98 % 1015,6 hPa 0,0 l/m 2,1 km/h (1 Bft) W 269 0 min 0,000 mm 0,0 UV-I 0 W/m 7,6 C 7,9 C 4,8 km/h (1 Bft) 97,87 %
19.10.2017 06:36 7,8 C 11,7 C 98 % 1015,5 hPa 0,0 l/m 2,4 km/h (1 Bft) W 269 0 min 0,000 mm 0,0 UV-I 0 W/m 7,5 C 7,8 C 3,2 km/h (1 Bft) 97,87 %
19.10.2017 06:38 7,8 C 11,7 C 98 % 1015,5 hPa 0,0 l/m 0,9 km/h (0 Bft) W 269 0 min 0,000 mm 0,0 UV-I 0 W/m 7,5 C 7,8 C 3,2 km/h (1 Bft) 97,44 %
19.10.2017 06:40 7,8 C 11,7 C 98 % 1015,5 hPa 0,0 l/m 0,0 km/h (0 Bft) W 269 0 min 0,000 mm 0,0 UV-I 0 W/m 7,5 C 7,8 C 0,0 km/h (0 Bft) 98,08 %
19.10.2017 06:42 7,7 C 11,7 C 98 % 1015,5 hPa 0,0 l/m 0,0 km/h (0 Bft) W 269 0 min 0,000 mm 0,0 UV-I 0 W/m 7,4 C 7,7 C 0,0 km/h (0 Bft) 97,22 %
19.10.2017 06:44 7,7 C 11,7 C 98 % 1015,6 hPa 0,0 l/m 0,0 km/h (0 Bft) W 269 0 min 0,000 mm 0,0 UV-I 0 W/m 7,4 C 7,7 C 0,0 km/h (0 Bft) 96,77 %
19.10.2017 06:46 7,7 C 11,7 C 98 % 1015,6 hPa 0,0 l/m 0,0 km/h (0 Bft) W 269 0 min 0,000 mm 0,0 UV-I 0 W/m 7,4 C 7,7 C 0,0 km/h (0 Bft) 97,87 %
19.10.2017 06:48 7,7 C 11,7 C 98 % 1015,6 hPa 0,0 l/m 0,4 km/h (0 Bft) W 269 0 min 0,000 mm 0,0 UV-I 0 W/m 7,4 C 7,7 C 3,2 km/h (1 Bft) 97,37 %
19.10.2017 06:50 7,7 C 11,7 C 98 % 1015,6 hPa 0,0 l/m 1,7 km/h (1 Bft) W 269 0 min 0,000 mm 0,0 UV-I 0 W/m 7,4 C 7,7 C 3,2 km/h (1 Bft) 95,45 %
19.10.2017 06:52 7,6 C 11,7 C 98 % 1015,6 hPa 0,0 l/m 0,4 km/h (0 Bft) W 269 0 min 0,000 mm 0,0 UV-I 0 W/m 7,3 C 7,6 C 1,6 km/h (1 Bft) 100,00 %
19.10.2017 06:54 7,6 C 11,7 C 98 % 1015,6 hPa 0,0 l/m 0,0 km/h (0 Bft) W 269 0 min 0,000 mm 0,0 UV-I 0 W/m 7,3 C 7,6 C 0,0 km/h (0 Bft) 98,00 %
19.10.2017 06:56 7,7 C 11,7 C 98 % 1015,6 hPa 0,0 l/m 0,6 km/h (0 Bft) W 269 0 min 0,000 mm 0,0 UV-I 0 W/m 7,4 C 7,7 C 3,2 km/h (1 Bft) 100,00 %
19.10.2017 06:58 7,6 C 11,7 C 98 % 1015,6 hPa 0,0 l/m 0,2 km/h (0 Bft) W 269 0 min 0,000 mm 0,0 UV-I 0 W/m 7,3 C 7,6 C 3,2 km/h (1 Bft) 100,00 %
19.10.2017 07:00 7,6 C 11,7 C 98 % 1015,6 hPa 0,0 l/m 0,5 km/h (0 Bft) W 269 0 min 0,000 mm 0,0 UV-I 0 W/m 7,3 C 7,6 C 3,2 km/h (1 Bft) 100,00 %
19.10.2017 07:02 7,6 C 11,7 C 98 % 1015,7 hPa 0,0 l/m 0,0 km/h (0 Bft) W 269 0 min 0,000 mm 0,0 UV-I 0 W/m 7,3 C 7,6 C 0,0 km/h (0 Bft) 97,37 %
19.10.2017 07:04 7,6 C 11,7 C 98 % 1015,7 hPa 0,0 l/m 0,4 km/h (0 Bft) S 181 0 min 0,000 mm 0,0 UV-I 0 W/m 7,3 C 7,6 C 1,6 km/h (1 Bft) 100,00 %
19.10.2017 07:06 7,6 C 11,7 C 98 % 1015,7 hPa 0,0 l/m 0,2 km/h (0 Bft) S 181 0 min 0,000 mm 0,0 UV-I 0 W/m 7,3 C 7,6 C 1,6 km/h (1 Bft) 97,87 %
19.10.2017 07:08 7,5 C 11,7 C 98 % 1015,7 hPa 0,0 l/m 0,0 km/h (0 Bft) S 181 0 min 0,000 mm 0,0 UV-I 0 W/m 7,2 C 7,5 C 0,0 km/h (0 Bft) 100,00 %
19.10.2017 07:10 7,5 C 11,7 C 98 % 1015,7 hPa 0,0 l/m 0,0 km/h (0 Bft) S 181 0 min 0,000 mm 0,0 UV-I 0 W/m 7,2 C 7,5 C 1,6 km/h (1 Bft) 100,00 %
19.10.2017 07:12 7,5 C 11,7 C 98 % 1015,7 hPa 0,0 l/m 0,0 km/h (0 Bft) S 181 0 min 0,000 mm 0,0 UV-I 0 W/m 7,2 C 7,5 C 0,0 km/h (0 Bft) 100,00 %
19.10.2017 07:14 7,5 C 11,7 C 98 % 1015,7 hPa 0,0 l/m 0,0 km/h (0 Bft) S 181 0 min 0,000 mm 0,0 UV-I 0 W/m 7,2 C 7,5 C 0,0 km/h (0 Bft) 100,00 %
19.10.2017 07:16 7,5 C 11,7 C 98 % 1015,7 hPa 0,0 l/m 0,6 km/h (0 Bft) S 181 0 min 0,000 mm 0,0 UV-I 0 W/m 7,2 C 7,5 C 1,6 km/h (1 Bft) 97,87 %
19.10.2017 07:18 7,5 C 11,7 C 98 % 1015,8 hPa 0,0 l/m 0,5 km/h (0 Bft) S 181 0 min 0,000 mm 0,0 UV-I 0 W/m 7,2 C 7,5 C 3,2 km/h (1 Bft) 97,44 %
19.10.2017 07:20 7,6 C 11,7 C 98 % 1015,8 hPa 0,0 l/m 1,2 km/h (1 Bft) S 181 0 min 0,000 mm 0,0 UV-I 2 W/m 7,3 C 7,6 C 3,2 km/h (1 Bft) 97,87 %
19.10.2017 07:22 7,6 C 11,7 C 98 % 1015,8 hPa 0,0 l/m 0,4 km/h (0 Bft) S 181 0 min 0,000 mm 0,0 UV-I 5 W/m 7,3 C 7,6 C 1,6 km/h (1 Bft) 97,87 %
19.10.2017 07:24 7,6 C 11,7 C 98 % 1015,8 hPa 0,0 l/m 0,6 km/h (0 Bft) S 181 0 min 0,000 mm 0,0 UV-I 5 W/m 7,3 C 7,6 C 1,6 km/h (1 Bft) 98,00 %
19.10.2017 07:26 7,6 C 11,7 C 98 % 1015,8 hPa 0,0 l/m 0,8 km/h (0 Bft) S 181 0 min 0,000 mm 0,0 UV-I 5 W/m 7,3 C 7,6 C 3,2 km/h (1 Bft) 97,92 %
19.10.2017 07:28 7,6 C 11,7 C 98 % 1015,8 hPa 0,0 l/m 0,0 km/h (0 Bft) S 181 0 min 0,000 mm 0,0 UV-I 5 W/m 7,3 C 7,6 C 0,0 km/h (0 Bft) 96,00 %
19.10.2017 07:30 7,6 C 11,7 C 98 % 1015,9 hPa 0,0 l/m 0,5 km/h (0 Bft) S 181 0 min 0,000 mm 0,0 UV-I 6 W/m 7,3 C 7,6 C 1,6 km/h (1 Bft) 97,87 %
19.10.2017 07:32 7,7 C 11,7 C 98 % 1015,8 hPa 0,0 l/m 0,7 km/h (0 Bft) S 181 0 min 0,000 mm 0,0 UV-I 7 W/m 7,4 C 7,7 C 3,2 km/h (1 Bft) 97,87 %
19.10.2017 07:34 7,6 C 11,7 C 98 % 1015,8 hPa 0,0 l/m 0,4 km/h (0 Bft) S 181 0 min 0,000 mm 0,0 UV-I 7 W/m 7,3 C 7,6 C 3,2 km/h (1 Bft) 97,37 %
19.10.2017 07:36 7,6 C 11,7 C 98 % 1015,8 hPa 0,0 l/m 0,0 km/h (0 Bft) S 181 0 min 0,000 mm 0,0 UV-I 7 W/m 7,3 C 7,6 C 0,0 km/h (0 Bft) 98,15 %
19.10.2017 07:38 7,7 C 11,7 C 98 % 1015,8 hPa 0,0 l/m 0,6 km/h (0 Bft) S 181 0 min 0,000 mm 0,0 UV-I 9 W/m 7,4 C 7,7 C 1,6 km/h (1 Bft) 98,00 %
19.10.2017 07:40 7,6 C 11,7 C 98 % 1015,8 hPa 0,0 l/m 0,8 km/h (0 Bft) S 181 0 min 0,000 mm 0,0 UV-I 9 W/m 7,3 C 7,6 C 1,6 km/h (1 Bft) 97,37 %
19.10.2017 07:42 7,7 C 11,7 C 98 % 1015,8 hPa 0,0 l/m 1,0 km/h (0 Bft) S 181 0 min 0,000 mm 0,0 UV-I 9 W/m 7,4 C 7,7 C 3,2 km/h (1 Bft) 94,34 %
19.10.2017 07:44 7,6 C 11,7 C 98 % 1015,9 hPa 0,0 l/m 0,7 km/h (0 Bft) S 181 0 min 0,000 mm 0,0 UV-I 9 W/m 7,3 C 7,6 C 3,2 km/h (1 Bft) 95,12 %
19.10.2017 07:46 7,7 C 11,7 C 98 % 1015,9 hPa 0,0 l/m 1,8 km/h (1 Bft) S 182 0 min 0,000 mm 0,0 UV-I 10 W/m 7,4 C 7,7 C 3,2 km/h (1 Bft) 97,87 %
19.10.2017 07:48 7,7 C 11,7 C 98 % 1015,9 hPa 0,0 l/m 3,0 km/h (1 Bft) S-SW 198 0 min 0,000 mm 0,0 UV-I 11 W/m 7,4 C 7,7 C 4,8 km/h (1 Bft) 96,00 %
19.10.2017 07:50 7,7 C 11,7 C 98 % 1015,9 hPa 0,0 l/m 1,5 km/h (1 Bft) S-SW 198 0 min 0,000 mm 0,0 UV-I 13 W/m 7,4 C 7,7 C 3,2 km/h (1 Bft) 95,12 %
19.10.2017 07:52 7,7 C 11,7 C 98 % 1015,9 hPa 0,0 l/m 2,2 km/h (1 Bft) SW 219 0 min 0,000 mm 0,0 UV-I 14 W/m 7,4 C 7,7 C 4,8 km/h (1 Bft) 98,00 %
19.10.2017 07:54 7,7 C 11,7 C 98 % 1015,9 hPa 0,0 l/m 0,8 km/h (0 Bft) SW 219 0 min 0,000 mm 0,0 UV-I 16 W/m 7,4 C 7,7 C 3,2 km/h (1 Bft) 94,34 %
19.10.2017 07:56 7,6 C 11,7 C 98 % 1016,0 hPa 0,0 l/m 1,7 km/h (1 Bft) SW 220 0 min 0,000 mm 0,0 UV-I 17 W/m 7,3 C 7,6 C 4,8 km/h (1 Bft) 94,87 %
19.10.2017 07:58 7,6 C 11,7 C 98 % 1016,0 hPa 0,0 l/m 2,0 km/h (1 Bft) SW 220 0 min 0,000 mm 0,0 UV-I 19 W/m 7,3 C 7,6 C 3,2 km/h (1 Bft) 95,74 %
19.10.2017 08:00 7,6 C 11,7 C 98 % 1015,9 hPa 0,0 l/m 0,3 km/h (0 Bft) SW 220 0 min 0,000 mm 0,0 UV-I 21 W/m 7,3 C 7,6 C 1,6 km/h (1 Bft) 96,00 %
19.10.2017 08:02 7,6 C 11,7 C 98 % 1016,0 hPa 0,0 l/m 1,1 km/h (1 Bft) SW 220 0 min 0,000 mm 0,0 UV-I 23 W/m 7,3 C 7,6 C 3,2 km/h (1 Bft) 94,74 %
19.10.2017 08:04 7,6 C 11,7 C 98 % 1016,1 hPa 0,0 l/m 1,0 km/h (0 Bft) SW 220 0 min 0,000 mm 0,0 UV-I 23 W/m 7,3 C 7,6 C 3,2 km/h (1 Bft) 98,33 %
19.10.2017 08:06 7,6 C 11,7 C 98 % 1016,1 hPa 0,0 l/m 0,4 km/h (0 Bft) SW 220 0 min 0,000 mm 0,0 UV-I 22 W/m 7,3 C 7,6 C 3,2 km/h (1 Bft) 100,00 %
19.10.2017 08:08 7,6 C 11,7 C 98 % 1016,1 hPa 0,0 l/m 0,0 km/h (0 Bft) SW 220 0 min 0,000 mm 0,0 UV-I 23 W/m 7,3 C 7,6 C 0,0 km/h (0 Bft) 95,12 %
19.10.2017 08:10 7,6 C 11,7 C 98 % 1016,1 hPa 0,0 l/m 0,3 km/h (0 Bft) W-SW 250 0 min 0,000 mm 0,0 UV-I 24 W/m 7,3 C 7,6 C 1,6 km/h (1 Bft) 96,23 %
19.10.2017 08:12 7,6 C 11,7 C 98 % 1016,2 hPa 0,0 l/m 0,0 km/h (0 Bft) W-SW 250 0 min 0,000 mm 0,0 UV-I 26 W/m 7,3 C 7,6 C 0,0 km/h (0 Bft) 97,87 %
19.10.2017 08:14 7,6 C 11,7 C 98 % 1016,2 hPa 0,0 l/m 0,9 km/h (0 Bft) W-SW 250 0 min 0,000 mm 0,0 UV-I 28 W/m 7,3 C 7,6 C 3,2 km/h (1 Bft) 100,00 %
19.10.2017 08:16 7,7 C 11,7 C 98 % 1016,2 hPa 0,0 l/m 1,5 km/h (1 Bft) W-SW 250 0 min 0,000 mm 0,0 UV-I 28 W/m 7,4 C 7,7 C 3,2 km/h (1 Bft) 100,00 %
19.10.2017 08:18 7,7 C 11,7 C 98 % 1016,3 hPa 0,0 l/m 1,3 km/h (1 Bft) W-SW 250 0 min 0,000 mm 0,0 UV-I 29 W/m 7,4 C 7,7 C 3,2 km/h (1 Bft) 98,00 %
19.10.2017 08:20 7,6 C 11,7 C 98 % 1016,2 hPa 0,0 l/m 0,0 km/h (0 Bft) W-SW 250 0 min 0,000 mm 0,0 UV-I 31 W/m 7,3 C 7,6 C 0,0 km/h (0 Bft) 95,74 %
19.10.2017 08:22 7,6 C 11,7 C 98 % 1016,2 hPa 0,0 l/m 0,0 km/h (0 Bft) W-SW 250 0 min 0,000 mm 0,0 UV-I 32 W/m 7,3 C 7,6 C 1,6 km/h (1 Bft) 97,37 %
19.10.2017 08:24 7,6 C 11,7 C 98 % 1016,3 hPa 0,0 l/m 0,0 km/h (0 Bft) W-SW 250 0 min 0,000 mm 0,0 UV-I 33 W/m 7,3 C 7,6 C 1,6 km/h (1 Bft) 98,00 %
19.10.2017 08:26 7,6 C 11,7 C 98 % 1016,3 hPa 0,0 l/m 0,0 km/h (0 Bft) W-SW 250 0 min 0,000 mm 0,0 UV-I 33 W/m 7,3 C 7,6 C 0,0 km/h (0 Bft) 98,00 %
19.10.2017 08:28 7,6 C 11,7 C 98 % 1016,2 hPa 0,0 l/m 0,0 km/h (0 Bft) W-SW 250 0 min 0,000 mm 0,0 UV-I 38 W/m 7,3 C 7,6 C 0,0 km/h (0 Bft) 100,00 %
19.10.2017 08:30 7,6 C 11,7 C 98 % 1016,2 hPa 0,0 l/m 0,8 km/h (0 Bft) W-SW 250 0 min 0,000 mm 0,0 UV-I 41 W/m 7,3 C 7,6 C 1,6 km/h (1 Bft) 96,00 %
19.10.2017 08:32 7,6 C 11,7 C 98 % 1016,2 hPa 0,0 l/m 1,6 km/h (1 Bft) W-SW 250 0 min 0,000 mm 0,0 UV-I 40 W/m 7,3 C 7,6 C 3,2 km/h (1 Bft) 98,00 %
19.10.2017 08:34 7,7 C 11,7 C 98 % 1016,2 hPa 0,0 l/m 0,0 km/h (0 Bft) W-SW 250 0 min 0,000 mm 0,0 UV-I 43 W/m 7,4 C 7,7 C 0,0 km/h (0 Bft) 97,22 %
19.10.2017 08:36 7,6 C 11,7 C 98 % 1016,3 hPa 0,0 l/m 1,0 km/h (0 Bft) W-SW 250 0 min 0,000 mm 0,0 UV-I 48 W/m 7,3 C 7,6 C 1,6 km/h (1 Bft) 98,18 %
19.10.2017 08:38 7,6 C 11,7 C 98 % 1016,3 hPa 0,0 l/m 0,0 km/h (0 Bft) W-SW 250 0 min 0,000 mm 0,0 UV-I 50 W/m 7,3 C 7,6 C 0,0 km/h (0 Bft) 97,87 %
19.10.2017 08:40 7,6 C 11,7 C 98 % 1016,4 hPa 0,0 l/m 0,0 km/h (0 Bft) W-SW 250 0 min 0,000 mm 0,0 UV-I 53 W/m 7,3 C 7,6 C 0,0 km/h (0 Bft) 94,44 %
19.10.2017 08:42 7,6 C 11,7 C 98 % 1016,5 hPa 0,0 l/m 0,3 km/h (0 Bft) W-SW 250 0 min 0,000 mm 0,0 UV-I 53 W/m 7,3 C 7,6 C 1,6 km/h (1 Bft) 98,11 %
19.10.2017 08:44 7,6 C 11,7 C 98 % 1016,5 hPa 0,0 l/m 0,7 km/h (0 Bft) W-SW 250 0 min 0,000 mm 0,0 UV-I 58 W/m 7,3 C 7,6 C 3,2 km/h (1 Bft) 97,87 %
19.10.2017 08:46 7,7 C 11,7 C 98 % 1016,5 hPa 0,0 l/m 1,0 km/h (0 Bft) W-SW 250 0 min 0,000 mm 0,0 UV-I 60 W/m 7,4 C 7,7 C 1,6 km/h (1 Bft) 96,00 %
19.10.2017 08:48 7,6 C 11,7 C 98 % 1016,5 hPa 0,0 l/m 1,1 km/h (1 Bft) W-SW 250 0 min 0,000 mm 0,0 UV-I 58 W/m 7,3 C 7,6 C 3,2 km/h (1 Bft) 96,00 %
19.10.2017 08:50 7,6 C 11,7 C 98 % 1016,5 hPa 0,0 l/m 0,0 km/h (0 Bft) W-SW 250 0 min 0,000 mm 0,0 UV-I 58 W/m 7,3 C 7,6 C 1,6 km/h (1 Bft) 97,56 %
19.10.2017 08:52 7,7 C 11,7 C 98 % 1016,5 hPa 0,0 l/m 0,0 km/h (0 Bft) W-SW 250 0 min 0,000 mm 0,0 UV-I 60 W/m 7,4 C 7,7 C 0,0 km/h (0 Bft) 100,00 %
19.10.2017 08:54 7,7 C 11,7 C 98 % 1016,6 hPa 0,0 l/m 0,0 km/h (0 Bft) W-SW 250 0 min 0,000 mm 0,0 UV-I 63 W/m 7,4 C 7,7 C 0,0 km/h (0 Bft) 93,10 %
19.10.2017 08:56 7,7 C 11,7 C 98 % 1016,6 hPa 0,0 l/m 0,0 km/h (0 Bft) W-SW 250 0 min 0,000 mm 0,0 UV-I 65 W/m 7,4 C 7,7 C 0,0 km/h (0 Bft) 98,39 %
19.10.2017 08:58 7,7 C 11,7 C 98 % 1016,6 hPa 0,0 l/m 1,2 km/h (1 Bft) SW 220 0 min 0,000 mm 0,0 UV-I 63 W/m 7,4 C 7,7 C 3,2 km/h (1 Bft) 98,00 %
19.10.2017 09:00 7,7 C 11,7 C 98 % 1016,6 hPa 0,0 l/m 0,7 km/h (0 Bft) SW 220 0 min 0,025 mm 0,0 UV-I 63 W/m 7,4 C 7,7 C 3,2 km/h (1 Bft) 100,00 %
19.10.2017 09:02 7,7 C 11,7 C 98 % 1016,6 hPa 0,0 l/m 1,6 km/h (1 Bft) SW 220 0 min 0,000 mm 0,0 UV-I 62 W/m 7,4 C 7,7 C 3,2 km/h (1 Bft) 100,00 %
19.10.2017 09:04 7,7 C 11,7 C 98 % 1016,6 hPa 0,0 l/m 0,9 km/h (0 Bft) SW 220 0 min 0,000 mm 0,0 UV-I 62 W/m 7,4 C 7,7 C 3,2 km/h (1 Bft) 100,00 %
19.10.2017 09:06 7,7 C 11,7 C 98 % 1016,6 hPa 0,0 l/m 0,2 km/h (0 Bft) SW 220 0 min 0,000 mm 0,0 UV-I 66 W/m 7,4 C 7,7 C 1,6 km/h (1 Bft) 100,00 %
19.10.2017 09:08 7,6 C 11,7 C 98 % 1016,7 hPa 0,0 l/m 0,1 km/h (0 Bft) SW 220 0 min 0,000 mm 0,0 UV-I 71 W/m 7,3 C 7,6 C 1,6 km/h (1 Bft) 100,00 %
19.10.2017 09:10 7,6 C 11,7 C 98 % 1016,7 hPa 0,0 l/m 0,5 km/h (0 Bft) SW 220 0 min 0,000 mm 0,0 UV-I 79 W/m 7,3 C 7,6 C 3,2 km/h (1 Bft) 100,00 %
19.10.2017 09:12 7,6 C 11,7 C 98 % 1016,7 hPa 0,0 l/m 0,7 km/h (0 Bft) SW 220 0 min 0,000 mm 0,0 UV-I 82 W/m 7,3 C 7,6 C 1,6 km/h (1 Bft) 100,00 %
19.10.2017 09:14 7,6 C 11,7 C 98 % 1016,7 hPa 0,0 l/m 1,7 km/h (1 Bft) SW 220 0 min 0,000 mm 0,0 UV-I 79 W/m 7,3 C 7,6 C 3,2 km/h (1 Bft) 100,00 %
19.10.2017 09:16 7,7 C 11,7 C 98 % 1016,7 hPa 0,0 l/m 1,5 km/h (1 Bft) SW 219 0 min 0,000 mm 0,0 UV-I 77 W/m 7,4 C 7,7 C 3,2 km/h (1 Bft) 100,00 %
19.10.2017 09:18 7,7 C 11,7 C 98 % 1016,7 hPa 0,0 l/m 2,3 km/h (1 Bft) O-SO 106 0 min 0,000 mm 0,0 UV-I 84 W/m 7,4 C 7,7 C 3,2 km/h (1 Bft) 100,00 %
19.10.2017 09:20 7,7 C 11,7 C 98 % 1016,7 hPa 0,0 l/m 0,4 km/h (0 Bft) O-SO 106 0 min 0,000 mm 0,0 UV-I 92 W/m 7,4 C 7,7 C 1,6 km/h (1 Bft) 100,00 %
19.10.2017 09:22 7,7 C 11,7 C 98 % 1016,7 hPa 0,0 l/m 0,0 km/h (0 Bft) O-SO 106 0 min 0,000 mm 0,0 UV-I 91 W/m 7,4 C 7,7 C 0,0 km/h (0 Bft) 100,00 %
19.10.2017 09:24 7,7 C 11,7 C 98 % 1016,7 hPa 0,0 l/m 0,0 km/h (0 Bft) O-SO 106 0 min 0,000 mm 0,0 UV-I 87 W/m 7,4 C 7,7 C 0,0 km/h (0 Bft) 97,37 %
19.10.2017 09:26 7,7 C 11,7 C 98 % 1016,7 hPa 0,0 l/m 0,1 km/h (0 Bft) O-SO 107 0 min 0,000 mm 0,0 UV-I 89 W/m 7,4 C 7,7 C 1,6 km/h (1 Bft) 96,23 %
19.10.2017 09:28 7,7 C 11,7 C 98 % 1016,8 hPa 0,0 l/m 0,4 km/h (0 Bft) O-SO 107 0 min 0,000 mm 0,0 UV-I 93 W/m 7,4 C 7,7 C 1,6 km/h (1 Bft) 97,87 %
19.10.2017 09:30 7,6 C 11,7 C 98 % 1016,8 hPa 0,0 l/m 0,6 km/h (0 Bft) O-SO 107 0 min 0,000 mm 0,0 UV-I 96 W/m 7,3 C 7,6 C 3,2 km/h (1 Bft) 100,00 %
19.10.2017 09:32 7,6 C 11,7 C 98 % 1016,8 hPa 0,0 l/m 1,1 km/h (1 Bft) O-SO 107 0 min 0,000 mm 0,0 UV-I 98 W/m 7,3 C 7,6 C 3,2 km/h (1 Bft) 100,00 %
19.10.2017 09:34 7,6 C 11,7 C 98 % 1016,8 hPa 0,0 l/m 1,5 km/h (1 Bft) O-SO 107 0 min 0,000 mm 0,0 UV-I 100 W/m 7,3 C 7,6 C 3,2 km/h (1 Bft) 91,30 %
19.10.2017 09:36 7,6 C 11,7 C 98 % 1016,8 hPa 0,0 l/m 0,3 km/h (0 Bft) O-SO 107 0 min 0,000 mm 0,0 UV-I 101 W/m 7,3 C 7,6 C 1,6 km/h (1 Bft) 100,00 %
19.10.2017 09:38 7,7 C 11,7 C 98 % 1016,8 hPa 0,0 l/m 0,3 km/h (0 Bft) O-SO 107 0 min 0,000 mm 0,0 UV-I 100 W/m 7,4 C 7,7 C 1,6 km/h (1 Bft) 100,00 %
19.10.2017 09:40 7,8 C 11,7 C 98 % 1016,8 hPa 0,0 l/m 2,1 km/h (1 Bft) O-SO 107 0 min 0,000 mm 0,0 UV-I 102 W/m 7,5 C 7,8 C 3,2 km/h (1 Bft) 100,00 %
19.10.2017 09:42 7,7 C 11,7 C 98 % 1016,7 hPa 0,0 l/m 2,6 km/h (1 Bft) O-SO 106 0 min 0,000 mm 0,0 UV-I 103 W/m 7,4 C 7,7 C 4,8 km/h (1 Bft) 100,00 %
19.10.2017 09:44 7,7 C 11,7 C 98 % 1016,7 hPa 0,0 l/m 0,0 km/h (0 Bft) O-SO 106 0 min 0,000 mm 0,0 UV-I 104 W/m 7,4 C 7,7 C 0,0 km/h (0 Bft) 100,00 %
19.10.2017 09:46 7,7 C 11,7 C 98 % 1016,8 hPa 0,0 l/m 0,5 km/h (0 Bft) O-SO 106 0 min 0,000 mm 0,0 UV-I 110 W/m 7,4 C 7,7 C 3,2 km/h (1 Bft) 95,74 %
19.10.2017 09:48 7,8 C 11,7 C 98 % 1016,8 hPa 0,0 l/m 0,0 km/h (0 Bft) O-SO 106 0 min 0,000 mm 0,0 UV-I 111 W/m 7,5 C 7,8 C 1,6 km/h (1 Bft) 100,00 %
19.10.2017 09:50 7,8 C 11,7 C 98 % 1016,8 hPa 0,0 l/m 0,8 km/h (0 Bft) O-SO 106 0 min 0,000 mm 0,0 UV-I 114 W/m 7,5 C 7,8 C 3,2 km/h (1 Bft) 100,00 %
19.10.2017 09:52 7,8 C 11,7 C 98 % 1016,8 hPa 0,0 l/m 0,0 km/h (0 Bft) O-SO 106 0 min 0,000 mm 0,0 UV-I 121 W/m 7,5 C 7,8 C 0,0 km/h (0 Bft) 100,00 %
19.10.2017 09:54 7,8 C 11,7 C 98 % 1016,8 hPa 0,0 l/m 0,8 km/h (0 Bft) O-SO 104 0 min 0,000 mm 0,0 UV-I 124 W/m 7,5 C 7,8 C 3,2 km/h (1 Bft) 100,00 %
19.10.2017 09:56 7,9 C 11,7 C 98 % 1016,8 hPa 0,0 l/m 3,5 km/h (1 Bft) O-NO 76 0 min 0,000 mm 0,0 UV-I 130 W/m 7,6 C 7,9 C 4,8 km/h (1 Bft) 100,00 %
19.10.2017 09:58 7,9 C 11,7 C 98 % 1016,8 hPa 0,0 l/m 2,2 km/h (1 Bft) O-NO 76 0 min 0,000 mm 0,0 UV-I 130 W/m 7,6 C 7,9 C 3,2 km/h (1 Bft) 100,00 %
19.10.2017 10:00 7,9 C 11,7 C 98 % 1016,8 hPa 0,0 l/m 1,7 km/h (1 Bft) O-NO 76 0 min 0,000 mm 0,0 UV-I 133 W/m 7,6 C 7,9 C 3,2 km/h (1 Bft) 97,87 %
19.10.2017 10:02 7,9 C 11,7 C 98 % 1016,8 hPa 0,0 l/m 0,6 km/h (0 Bft) O-NO 76 0 min 0,051 mm 0,0 UV-I 136 W/m 7,6 C 7,9 C 3,2 km/h (1 Bft) 100,00 %
19.10.2017 10:04 7,9 C 11,7 C 98 % 1016,7 hPa 0,0 l/m 0,0 km/h (0 Bft) O-NO 76 0 min 0,000 mm 0,0 UV-I 135 W/m 7,6 C 7,9 C 0,0 km/h (0 Bft) 100,00 %
19.10.2017 10:06 7,9 C 11,7 C 98 % 1016,8 hPa 0,0 l/m 0,0 km/h (0 Bft) O-NO 76 0 min 0,000 mm 0,0 UV-I 138 W/m 7,6 C 7,9 C 0,0 km/h (0 Bft) 100,00 %
19.10.2017 10:08 8,1 C 11,7 C 98 % 1016,8 hPa 0,0 l/m 0,1 km/h (0 Bft) O-NO 76 0 min 0,000 mm 0,0 UV-I 141 W/m 7,8 C 8,1 C 1,6 km/h (1 Bft) 100,00 %
19.10.2017 10:10 8,1 C 11,7 C 98 % 1016,8 hPa 0,0 l/m 0,0 km/h (0 Bft) O-NO 76 0 min 0,000 mm 0,2 UV-I 141 W/m 7,8 C 8,1 C 0,0 km/h (0 Bft) 100,00 %
19.10.2017 10:12 8,0 C 11,7 C 98 % 1016,9 hPa 0,0 l/m 1,5 km/h (1 Bft) O-NO 76 0 min 0,000 mm 0,5 UV-I 145 W/m 7,7 C 8,0 C 3,2 km/h (1 Bft) 98,11 %
19.10.2017 10:14 8,1 C 11,7 C 98 % 1016,9 hPa 0,0 l/m 2,7 km/h (1 Bft) O-NO 76 0 min 0,000 mm 0,5 UV-I 151 W/m 7,8 C 8,1 C 4,8 km/h (1 Bft) 100,00 %
19.10.2017 10:16 8,2 C 11,7 C 98 % 1016,9 hPa 0,0 l/m 2,2 km/h (1 Bft) O-NO 76 0 min 0,000 mm 0,5 UV-I 156 W/m 7,9 C 8,2 C 3,2 km/h (1 Bft) 100,00 %
19.10.2017 10:18 8,2 C 11,7 C 98 % 1017,0 hPa 0,0 l/m 2,3 km/h (1 Bft) O-NO 76 0 min 0,000 mm 0,5 UV-I 162 W/m 7,9 C 8,2 C 6,4 km/h (2 Bft) 98,11 %
19.10.2017 10:20 8,2 C 11,7 C 98 % 1017,0 hPa 0,0 l/m 2,2 km/h (1 Bft) O-NO 76 0 min 0,000 mm 0,5 UV-I 167 W/m 7,9 C 8,2 C 3,2 km/h (1 Bft) 97,56 %
19.10.2017 10:22 8,3 C 11,7 C 98 % 1017,0 hPa 0,0 l/m 2,7 km/h (1 Bft) O-NO 76 0 min 0,000 mm 0,5 UV-I 172 W/m 8,0 C 8,3 C 4,8 km/h (1 Bft) 96,00 %
19.10.2017 10:24 8,3 C 11,7 C 98 % 1016,9 hPa 0,0 l/m 1,6 km/h (1 Bft) O-NO 76 0 min 0,000 mm 0,5 UV-I 170 W/m 8,0 C 8,3 C 3,2 km/h (1 Bft) 97,87 %
19.10.2017 10:26 8,3 C 11,7 C 98 % 1017,0 hPa 0,0 l/m 4,0 km/h (1 Bft) NO 46 0 min 0,000 mm 0,5 UV-I 170 W/m 8,0 C 8,3 C 4,8 km/h (1 Bft) 94,74 %
19.10.2017 10:28 8,2 C 11,7 C 98 % 1016,9 hPa 0,0 l/m 1,6 km/h (1 Bft) NO 46 0 min 0,000 mm 0,5 UV-I 172 W/m 7,9 C 8,2 C 3,2 km/h (1 Bft) 98,00 %
19.10.2017 10:30 8,2 C 11,7 C 98 % 1016,9 hPa 0,0 l/m 2,4 km/h (1 Bft) NO 46 0 min 0,000 mm 0,6 UV-I 177 W/m 7,9 C 8,2 C 4,8 km/h (1 Bft) 98,00 %
19.10.2017 10:32 8,4 C 11,7 C 98 % 1017,0 hPa 0,0 l/m 2,2 km/h (1 Bft) NO 46 0 min 0,000 mm 0,6 UV-I 176 W/m 8,1 C 8,4 C 3,2 km/h (1 Bft) 96,00 %
19.10.2017 10:34 8,5 C 11,7 C 98 % 1017,0 hPa 0,0 l/m 0,3 km/h (0 Bft) NO 46 0 min 0,000 mm 0,6 UV-I 165 W/m 8,2 C 8,5 C 1,6 km/h (1 Bft) 91,67 %
19.10.2017 10:36 8,3 C 11,7 C 98 % 1017,0 hPa 0,0 l/m 0,1 km/h (0 Bft) NO 46 0 min 0,000 mm 0,6 UV-I 163 W/m 8,0 C 8,3 C 1,6 km/h (1 Bft) 97,22 %
19.10.2017 10:38 8,2 C 11,7 C 98 % 1017,0 hPa 0,0 l/m 0,1 km/h (0 Bft) NO 46 0 min 0,000 mm 0,6 UV-I 158 W/m 7,9 C 8,2 C 1,6 km/h (1 Bft) 98,00 %
19.10.2017 10:40 8,2 C 11,7 C 98 % 1016,9 hPa 0,0 l/m 0,0 km/h (0 Bft) NO 46 0 min 0,000 mm 0,6 UV-I 164 W/m 7,9 C 8,2 C 0,0 km/h (0 Bft) 97,87 %
19.10.2017 10:42 8,2 C 11,7 C 98 % 1017,0 hPa 0,0 l/m 0,0 km/h (0 Bft) NO 46 0 min 0,000 mm 0,6 UV-I 171 W/m 7,9 C 8,2 C 1,6 km/h (1 Bft) 96,36 %
19.10.2017 10:44 8,2 C 11,7 C 98 % 1017,0 hPa 0,0 l/m 0,0 km/h (0 Bft) NO 46 0 min 0,000 mm 0,7 UV-I 189 W/m 7,9 C 8,2 C 0,0 km/h (0 Bft) 95,74 %
19.10.2017 10:46 8,3 C 11,7 C 98 % 1017,0 hPa 0,0 l/m 1,5 km/h (1 Bft) O 96 0 min 0,000 mm 0,8 UV-I 204 W/m 8,0 C 8,3 C 4,8 km/h (1 Bft) 94,44 %
19.10.2017 10:48 8,3 C 11,7 C 98 % 1017,0 hPa 0,0 l/m 3,1 km/h (1 Bft) O 96 0 min 0,000 mm 0,8 UV-I 224 W/m 8,0 C 8,3 C 4,8 km/h (1 Bft) 96,00 %
19.10.2017 10:50 8,3 C 11,7 C 98 % 1017,0 hPa 0,0 l/m 1,5 km/h (1 Bft) O 96 2 min 0,000 mm 0,9 UV-I 252 W/m 8,0 C 8,3 C 3,2 km/h (1 Bft) 94,34 %
19.10.2017 10:52 8,2 C 11,7 C 98 % 1017,0 hPa 0,0 l/m 1,1 km/h (1 Bft) O 96 2 min 0,000 mm 0,9 UV-I 274 W/m 7,9 C 8,2 C 3,2 km/h (1 Bft) 92,68 %
19.10.2017 10:54 8,3 C 11,7 C 98 % 1017,0 hPa 0,0 l/m 0,2 km/h (0 Bft) O 96 2 min 0,000 mm 0,9 UV-I 269 W/m 8,0 C 8,3 C 1,6 km/h (1 Bft) 98,00 %
19.10.2017 10:56 8,3 C 11,7 C 98 % 1017,0 hPa 0,0 l/m 1,0 km/h (0 Bft) O 96 2 min 0,000 mm 0,9 UV-I 260 W/m 8,0 C 8,3 C 4,8 km/h (1 Bft) 98,00 %
19.10.2017 10:58 8,4 C 11,7 C 98 % 1017,0 hPa 0,0 l/m 2,2 km/h (1 Bft) O-SO 102 2 min 0,000 mm 0,9 UV-I 282 W/m 8,1 C 8,4 C 4,8 km/h (1 Bft) 97,56 %
19.10.2017 11:00 8,4 C 11,7 C 98 % 1017,0 hPa 0,0 l/m 3,1 km/h (1 Bft) O-SO 102 2 min 0,000 mm 0,9 UV-I 315 W/m 8,1 C 8,4 C 4,8 km/h (1 Bft) 94,00 %
19.10.2017 11:02 8,4 C 11,7 C 98 % 1017,0 hPa 0,0 l/m 0,7 km/h (0 Bft) O-SO 102 2 min 0,076 mm 0,9 UV-I 280 W/m 8,1 C 8,4 C 3,2 km/h (1 Bft) 97,73 %
19.10.2017 11:04 8,7 C 11,7 C 98 % 1017,0 hPa 0,0 l/m 0,0 km/h (0 Bft) O-SO 102 0 min 0,000 mm 0,8 UV-I 228 W/m 8,4 C 8,7 C 0,0 km/h (0 Bft) 96,00 %
19.10.2017 11:06 8,9 C 11,7 C 98 % 1017,0 hPa 0,0 l/m 0,4 km/h (0 Bft) S-SO 147 0 min 0,000 mm 0,8 UV-I 203 W/m 8,6 C 8,9 C 3,2 km/h (1 Bft) 95,74 %
19.10.2017 11:08 8,8 C 11,7 C 98 % 1017,0 hPa 0,0 l/m 2,6 km/h (1 Bft) O-NO 76 0 min 0,000 mm 0,8 UV-I 198 W/m 8,5 C 8,8 C 4,8 km/h (1 Bft) 97,56 %
19.10.2017 11:10 8,6 C 11,7 C 98 % 1017,1 hPa 0,0 l/m 1,0 km/h (0 Bft) O-NO 76 0 min 0,000 mm 0,8 UV-I 204 W/m 8,3 C 8,6 C 3,2 km/h (1 Bft) 98,00 %
19.10.2017 11:12 8,6 C 11,7 C 98 % 1017,1 hPa 0,0 l/m 1,1 km/h (1 Bft) O-NO 76 0 min 0,000 mm 0,8 UV-I 205 W/m 8,3 C 8,6 C 4,8 km/h (1 Bft) 98,00 %
19.10.2017 11:14 8,5 C 11,7 C 98 % 1017,1 hPa 0,0 l/m 1,1 km/h (1 Bft) O-NO 76 0 min 0,000 mm 0,8 UV-I 198 W/m 8,2 C 8,5 C 3,2 km/h (1 Bft) 97,87 %
19.10.2017 11:16 8,6 C 11,7 C 98 % 1017,2 hPa 0,0 l/m 1,3 km/h (1 Bft) O-NO 76 0 min 0,000 mm 0,7 UV-I 185 W/m 8,3 C 8,6 C 4,8 km/h (1 Bft) 95,83 %
19.10.2017 11:18 8,8 C 11,7 C 98 % 1017,1 hPa 0,0 l/m 1,0 km/h (0 Bft) O-NO 76 0 min 0,000 mm 0,7 UV-I 178 W/m 8,5 C 8,8 C 3,2 km/h (1 Bft) 98,46 %
19.10.2017 11:20 8,9 C 11,7 C 98 % 1017,2 hPa 0,0 l/m 2,4 km/h (1 Bft) O-NO 76 0 min 0,000 mm 0,7 UV-I 169 W/m 8,6 C 8,9 C 3,2 km/h (1 Bft) 95,74 %
19.10.2017 11:22 9,0 C 11,7 C 98 % 1017,2 hPa 0,0 l/m 3,3 km/h (1 Bft) O-NO 76 0 min 0,000 mm 0,7 UV-I 173 W/m 8,7 C 9,0 C 6,4 km/h (2 Bft) 97,37 %
19.10.2017 11:24 8,8 C 11,7 C 98 % 1017,1 hPa 0,0 l/m 1,6 km/h (1 Bft) O-NO 76 0 min 0,000 mm 0,8 UV-I 181 W/m 8,5 C 8,8 C 4,8 km/h (1 Bft) 98,11 %
19.10.2017 11:26 8,8 C 11,7 C 98 % 1017,1 hPa 0,0 l/m 1,1 km/h (1 Bft) O-NO 76 0 min 0,000 mm 0,8 UV-I 190 W/m 8,5 C 8,8 C 3,2 km/h (1 Bft) 96,00 %
19.10.2017 11:28 9,0 C 11,7 C 98 % 1017,1 hPa 0,0 l/m 3,3 km/h (1 Bft) NO 44 0 min 0,000 mm 0,9 UV-I 202 W/m 8,7 C 9,0 C 6,4 km/h (2 Bft) 98,11 %
19.10.2017 11:30 8,9 C 11,7 C 98 % 1017,1 hPa 0,0 l/m 2,8 km/h (1 Bft) NO 44 0 min 0,000 mm 0,9 UV-I 207 W/m 8,6 C 8,9 C 4,8 km/h (1 Bft) 97,14 %
19.10.2017 11:32 8,8 C 11,7 C 98 % 1017,1 hPa 0,0 l/m 2,6 km/h (1 Bft) O-NO 67 0 min 0,000 mm 1,0 UV-I 225 W/m 8,5 C 8,8 C 4,8 km/h (1 Bft) 96,00 %
19.10.2017 11:34 8,8 C 11,7 C 98 % 1017,1 hPa 0,0 l/m 1,3 km/h (1 Bft) O-NO 67 0 min 0,000 mm 1,0 UV-I 250 W/m 8,5 C 8,8 C 3,2 km/h (1 Bft) 98,00 %
19.10.2017 11:36 8,9 C 11,7 C 98 % 1017,1 hPa 0,0 l/m 1,5 km/h (1 Bft) O-NO 67 2 min 0,000 mm 1,2 UV-I 275 W/m 8,6 C 8,9 C 3,2 km/h (1 Bft) 96,00 %
19.10.2017 11:38 8,9 C 11,7 C 98 % 1017,1 hPa 0,0 l/m 4,6 km/h (1 Bft) O-NO 67 2 min 0,000 mm 1,2 UV-I 292 W/m 8,6 C 8,9 C 6,4 km/h (2 Bft) 97,56 %
19.10.2017 11:40 8,9 C 11,7 C 98 % 1017,1 hPa 0,0 l/m 2,8 km/h (1 Bft) O-NO 58 2 min 0,000 mm 1,2 UV-I 300 W/m 8,6 C 8,9 C 6,4 km/h (2 Bft) 97,87 %
19.10.2017 11:42 9,0 C 11,7 C 98 % 1017,1 hPa 0,0 l/m 3,3 km/h (1 Bft) NO 40 2 min 0,000 mm 1,2 UV-I 283 W/m 8,7 C 9,0 C 6,4 km/h (2 Bft) 95,74 %
19.10.2017 11:44 8,9 C 11,7 C 98 % 1017,1 hPa 0,0 l/m 1,0 km/h (0 Bft) NO 40 2 min 0,000 mm 1,2 UV-I 294 W/m 8,6 C 8,9 C 4,8 km/h (1 Bft) 98,11 %
19.10.2017 11:46 9,0 C 11,7 C 98 % 1017,1 hPa 0,0 l/m 1,7 km/h (1 Bft) O 86 2 min 0,000 mm 1,1 UV-I 298 W/m 8,7 C 9,0 C 4,8 km/h (1 Bft) 95,74 %
19.10.2017 11:48 9,0 C 11,7 C 98 % 1017,1 hPa 0,0 l/m 2,9 km/h (1 Bft) O-SO 121 0 min 0,000 mm 1,1 UV-I 275 W/m 8,7 C 9,0 C 6,4 km/h (2 Bft) 95,74 %
19.10.2017 11:50 9,0 C 11,7 C 98 % 1017,1 hPa 0,0 l/m 3,9 km/h (1 Bft) SO 130 0 min 0,000 mm 1,0 UV-I 246 W/m 8,7 C 9,0 C 4,8 km/h (1 Bft) 97,56 %
19.10.2017 11:52 8,9 C 11,7 C 98 % 1017,0 hPa 0,0 l/m 2,1 km/h (1 Bft) SO 130 0 min 0,000 mm 1,0 UV-I 239 W/m 8,6 C 8,9 C 4,8 km/h (1 Bft) 98,00 %
19.10.2017 11:54 9,1 C 11,7 C 98 % 1017,1 hPa 0,0 l/m 1,4 km/h (1 Bft) SO 130 0 min 0,000 mm 0,9 UV-I 216 W/m 8,8 C 9,1 C 4,8 km/h (1 Bft) 100,00 %
19.10.2017 11:56 9,3 C 11,7 C 98 % 1017,1 hPa 0,0 l/m 0,2 km/h (0 Bft) SO 130 0 min 0,000 mm 0,8 UV-I 192 W/m 9,0 C 9,3 C 1,6 km/h (1 Bft) 100,00 %
19.10.2017 11:58 9,5 C 11,7 C 98 % 1017,1 hPa 0,0 l/m 0,4 km/h (0 Bft) O-SO 110 0 min 0,000 mm 0,8 UV-I 189 W/m 9,2 C 9,5 C 3,2 km/h (1 Bft) 98,00 %
19.10.2017 12:00 9,6 C 11,7 C 98 % 1017,0 hPa 0,0 l/m 0,2 km/h (0 Bft) N-NO 21 0 min 0,102 mm 0,8 UV-I 182 W/m 9,3 C 9,6 C 1,6 km/h (1 Bft) 97,87 %
19.10.2017 12:02 9,4 C 11,7 C 98 % 1017,0 hPa 0,0 l/m 0,2 km/h (0 Bft) N-NW 339 0 min 0,000 mm 0,8 UV-I 178 W/m 9,1 C 9,4 C 1,6 km/h (1 Bft) 97,56 %
19.10.2017 12:04 9,3 C 11,7 C 98 % 1017,0 hPa 0,0 l/m 0,6 km/h (0 Bft) N-NW 340 0 min 0,000 mm 0,8 UV-I 174 W/m 9,0 C 9,3 C 3,2 km/h (1 Bft) 100,00 %
19.10.2017 12:06 9,3 C 11,7 C 98 % 1017,1 hPa 0,0 l/m 0,6 km/h (0 Bft) N-NW 340 0 min 0,000 mm 0,8 UV-I 178 W/m 9,0 C 9,3 C 3,2 km/h (1 Bft) 100,00 %
19.10.2017 12:08 9,3 C 11,7 C 98 % 1017,1 hPa 0,0 l/m 0,6 km/h (0 Bft) N-NW 339 0 min 0,000 mm 0,8 UV-I 176 W/m 9,0 C 9,3 C 1,6 km/h (1 Bft) 100,00 %
19.10.2017 12:10 9,4 C 11,7 C 98 % 1017,1 hPa 0,0 l/m 1,3 km/h (1 Bft) NW 319 0 min 0,000 mm 0,8 UV-I 179 W/m 9,1 C 9,4 C 3,2 km/h (1 Bft) 98,11 %
19.10.2017 12:12 9,4 C 11,7 C 98 % 1017,1 hPa 0,0 l/m 0,7 km/h (0 Bft) N-NW 344 0 min 0,000 mm 0,9 UV-I 183 W/m 9,1 C 9,4 C 3,2 km/h (1 Bft) 100,00 %
19.10.2017 12:14 9,4 C 11,7 C 98 % 1017,1 hPa 0,0 l/m 1,2 km/h (1 Bft) N-NW 345 0 min 0,000 mm 0,9 UV-I 187 W/m 9,1 C 9,4 C 4,8 km/h (1 Bft) 100,00 %
19.10.2017 12:16 9,4 C 11,7 C 98 % 1017,1 hPa 0,0 l/m 2,4 km/h (1 Bft) N 10 0 min 0,000 mm 0,9 UV-I 194 W/m 9,1 C 9,4 C 4,8 km/h (1 Bft) 98,11 %
19.10.2017 12:18 9,3 C 11,7 C 98 % 1017,0 hPa 0,0 l/m 1,6 km/h (1 Bft) N 10 0 min 0,000 mm 1,0 UV-I 203 W/m 9,0 C 9,3 C 4,8 km/h (1 Bft) 100,00 %
19.10.2017 12:20 9,4 C 11,7 C 98 % 1017,0 hPa 0,0 l/m 2,9 km/h (1 Bft) NO 36 0 min 0,000 mm 1,0 UV-I 212 W/m 9,1 C 9,4 C 4,8 km/h (1 Bft) 97,37 %
19.10.2017 12:22 9,7 C 11,7 C 98 % 1017,0 hPa 0,0 l/m 3,9 km/h (1 Bft) NO 42 0 min 0,000 mm 1,0 UV-I 222 W/m 9,4 C 9,7 C 6,4 km/h (2 Bft) 96,23 %
19.10.2017 12:24 9,6 C 11,7 C 98 % 1017,0 hPa 0,0 l/m 1,6 km/h (1 Bft) O-NO 68 0 min 0,000 mm 1,1 UV-I 224 W/m 9,3 C 9,6 C 3,2 km/h (1 Bft) 98,00 %
19.10.2017 12:26 9,4 C 11,7 C 98 % 1017,0 hPa 0,0 l/m 0,2 km/h (0 Bft) O-NO 68 0 min 0,000 mm 1,0 UV-I 217 W/m 9,1 C 9,4 C 1,6 km/h (1 Bft) 97,87 %
19.10.2017 12:28 9,5 C 11,7 C 98 % 1017,0 hPa 0,0 l/m 0,0 km/h (0 Bft) O-NO 68 0 min 0,000 mm 1,0 UV-I 216 W/m 9,2 C 9,5 C 0,0 km/h (0 Bft) 97,87 %
19.10.2017 12:30 9,6 C 11,7 C 98 % 1017,0 hPa 0,0 l/m 0,0 km/h (0 Bft) O-NO 68 0 min 0,000 mm 1,0 UV-I 222 W/m 9,3 C 9,6 C 1,6 km/h (1 Bft) 97,37 %
19.10.2017 12:32 9,6 C 11,7 C 98 % 1016,9 hPa 0,0 l/m 0,3 km/h (0 Bft) O-NO 68 0 min 0,000 mm 1,0 UV-I 222 W/m 9,3 C 9,6 C 1,6 km/h (1 Bft) 100,00 %
19.10.2017 12:34 9,7 C 11,7 C 98 % 1016,9 hPa 0,0 l/m 1,3 km/h (1 Bft) NO 51 0 min 0,000 mm 1,0 UV-I 220 W/m 9,4 C 9,7 C 3,2 km/h (1 Bft) 95,74 %
19.10.2017 12:36 9,9 C 11,7 C 98 % 1016,9 hPa 0,0 l/m 1,4 km/h (1 Bft) O-NO 78 0 min 0,000 mm 1,0 UV-I 220 W/m 9,6 C 9,9 C 4,8 km/h (1 Bft) 98,11 %
19.10.2017 12:38 10,0 C 11,7 C 98 % 1016,9 hPa 0,0 l/m 1,8 km/h (1 Bft) O-SO 107 0 min 0,000 mm 1,0 UV-I 221 W/m 9,7 C 10,0 C 4,8 km/h (1 Bft) 97,62 %
19.10.2017 12:40 10,2 C 11,7 C 98 % 1016,8 hPa 0,0 l/m 2,3 km/h (1 Bft) O 95 0 min 0,000 mm 1,0 UV-I 222 W/m 9,9 C 10,2 C 4,8 km/h (1 Bft) 98,04 %
19.10.2017 12:42 10,2 C 11,7 C 98 % 1016,8 hPa 0,0 l/m 2,4 km/h (1 Bft) O 99 0 min 0,000 mm 1,0 UV-I 229 W/m 9,9 C 10,2 C 6,4 km/h (2 Bft) 97,37 %
19.10.2017 12:44 10,2 C 11,7 C 98 % 1016,8 hPa 0,0 l/m 2,4 km/h (1 Bft) SO 132 0 min 0,000 mm 1,0 UV-I 225 W/m 9,9 C 10,2 C 4,8 km/h (1 Bft) 98,15 %
19.10.2017 12:46 10,2 C 11,7 C 98 % 1016,8 hPa 0,0 l/m 3,4 km/h (1 Bft) O-SO 109 0 min 0,000 mm 1,0 UV-I 232 W/m 9,9 C 10,2 C 9,7 km/h (2 Bft) 95,74 %
19.10.2017 12:48 10,0 C 11,7 C 98 % 1016,8 hPa 0,0 l/m 6,5 km/h (2 Bft) O-SO 123 0 min 0,000 mm 1,1 UV-I 248 W/m 9,7 C 10,0 C 9,7 km/h (2 Bft) 96,00 %
19.10.2017 12:50 10,1 C 11,7 C 98 % 1016,7 hPa 0,0 l/m 2,0 km/h (1 Bft) SO 131 0 min 0,000 mm 1,2 UV-I 280 W/m 9,8 C 10,1 C 3,2 km/h (1 Bft) 95,45 %
19.10.2017 12:52 10,2 C 11,7 C 98 % 1016,8 hPa 0,0 l/m 4,8 km/h (1 Bft) O 88 2 min 0,000 mm 1,2 UV-I 307 W/m 9,9 C 10,2 C 6,4 km/h (2 Bft) 98,00 %
19.10.2017 12:54 10,1 C 11,7 C 98 % 1016,7 hPa 0,0 l/m 2,7 km/h (1 Bft) O 90 2 min 0,000 mm 1,2 UV-I 293 W/m 9,8 C 10,1 C 6,4 km/h (2 Bft) 97,56 %
19.10.2017 12:56 10,1 C 11,7 C 98 % 1016,7 hPa 0,0 l/m 0,5 km/h (0 Bft) O 90 0 min 0,000 mm 1,1 UV-I 257 W/m 9,8 C 10,1 C 3,2 km/h (1 Bft) 98,00 %
19.10.2017 12:58 10,2 C 11,7 C 98 % 1016,7 hPa 0,0 l/m 1,3 km/h (1 Bft) NO 56 0 min 0,000 mm 1,1 UV-I 234 W/m 9,9 C 10,2 C 6,4 km/h (2 Bft) 100,00 %
19.10.2017 13:00 10,3 C 11,7 C 98 % 1016,7 hPa 0,0 l/m 4,1 km/h (1 Bft) NO 35 0 min 0,102 mm 1,0 UV-I 214 W/m 10,0 C 10,3 C 6,4 km/h (2 Bft) 100,00 %
19.10.2017 13:02 10,3 C 11,7 C 98 % 1016,7 hPa 0,0 l/m 1,6 km/h (1 Bft) N-NO 31 0 min 0,000 mm 1,0 UV-I 205 W/m 10,0 C 10,3 C 4,8 km/h (1 Bft) 97,56 %
19.10.2017 13:04 10,4 C 11,7 C 98 % 1016,6 hPa 0,0 l/m 0,7 km/h (0 Bft) N-NO 32 0 min 0,000 mm 1,1 UV-I 217 W/m 10,1 C 10,4 C 1,6 km/h (1 Bft) 100,00 %
19.10.2017 13:06 10,3 C 11,7 C 98 % 1016,6 hPa 0,0 l/m 2,4 km/h (1 Bft) O 86 0 min 0,000 mm 1,2 UV-I 256 W/m 10,0 C 10,3 C 4,8 km/h (1 Bft) 100,00 %
19.10.2017 13:08 10,3 C 11,7 C 98 % 1016,6 hPa 0,0 l/m 5,5 km/h (1 Bft) O-NO 69 2 min 0,000 mm 1,2 UV-I 309 W/m 10,0 C 10,3 C 9,7 km/h (2 Bft) 100,00 %
19.10.2017 13:10 10,3 C 11,7 C 97 % 1016,6 hPa 0,0 l/m 5,8 km/h (2 Bft) O 99 2 min 0,000 mm 1,2 UV-I 294 W/m 9,8 C 10,3 C 9,7 km/h (2 Bft) 100,00 %
19.10.2017 13:12 10,3 C 11,7 C 97 % 1016,6 hPa 0,0 l/m 5,0 km/h (1 Bft) O 82 0 min 0,000 mm 1,2 UV-I 287 W/m 9,8 C 10,3 C 9,7 km/h (2 Bft) 100,00 %
19.10.2017 13:14 10,3 C 11,7 C 97 % 1016,6 hPa 0,0 l/m 4,5 km/h (1 Bft) O-SO 117 2 min 0,000 mm 1,3 UV-I 310 W/m 9,8 C 10,3 C 6,4 km/h (2 Bft) 100,00 %
19.10.2017 13:16 10,4 C 11,7 C 97 % 1016,6 hPa 0,0 l/m 6,4 km/h (2 Bft) O-SO 107 2 min 0,000 mm 1,3 UV-I 319 W/m 9,9 C 10,4 C 9,7 km/h (2 Bft) 97,92 %
19.10.2017 13:18 10,4 C 11,7 C 97 % 1016,5 hPa 0,0 l/m 3,5 km/h (1 Bft) O 81 2 min 0,000 mm 1,3 UV-I 325 W/m 9,9 C 10,4 C 6,4 km/h (2 Bft) 100,00 %
19.10.2017 13:20 10,5 C 11,7 C 97 % 1016,5 hPa 0,0 l/m 4,7 km/h (1 Bft) O 82 2 min 0,000 mm 1,4 UV-I 340 W/m 10,0 C 10,5 C 8,0 km/h (2 Bft) 100,00 %
19.10.2017 13:22 10,4 C 11,7 C 97 % 1016,4 hPa 0,0 l/m 3,1 km/h (1 Bft) O 93 2 min 0,000 mm 1,2 UV-I 311 W/m 9,9 C 10,4 C 4,8 km/h (1 Bft) 100,00 %
19.10.2017 13:24 10,5 C 11,7 C 97 % 1016,4 hPa 0,0 l/m 2,1 km/h (1 Bft) O-NO 63 2 min 0,000 mm 1,2 UV-I 306 W/m 10,0 C 10,5 C 4,8 km/h (1 Bft) 97,87 %
19.10.2017 13:26 10,7 C 11,7 C 97 % 1016,4 hPa 0,0 l/m 5,1 km/h (1 Bft) O-NO 67 2 min 0,000 mm 1,2 UV-I 304 W/m 10,2 C 10,7 C 8,0 km/h (2 Bft) 100,00 %
19.10.2017 13:28 10,9 C 11,7 C 97 % 1016,4 hPa 0,0 l/m 5,0 km/h (1 Bft) O-NO 69 2 min 0,000 mm 1,2 UV-I 294 W/m 10,4 C 10,9 C 6,4 km/h (2 Bft) 100,00 %
19.10.2017 13:30 11,1 C 11,7 C 97 % 1016,3 hPa 0,0 l/m 3,1 km/h (1 Bft) N-NO 23 2 min 0,000 mm 1,3 UV-I 291 W/m 10,6 C 11,1 C 4,8 km/h (1 Bft) 100,00 %
19.10.2017 13:32 11,2 C 11,7 C 97 % 1016,3 hPa 0,0 l/m 2,7 km/h (1 Bft) N-NO 24 0 min 0,000 mm 1,2 UV-I 272 W/m 10,7 C 11,2 C 6,4 km/h (2 Bft) 100,00 %
19.10.2017 13:34 10,9 C 11,7 C 96 % 1016,2 hPa 0,0 l/m 1,7 km/h (1 Bft) NO 55 0 min 0,000 mm 1,1 UV-I 256 W/m 10,3 C 10,9 C 4,8 km/h (1 Bft) 100,00 %
19.10.2017 13:36 10,9 C 11,7 C 96 % 1016,3 hPa 0,0 l/m 0,0 km/h (0 Bft) NO 55 0 min 0,000 mm 1,1 UV-I 260 W/m 10,3 C 10,9 C 0,0 km/h (0 Bft) 100,00 %
19.10.2017 13:38 10,9 C 11,7 C 96 % 1016,2 hPa 0,0 l/m 1,0 km/h (0 Bft) NO 55 0 min 0,000 mm 1,1 UV-I 252 W/m 10,3 C 10,9 C 3,2 km/h (1 Bft) 98,46 %
19.10.2017 13:40 11,0 C 11,7 C 96 % 1016,3 hPa 0,0 l/m 5,1 km/h (1 Bft) NO 49 0 min 0,000 mm 1,1 UV-I 239 W/m 10,4 C 11,0 C 9,7 km/h (2 Bft) 97,87 %
19.10.2017 13:42 11,0 C 11,7 C 96 % 1016,2 hPa 0,0 l/m 2,8 km/h (1 Bft) NO 44 0 min 0,000 mm 1,1 UV-I 252 W/m 10,4 C 11,0 C 8,0 km/h (2 Bft) 100,00 %
19.10.2017 13:44 11,0 C 11,7 C 96 % 1016,2 hPa 0,0 l/m 2,3 km/h (1 Bft) NO 44 0 min 0,000 mm 1,1 UV-I 273 W/m 10,4 C 11,0 C 4,8 km/h (1 Bft) 100,00 %
19.10.2017 13:46 10,9 C 11,7 C 96 % 1016,2 hPa 0,0 l/m 4,5 km/h (1 Bft) O 80 0 min 0,000 mm 1,1 UV-I 258 W/m 10,3 C 10,9 C 6,4 km/h (2 Bft) 100,00 %
19.10.2017 13:48 10,8 C 11,7 C 95 % 1016,3 hPa 0,0 l/m 5,6 km/h (1 Bft) O-NO 78 0 min 0,000 mm 1,1 UV-I 250 W/m 10,0 C 10,8 C 9,7 km/h (2 Bft) 100,00 %
19.10.2017 13:50 10,9 C 11,7 C 96 % 1016,2 hPa 0,0 l/m 4,9 km/h (1 Bft) O 100 0 min 0,000 mm 1,1 UV-I 267 W/m 10,3 C 10,9 C 6,4 km/h (2 Bft) 100,00 %
19.10.2017 13:52 10,9 C 11,7 C 96 % 1016,3 hPa 0,0 l/m 5,0 km/h (1 Bft) O-SO 103 2 min 0,000 mm 1,2 UV-I 280 W/m 10,3 C 10,9 C 6,4 km/h (2 Bft) 100,00 %
19.10.2017 13:54 10,9 C 11,7 C 95 % 1016,2 hPa 0,0 l/m 3,4 km/h (1 Bft) O-SO 106 2 min 0,000 mm 1,2 UV-I 287 W/m 10,1 C 10,9 C 4,8 km/h (1 Bft) 100,00 %
19.10.2017 13:56 10,8 C 11,7 C 95 % 1016,1 hPa 0,0 l/m 2,2 km/h (1 Bft) O-SO 107 2 min 0,000 mm 1,2 UV-I 311 W/m 10,0 C 10,8 C 4,8 km/h (1 Bft) 100,00 %
19.10.2017 13:58 10,9 C 11,7 C 96 % 1016,1 hPa 0,0 l/m 2,3 km/h (1 Bft) O 81 2 min 0,000 mm 1,2 UV-I 327 W/m 10,3 C 10,9 C 6,4 km/h (2 Bft) 100,00 %
19.10.2017 14:00 11,2 C 11,7 C 96 % 1016,1 hPa 0,0 l/m 5,9 km/h (2 Bft) O-NO 70 2 min 0,127 mm 1,2 UV-I 314 W/m 10,6 C 11,2 C 8,0 km/h (2 Bft) 94,87 %
19.10.2017 14:02 11,2 C 11,7 C 95 % 1016,1 hPa 0,0 l/m 5,1 km/h (1 Bft) O-NO 65 2 min 0,000 mm 1,2 UV-I 320 W/m 10,4 C 11,2 C 8,0 km/h (2 Bft) 100,00 %
19.10.2017 14:04 11,2 C 11,7 C 94 % 1016,1 hPa 0,0 l/m 5,9 km/h (2 Bft) O-NO 70 2 min 0,000 mm 1,2 UV-I 317 W/m 10,3 C 11,2 C 8,0 km/h (2 Bft) 98,21 %
19.10.2017 14:06 11,2 C 11,7 C 94 % 1016,0 hPa 0,0 l/m 5,0 km/h (1 Bft) O 85 2 min 0,000 mm 1,2 UV-I 313 W/m 10,3 C 11,2 C 8,0 km/h (2 Bft) 100,00 %
19.10.2017 14:08 11,2 C 11,7 C 94 % 1016,0 hPa 0,0 l/m 5,2 km/h (1 Bft) O 101 2 min 0,000 mm 1,2 UV-I 335 W/m 10,3 C 11,2 C 9,7 km/h (2 Bft) 100,00 %
19.10.2017 14:10 11,3 C 11,7 C 94 % 1016,0 hPa 0,0 l/m 6,8 km/h (2 Bft) O-NO 70 2 min 0,000 mm 1,2 UV-I 327 W/m 10,4 C 11,0 C 9,7 km/h (2 Bft) 100,00 %
19.10.2017 14:12 11,3 C 11,7 C 94 % 1015,9 hPa 0,0 l/m 6,2 km/h (2 Bft) O-NO 65 2 min 0,000 mm 1,3 UV-I 328 W/m 10,4 C 11,3 C 8,0 km/h (2 Bft) 97,62 %
19.10.2017 14:14 11,4 C 11,7 C 94 % 1015,9 hPa 0,0 l/m 4,8 km/h (1 Bft) O-NO 68 2 min 0,000 mm 1,3 UV-I 288 W/m 10,5 C 11,4 C 8,0 km/h (2 Bft) 100,00 %
19.10.2017 14:16 11,4 C 11,7 C 94 % 1015,9 hPa 0,0 l/m 4,2 km/h (1 Bft) O 82 2 min 0,000 mm 1,4 UV-I 402 W/m 10,5 C 11,4 C 6,4 km/h (2 Bft) 100,00 %
19.10.2017 14:18 11,3 C 11,7 C 93 % 1015,9 hPa 0,0 l/m 4,2 km/h (1 Bft) O 92 2 min 0,000 mm 1,4 UV-I 428 W/m 10,2 C 11,3 C 9,7 km/h (2 Bft) 100,00 %
19.10.2017 14:20 11,2 C 11,7 C 93 % 1015,9 hPa 0,0 l/m 5,3 km/h (1 Bft) O 94 2 min 0,000 mm 1,4 UV-I 316 W/m 10,1 C 11,2 C 6,4 km/h (2 Bft) 98,00 %
19.10.2017 14:22 11,2 C 11,7 C 94 % 1015,9 hPa 0,0 l/m 3,8 km/h (1 Bft) O-NO 72 2 min 0,000 mm 1,5 UV-I 488 W/m 10,3 C 11,2 C 9,7 km/h (2 Bft) 97,92 %
19.10.2017 14:24 11,3 C 11,7 C 94 % 1015,9 hPa 0,0 l/m 4,0 km/h (1 Bft) NO 45 2 min 0,000 mm 1,5 UV-I 498 W/m 10,4 C 11,3 C 9,7 km/h (2 Bft) 98,00 %
19.10.2017 14:26 11,6 C 11,7 C 94 % 1015,9 hPa 0,0 l/m 6,0 km/h (2 Bft) O-NO 58 2 min 0,000 mm 1,4 UV-I 538 W/m 10,7 C 11,6 C 8,0 km/h (2 Bft) 98,00 %
19.10.2017 14:28 11,6 C 11,7 C 93 % 1015,9 hPa 0,0 l/m 6,0 km/h (2 Bft) O-NO 69 2 min 0,000 mm 1,3 UV-I 276 W/m 10,5 C 11,6 C 8,0 km/h (2 Bft) 97,37 %
19.10.2017 14:30 11,5 C 11,7 C 93 % 1015,9 hPa 0,0 l/m 6,0 km/h (2 Bft) O 96 2 min 0,000 mm 1,4 UV-I 289 W/m 10,4 C 11,5 C 8,0 km/h (2 Bft) 97,62 %
19.10.2017 14:32 11,5 C 11,7 C 93 % 1015,9 hPa 0,0 l/m 4,5 km/h (1 Bft) O 92 2 min 0,000 mm 1,5 UV-I 444 W/m 10,4 C 11,5 C 6,4 km/h (2 Bft) 94,83 %
19.10.2017 14:34 11,4 C 11,7 C 92 % 1015,8 hPa 0,0 l/m 3,6 km/h (1 Bft) O-NO 57 2 min 0,000 mm 1,4 UV-I 458 W/m 10,1 C 11,4 C 6,4 km/h (2 Bft) 97,62 %
19.10.2017 14:36 11,6 C 11,7 C 93 % 1015,8 hPa 0,0 l/m 3,9 km/h (1 Bft) O-NO 67 2 min 0,000 mm 1,4 UV-I 441 W/m 10,5 C 11,6 C 6,4 km/h (2 Bft) 95,45 %
19.10.2017 14:38 11,7 C 11,7 C 92 % 1015,8 hPa 0,0 l/m 3,6 km/h (1 Bft) O 95 2 min 0,000 mm 1,4 UV-I 448 W/m 10,4 C 11,7 C 6,4 km/h (2 Bft) 98,11 %
19.10.2017 14:40 11,8 C 11,7 C 92 % 1015,8 hPa 0,0 l/m 5,2 km/h (1 Bft) O 96 2 min 0,000 mm 1,4 UV-I 443 W/m 10,5 C 11,8 C 9,7 km/h (2 Bft) 98,00 %
19.10.2017 14:42 11,8 C 11,7 C 92 % 1015,8 hPa 0,0 l/m 5,9 km/h (2 Bft) O-NO 67 2 min 0,000 mm 1,4 UV-I 434 W/m 10,5 C 11,8 C 9,7 km/h (2 Bft) 95,65 %
19.10.2017 14:44 11,8 C 11,7 C 92 % 1015,7 hPa 0,0 l/m 4,4 km/h (1 Bft) O 82 2 min 0,000 mm 1,3 UV-I 427 W/m 10,5 C 11,8 C 6,4 km/h (2 Bft) 96,92 %
19.10.2017 14:46 11,9 C 11,7 C 92 % 1015,7 hPa 0,2 l/m 4,7 km/h (1 Bft) O-NO 74 2 min 0,000 mm 1,3 UV-I 416 W/m 10,6 C 11,9 C 8,0 km/h (2 Bft) 98,00 %
19.10.2017 14:48 12,1 C 11,7 C 92 % 1015,7 hPa 0,0 l/m 3,7 km/h (1 Bft) O-SO 123 2 min 0,000 mm 1,3 UV-I 419 W/m 10,8 C 12,1 C 9,7 km/h (2 Bft) 96,00 %
19.10.2017 14:50 12,1 C 11,7 C 91 % 1015,7 hPa 0,0 l/m 5,2 km/h (1 Bft) O-SO 120 2 min 0,000 mm 1,3 UV-I 419 W/m 10,7 C 12,1 C 11,3 km/h (2 Bft) 97,37 %
19.10.2017 14:52 12,2 C 11,7 C 91 % 1015,6 hPa 0,0 l/m 6,8 km/h (2 Bft) O-NO 60 2 min 0,000 mm 1,3 UV-I 406 W/m 10,8 C 11,9 C 11,3 km/h (2 Bft) 96,00 %
19.10.2017 14:54 12,3 C 11,7 C 91 % 1015,6 hPa 0,0 l/m 4,4 km/h (1 Bft) NO 55 2 min 0,000 mm 1,3 UV-I 414 W/m 10,9 C 12,3 C 8,0 km/h (2 Bft) 97,87 %
19.10.2017 14:56 12,4 C 11,7 C 92 % 1015,6 hPa 0,0 l/m 4,3 km/h (1 Bft) NO 55 2 min 0,000 mm 1,2 UV-I 404 W/m 11,1 C 12,4 C 6,4 km/h (2 Bft) 97,87 %
19.10.2017 14:58 12,6 C 11,7 C 90 % 1015,6 hPa 0,0 l/m 4,1 km/h (1 Bft) O-NO 70 2 min 0,000 mm 1,2 UV-I 406 W/m 11,0 C 12,6 C 6,4 km/h (2 Bft) 100,00 %
19.10.2017 15:00 12,7 C 11,7 C 90 % 1015,6 hPa 0,0 l/m 3,9 km/h (1 Bft) O-NO 71 2 min 0,203 mm 1,2 UV-I 400 W/m 11,1 C 12,7 C 8,0 km/h (2 Bft) 100,00 %
19.10.2017 15:02 12,7 C 11,7 C 90 % 1015,6 hPa 0,0 l/m 5,1 km/h (1 Bft) O-NO 59 2 min 0,000 mm 1,2 UV-I 393 W/m 11,1 C 12,7 C 8,0 km/h (2 Bft) 100,00 %
19.10.2017 15:04 12,8 C 11,7 C 90 % 1015,5 hPa 0,0 l/m 4,1 km/h (1 Bft) O-NO 67 2 min 0,000 mm 1,1 UV-I 388 W/m 11,2 C 12,8 C 6,4 km/h (2 Bft) 100,00 %
19.10.2017 15:06 12,8 C 11,7 C 89 % 1015,5 hPa 0,0 l/m 4,2 km/h (1 Bft) O-NO 61 2 min 0,000 mm 1,1 UV-I 383 W/m 11,0 C 12,8 C 6,4 km/h (2 Bft) 100,00 %
19.10.2017 15:08 12,8 C 11,7 C 89 % 1015,5 hPa 0,0 l/m 3,2 km/h (1 Bft) O-NO 62 2 min 0,000 mm 1,1 UV-I 376 W/m 11,0 C 12,8 C 4,8 km/h (1 Bft) 98,00 %
19.10.2017 15:10 12,7 C 11,7 C 89 % 1015,5 hPa 0,0 l/m 2,6 km/h (1 Bft) O-NO 62 2 min 0,000 mm 1,1 UV-I 370 W/m 10,9 C 12,7 C 4,8 km/h (1 Bft) 100,00 %
19.10.2017 15:12 12,6 C 11,7 C 89 % 1015,5 hPa 0,0 l/m 2,3 km/h (1 Bft) O-NO 62 2 min 0,000 mm 1,1 UV-I 366 W/m 10,8 C 12,6 C 4,8 km/h (1 Bft) 97,56 %
19.10.2017 15:14 12,6 C 11,7 C 89 % 1015,5 hPa 0,0 l/m 2,8 km/h (1 Bft) O 88 2 min 0,000 mm 1,1 UV-I 367 W/m 10,8 C 12,6 C 4,8 km/h (1 Bft) 100,00 %
19.10.2017 15:16 12,7 C 11,7 C 89 % 1015,5 hPa 0,0 l/m 3,4 km/h (1 Bft) O 79 2 min 0,000 mm 1,0 UV-I 360 W/m 10,9 C 12,7 C 4,8 km/h (1 Bft) 100,00 %
19.10.2017 15:18 12,7 C 11,7 C 89 % 1015,5 hPa 0,0 l/m 3,5 km/h (1 Bft) O 99 2 min 0,000 mm 1,0 UV-I 356 W/m 10,9 C 12,7 C 4,8 km/h (1 Bft) 100,00 %
19.10.2017 15:20 12,7 C 11,7 C 89 % 1015,4 hPa 0,0 l/m 3,6 km/h (1 Bft) O 80 2 min 0,000 mm 1,0 UV-I 350 W/m 10,9 C 12,7 C 4,8 km/h (1 Bft) 100,00 %
19.10.2017 15:22 12,8 C 11,7 C 89 % 1015,5 hPa 0,0 l/m 3,6 km/h (1 Bft) O 80 2 min 0,000 mm 1,0 UV-I 352 W/m 11,0 C 12,8 C 4,8 km/h (1 Bft) 100,00 %
19.10.2017 15:24 12,9 C 11,7 C 90 % 1015,4 hPa 0,0 l/m 3,3 km/h (1 Bft) O 80 2 min 0,000 mm 0,9 UV-I 347 W/m 11,3 C 12,9 C 4,8 km/h (1 Bft) 100,00 %
19.10.2017 15:26 12,8 C 11,7 C 88 % 1015,4 hPa 0,0 l/m 2,9 km/h (1 Bft) O-NO 62 2 min 0,000 mm 0,9 UV-I 341 W/m 10,9 C 12,8 C 4,8 km/h (1 Bft) 100,00 %
19.10.2017 15:28 12,9 C 11,7 C 89 % 1015,3 hPa 0,0 l/m 2,3 km/h (1 Bft) NO 47 2 min 0,000 mm 0,9 UV-I 339 W/m 11,1 C 12,9 C 4,8 km/h (1 Bft) 97,87 %
19.10.2017 15:30 12,9 C 11,7 C 89 % 1015,3 hPa 0,0 l/m 2,5 km/h (1 Bft) N-NO 30 2 min 0,000 mm 0,9 UV-I 333 W/m 11,1 C 12,9 C 6,4 km/h (2 Bft) 100,00 %
19.10.2017 15:32 12,9 C 11,7 C 89 % 1015,3 hPa 0,0 l/m 3,1 km/h (1 Bft) N-NO 29 2 min 0,000 mm 0,9 UV-I 331 W/m 11,1 C 12,9 C 6,4 km/h (2 Bft) 100,00 %
19.10.2017 15:34 12,9 C 11,7 C 90 % 1015,3 hPa 0,0 l/m 2,4 km/h (1 Bft) O-NO 61 2 min 0,000 mm 0,9 UV-I 326 W/m 11,3 C 12,9 C 6,4 km/h (2 Bft) 100,00 %
19.10.2017 15:36 13,1 C 11,7 C 89 % 1015,3 hPa 0,0 l/m 2,2 km/h (1 Bft) O 90 2 min 0,000 mm 0,8 UV-I 322 W/m 11,3 C 13,1 C 4,8 km/h (1 Bft) 100,00 %
19.10.2017 15:38 13,1 C 11,7 C 89 % 1015,2 hPa 0,0 l/m 3,7 km/h (1 Bft) NO 46 2 min 0,000 mm 0,8 UV-I 318 W/m 11,3 C 13,1 C 6,4 km/h (2 Bft) 100,00 %
19.10.2017 15:40 13,2 C 11,7 C 89 % 1015,2 hPa 0,0 l/m 3,6 km/h (1 Bft) O 88 2 min 0,000 mm 0,8 UV-I 314 W/m 11,4 C 13,2 C 6,4 km/h (2 Bft) 97,87 %
19.10.2017 15:42 13,3 C 11,7 C 88 % 1015,2 hPa 0,0 l/m 4,8 km/h (1 Bft) O-NO 78 2 min 0,000 mm 0,8 UV-I 310 W/m 11,4 C 13,3 C 6,4 km/h (2 Bft) 98,00 %
19.10.2017 15:44 13,3 C 11,7 C 88 % 1015,2 hPa 0,0 l/m 3,0 km/h (1 Bft) O-NO 78 2 min 0,000 mm 0,8 UV-I 305 W/m 11,4 C 13,3 C 4,8 km/h (1 Bft) 100,00 %
19.10.2017 15:46 13,3 C 11,7 C 88 % 1015,2 hPa 0,0 l/m 2,2 km/h (1 Bft) O-NO 77 2 min 0,000 mm 0,7 UV-I 301 W/m 11,4 C 13,3 C 6,4 km/h (2 Bft) 100,00 %
19.10.2017 15:48 13,3 C 11,7 C 88 % 1015,2 hPa 0,0 l/m 4,3 km/h (1 Bft) O-NO 77 2 min 0,000 mm 0,7 UV-I 297 W/m 11,4 C 13,3 C 6,4 km/h (2 Bft) 96,00 %
19.10.2017 15:50 13,2 C 11,7 C 88 % 1015,2 hPa 0,0 l/m 1,1 km/h (1 Bft) O-NO 77 2 min 0,000 mm 0,7 UV-I 291 W/m 11,3 C 13,2 C 3,2 km/h (1 Bft) 100,00 %
19.10.2017 15:52 13,2 C 11,7 C 88 % 1015,2 hPa 0,0 l/m 2,1 km/h (1 Bft) O-NO 77 2 min 0,000 mm 0,7 UV-I 288 W/m 11,3 C 13,2 C 3,2 km/h (1 Bft) 97,22 %
19.10.2017 15:54 13,2 C 11,7 C 89 % 1015,2 hPa 0,0 l/m 3,6 km/h (1 Bft) O-NO 77 2 min 0,000 mm 0,7 UV-I 284 W/m 11,4 C 13,2 C 6,4 km/h (2 Bft) 94,34 %
19.10.2017 15:56 13,3 C 11,7 C 89 % 1015,1 hPa 0,0 l/m 3,6 km/h (1 Bft) O-NO 71 2 min 0,000 mm 0,6 UV-I 278 W/m 11,5 C 13,3 C 6,4 km/h (2 Bft) 98,11 %
19.10.2017 15:58 13,3 C 11,7 C 87 % 1015,1 hPa 0,0 l/m 3,1 km/h (1 Bft) O-NO 70 2 min 0,000 mm 0,6 UV-I 273 W/m 11,2 C 13,3 C 4,8 km/h (1 Bft) 94,74 %
19.10.2017 16:00 13,3 C 11,7 C 87 % 1015,1 hPa 0,0 l/m 3,7 km/h (1 Bft) O-NO 70 2 min 0,000 mm 0,6 UV-I 269 W/m 11,2 C 13,3 C 4,8 km/h (1 Bft) 96,00 %
19.10.2017 16:02 13,3 C 11,7 C 88 % 1015,1 hPa 0,0 l/m 2,7 km/h (1 Bft) O-NO 70 2 min 0,178 mm 0,6 UV-I 266 W/m 11,4 C 13,3 C 4,8 km/h (1 Bft) 98,00 %
19.10.2017 16:04 13,4 C 11,7 C 88 % 1015,0 hPa 0,0 l/m 4,8 km/h (1 Bft) O-NO 70 2 min 0,000 mm 0,6 UV-I 261 W/m 11,5 C 13,4 C 6,4 km/h (2 Bft) 97,87 %
19.10.2017 16:06 13,5 C 11,7 C 88 % 1015,0 hPa 0,0 l/m 3,5 km/h (1 Bft) O-NO 70 2 min 0,000 mm 0,5 UV-I 257 W/m 11,6 C 13,5 C 4,8 km/h (1 Bft) 95,74 %
19.10.2017 16:08 13,5 C 11,7 C 88 % 1015,0 hPa 0,0 l/m 3,3 km/h (1 Bft) NO 51 2 min 0,000 mm 0,5 UV-I 250 W/m 11,6 C 13,5 C 6,4 km/h (2 Bft) 98,00 %
19.10.2017 16:10 13,5 C 11,7 C 88 % 1014,9 hPa 0,0 l/m 3,6 km/h (1 Bft) O-NO 76 2 min 0,000 mm 0,5 UV-I 244 W/m 11,6 C 13,5 C 8,0 km/h (2 Bft) 97,37 %
19.10.2017 16:12 13,6 C 11,7 C 88 % 1014,9 hPa 0,0 l/m 4,4 km/h (1 Bft) O-NO 76 2 min 0,000 mm 0,5 UV-I 240 W/m 11,6 C 13,6 C 4,8 km/h (1 Bft) 98,21 %
19.10.2017 16:14 13,6 C 11,7 C 87 % 1015,0 hPa 0,0 l/m 5,4 km/h (1 Bft) O-NO 78 2 min 0,000 mm 0,5 UV-I 236 W/m 11,5 C 13,6 C 8,0 km/h (2 Bft) 97,56 %
19.10.2017 16:16 13,6 C 11,7 C 88 % 1014,9 hPa 0,0 l/m 2,6 km/h (1 Bft) O 80 2 min 0,000 mm 0,5 UV-I 230 W/m 11,6 C 13,6 C 6,4 km/h (2 Bft) 97,87 %
19.10.2017 16:18 13,6 C 11,7 C 87 % 1014,9 hPa 0,0 l/m 3,9 km/h (1 Bft) O-NO 62 2 min 0,000 mm 0,2 UV-I 226 W/m 11,5 C 13,6 C 6,4 km/h (2 Bft) 98,00 %
19.10.2017 16:20 13,6 C 11,7 C 87 % 1014,9 hPa 0,0 l/m 3,2 km/h (1 Bft) O-NO 62 2 min 0,000 mm 0,0 UV-I 222 W/m 11,5 C 13,6 C 4,8 km/h (1 Bft) 95,12 %
19.10.2017 16:22 13,7 C 12,2 C 87 % 1014,9 hPa 0,0 l/m 4,0 km/h (1 Bft) O-NO 61 2 min 0,000 mm 0,0 UV-I 218 W/m 11,6 C 13,7 C 6,4 km/h (2 Bft) 95,74 %
19.10.2017 16:24 13,7 C 12,2 C 87 % 1014,9 hPa 0,0 l/m 3,3 km/h (1 Bft) O-NO 61 2 min 0,000 mm 0,0 UV-I 211 W/m 11,6 C 13,7 C 4,8 km/h (1 Bft) 96,23 %
19.10.2017 16:26 13,7 C 11,7 C 87 % 1014,9 hPa 0,0 l/m 2,5 km/h (1 Bft) O-NO 61 2 min 0,000 mm 0,0 UV-I 206 W/m 11,6 C 13,7 C 4,8 km/h (1 Bft) 95,45 %
19.10.2017 16:28 13,7 C 11,7 C 87 % 1014,9 hPa 0,0 l/m 2,9 km/h (1 Bft) O-NO 63 2 min 0,000 mm 0,0 UV-I 201 W/m 11,6 C 13,7 C 4,8 km/h (1 Bft) 94,87 %
19.10.2017 16:30 13,7 C 12,2 C 87 % 1014,9 hPa 0,0 l/m 2,7 km/h (1 Bft) O-NO 63 2 min 0,000 mm 0,0 UV-I 197 W/m 11,6 C 13,7 C 4,8 km/h (1 Bft) 94,83 %
19.10.2017 16:32 13,7 C 12,2 C 87 % 1014,9 hPa 0,0 l/m 2,0 km/h (1 Bft) O-NO 73 2 min 0,000 mm 0,0 UV-I 191 W/m 11,6 C 13,7 C 4,8 km/h (1 Bft) 94,87 %
19.10.2017 16:34 13,7 C 12,2 C 87 % 1014,7 hPa 0,0 l/m 3,3 km/h (1 Bft) O 85 2 min 0,000 mm 0,0 UV-I 187 W/m 11,6 C 13,7 C 4,8 km/h (1 Bft) 94,34 %
19.10.2017 16:36 13,8 C 12,2 C 87 % 1014,7 hPa 0,0 l/m 1,2 km/h (1 Bft) O 85 2 min 0,000 mm 0,0 UV-I 182 W/m 11,7 C 13,8 C 3,2 km/h (1 Bft) 96,00 %
19.10.2017 16:38 13,8 C 12,2 C 87 % 1014,7 hPa 0,0 l/m 3,4 km/h (1 Bft) O 84 2 min 0,000 mm 0,0 UV-I 178 W/m 11,7 C 13,8 C 4,8 km/h (1 Bft) 95,74 %
19.10.2017 16:40 13,8 C 12,2 C 87 % 1014,7 hPa 0,0 l/m 3,5 km/h (1 Bft) O 84 2 min 0,000 mm 0,0 UV-I 171 W/m 11,7 C 13,8 C 6,4 km/h (2 Bft) 94,74 %
19.10.2017 16:42 13,8 C 11,7 C 87 % 1014,7 hPa 0,0 l/m 3,9 km/h (1 Bft) O 82 2 min 0,000 mm 0,0 UV-I 168 W/m 11,7 C 13,8 C 4,8 km/h (1 Bft) 96,23 %
19.10.2017 16:44 13,8 C 12,2 C 87 % 1014,6 hPa 0,0 l/m 4,0 km/h (1 Bft) O 82 2 min 0,000 mm 0,0 UV-I 162 W/m 11,7 C 13,8 C 6,4 km/h (2 Bft) 96,00 %
19.10.2017 16:46 13,8 C 12,2 C 87 % 1014,6 hPa 0,0 l/m 4,3 km/h (1 Bft) O 82 2 min 0,000 mm 0,0 UV-I 158 W/m 11,7 C 13,8 C 6,4 km/h (2 Bft) 92,11 %
19.10.2017 16:48 13,8 C 12,2 C 88 % 1014,6 hPa 0,0 l/m 1,9 km/h (1 Bft) O 82 2 min 0,000 mm 0,0 UV-I 154 W/m 11,8 C 13,8 C 4,8 km/h (1 Bft) 95,74 %
19.10.2017 16:50 13,8 C 12,2 C 88 % 1014,6 hPa 0,0 l/m 2,1 km/h (1 Bft) O 82 2 min 0,000 mm 0,0 UV-I 148 W/m 11,8 C 13,8 C 3,2 km/h (1 Bft) 95,74 %
19.10.2017 16:52 13,8 C 12,2 C 88 % 1014,5 hPa 0,0 l/m 2,5 km/h (1 Bft) O-NO 70 2 min 0,000 mm 0,0 UV-I 144 W/m 11,8 C 13,8 C 4,8 km/h (1 Bft) 93,62 %
19.10.2017 16:54 13,7 C 12,2 C 88 % 1014,6 hPa 0,0 l/m 3,1 km/h (1 Bft) O-NO 70 2 min 0,000 mm 0,0 UV-I 139 W/m 11,7 C 13,7 C 4,8 km/h (1 Bft) 90,00 %
19.10.2017 16:56 13,7 C 12,2 C 88 % 1014,6 hPa 0,0 l/m 2,4 km/h (1 Bft) O-NO 70 2 min 0,000 mm 0,0 UV-I 134 W/m 11,7 C 13,7 C 4,8 km/h (1 Bft) 95,12 %
19.10.2017 16:58 13,7 C 12,2 C 88 % 1014,6 hPa 0,0 l/m 2,2 km/h (1 Bft) O-NO 70 2 min 0,000 mm 0,0 UV-I 129 W/m 11,7 C 13,7 C 3,2 km/h (1 Bft) 96,00 %
19.10.2017 17:00 13,8 C 12,2 C 88 % 1014,6 hPa 0,0 l/m 2,1 km/h (1 Bft) O-NO 70 2 min 0,101 mm 0,0 UV-I 125 W/m 11,8 C 13,8 C 3,2 km/h (1 Bft) 94,29 %
19.10.2017 17:02 13,7 C 12,2 C 88 % 1014,6 hPa 0,0 l/m 3,0 km/h (1 Bft) O-NO 70 2 min 0,000 mm 0,0 UV-I 122 W/m 11,7 C 13,7 C 4,8 km/h (1 Bft) 95,38 %
19.10.2017 17:04 13,7 C 12,2 C 88 % 1014,6 hPa 0,0 l/m 3,7 km/h (1 Bft) O-NO 70 2 min 0,000 mm 0,0 UV-I 117 W/m 11,7 C 13,7 C 4,8 km/h (1 Bft) 94,74 %
19.10.2017 17:06 13,7 C 12,2 C 88 % 1014,6 hPa 0,0 l/m 2,3 km/h (1 Bft) O-NO 70 2 min 0,000 mm 0,0 UV-I 113 W/m 11,7 C 13,7 C 3,2 km/h (1 Bft) 96,00 %
19.10.2017 17:08 13,7 C 12,2 C 88 % 1014,6 hPa 0,0 l/m 2,3 km/h (1 Bft) O-NO 70 2 min 0,000 mm 0,0 UV-I 108 W/m 11,7 C 13,7 C 3,2 km/h (1 Bft) 96,00 %
19.10.2017 17:10 13,7 C 12,2 C 88 % 1014,6 hPa 0,0 l/m 2,6 km/h (1 Bft) O-NO 70 2 min 0,000 mm 0,0 UV-I 104 W/m 11,7 C 13,7 C 4,8 km/h (1 Bft) 96,00 %
19.10.2017 17:12 13,6 C 12,2 C 88 % 1014,6 hPa 0,0 l/m 2,9 km/h (1 Bft) O-NO 70 2 min 0,000 mm 0,0 UV-I 100 W/m 11,6 C 13,6 C 4,8 km/h (1 Bft) 97,44 %
19.10.2017 17:14 13,6 C 12,2 C 89 % 1014,6 hPa 0,0 l/m 2,8 km/h (1 Bft) O-NO 70 2 min 0,000 mm 0,0 UV-I 96 W/m 11,8 C 13,6 C 3,2 km/h (1 Bft) 97,56 %
19.10.2017 17:16 13,5 C 12,2 C 88 % 1014,5 hPa 0,0 l/m 3,4 km/h (1 Bft) O-NO 70 2 min 0,000 mm 0,0 UV-I 91 W/m 11,6 C 13,5 C 4,8 km/h (1 Bft) 98,08 %
19.10.2017 17:18 13,4 C 12,2 C 89 % 1014,5 hPa 0,0 l/m 4,0 km/h (1 Bft) O-NO 70 2 min 0,000 mm 0,0 UV-I 85 W/m 11,6 C 13,4 C 4,8 km/h (1 Bft) 100,00 %
19.10.2017 17:20 13,4 C 12,2 C 89 % 1014,5 hPa 0,0 l/m 3,1 km/h (1 Bft) O-NO 70 2 min 0,000 mm 0,0 UV-I 79 W/m 11,6 C 13,4 C 4,8 km/h (1 Bft) 98,00 %
19.10.2017 17:22 13,3 C 12,2 C 89 % 1014,5 hPa 0,0 l/m 3,2 km/h (1 Bft) O-NO 70 2 min 0,000 mm 0,0 UV-I 76 W/m 11,5 C 13,3 C 4,8 km/h (1 Bft) 97,37 %
19.10.2017 17:24 13,3 C 12,2 C 89 % 1014,5 hPa 0,0 l/m 3,5 km/h (1 Bft) O-NO 70 2 min 0,000 mm 0,0 UV-I 71 W/m 11,5 C 13,3 C 4,8 km/h (1 Bft) 100,00 %
19.10.2017 17:26 13,3 C 12,2 C 89 % 1014,5 hPa 0,0 l/m 3,1 km/h (1 Bft) O-NO 70 2 min 0,000 mm 0,0 UV-I 68 W/m 11,5 C 13,3 C 4,8 km/h (1 Bft) 98,00 %
19.10.2017 17:28 13,2 C 12,2 C 90 % 1014,5 hPa 0,0 l/m 2,0 km/h (1 Bft) O-NO 70 2 min 0,000 mm 0,0 UV-I 65 W/m 11,6 C 13,2 C 4,8 km/h (1 Bft) 100,00 %
19.10.2017 17:30 13,2 C 12,2 C 90 % 1014,5 hPa 0,0 l/m 2,6 km/h (1 Bft) O-NO 70 2 min 0,000 mm 0,0 UV-I 58 W/m 11,6 C 13,2 C 4,8 km/h (1 Bft) 100,00 %
19.10.2017 17:32 13,2 C 12,2 C 90 % 1014,5 hPa 0,0 l/m 3,0 km/h (1 Bft) O-NO 70 2 min 0,000 mm 0,0 UV-I 52 W/m 11,6 C 13,2 C 4,8 km/h (1 Bft) 100,00 %
19.10.2017 17:34 13,1 C 12,2 C 90 % 1014,5 hPa 0,0 l/m 3,3 km/h (1 Bft) O-NO 70 2 min 0,000 mm 0,0 UV-I 45 W/m 11,5 C 13,1 C 4,8 km/h (1 Bft) 100,00 %
19.10.2017 17:36 13,1 C 12,2 C 90 % 1014,5 hPa 0,0 l/m 3,3 km/h (1 Bft) O-NO 70 0 min 0,000 mm 0,0 UV-I 39 W/m 11,5 C 13,1 C 6,4 km/h (2 Bft) 100,00 %
19.10.2017 17:38 13,0 C 12,2 C 90 % 1014,5 hPa 0,0 l/m 2,8 km/h (1 Bft) O-NO 70 0 min 0,000 mm 0,0 UV-I 34 W/m 11,4 C 13,0 C 3,2 km/h (1 Bft) 100,00 %
19.10.2017 17:40 12,9 C 12,2 C 90 % 1014,5 hPa 0,0 l/m 2,5 km/h (1 Bft) O-NO 70 0 min 0,000 mm 0,0 UV-I 32 W/m 11,3 C 12,9 C 3,2 km/h (1 Bft) 100,00 %
19.10.2017 17:42 12,9 C 12,2 C 91 % 1014,5 hPa 0,0 l/m 2,7 km/h (1 Bft) O-NO 70 2 min 0,000 mm 0,0 UV-I 32 W/m 11,5 C 12,9 C 4,8 km/h (1 Bft) 100,00 %
19.10.2017 17:44 12,9 C 12,2 C 91 % 1014,5 hPa 0,0 l/m 2,1 km/h (1 Bft) O-NO 70 2 min 0,000 mm 0,0 UV-I 31 W/m 11,5 C 12,9 C 4,8 km/h (1 Bft) 100,00 %
19.10.2017 17:46 12,9 C 12,2 C 91 % 1014,4 hPa 0,0 l/m 2,5 km/h (1 Bft) O-NO 70 2 min 0,000 mm 0,0 UV-I 28 W/m 11,5 C 12,9 C 4,8 km/h (1 Bft) 100,00 %
19.10.2017 17:48 12,8 C 12,2 C 91 % 1014,4 hPa 0,0 l/m 2,0 km/h (1 Bft) O-NO 70 2 min 0,000 mm 0,0 UV-I 25 W/m 11,4 C 12,8 C 3,2 km/h (1 Bft) 100,00 %
19.10.2017 17:50 12,8 C 12,2 C 91 % 1014,4 hPa 0,0 l/m 2,3 km/h (1 Bft) O-NO 70 2 min 0,000 mm 0,0 UV-I 22 W/m 11,4 C 12,8 C 3,2 km/h (1 Bft) 98,18 %
19.10.2017 17:52 12,7 C 12,2 C 91 % 1014,4 hPa 0,0 l/m 2,2 km/h (1 Bft) O-NO 70 2 min 0,000 mm 0,0 UV-I 21 W/m 11,3 C 12,7 C 3,2 km/h (1 Bft) 100,00 %
19.10.2017 17:54 12,7 C 12,2 C 91 % 1014,5 hPa 0,0 l/m 2,4 km/h (1 Bft) O-NO 70 2 min 0,000 mm 0,0 UV-I 20 W/m 11,3 C 12,7 C 3,2 km/h (1 Bft) 100,00 %
19.10.2017 17:56 12,6 C 12,2 C 91 % 1014,4 hPa 0,0 l/m 1,6 km/h (1 Bft) O-NO 70 2 min 0,000 mm 0,0 UV-I 18 W/m 11,2 C 12,6 C 3,2 km/h (1 Bft) 100,00 %
19.10.2017 17:58 12,5 C 12,2 C 91 % 1014,4 hPa 0,0 l/m 1,5 km/h (1 Bft) O-NO 70 0 min 0,000 mm 0,0 UV-I 15 W/m 11,1 C 12,5 C 3,2 km/h (1 Bft) 100,00 %
19.10.2017 18:00 12,4 C 12,2 C 91 % 1014,4 hPa 0,0 l/m 1,7 km/h (1 Bft) O-NO 70 0 min 0,026 mm 0,0 UV-I 14 W/m 11,0 C 12,4 C 3,2 km/h (1 Bft) 100,00 %
19.10.2017 18:02 12,3 C 12,2 C 92 % 1014,5 hPa 0,0 l/m 1,9 km/h (1 Bft) O-NO 70 0 min 0,000 mm 0,0 UV-I 12 W/m 11,0 C 12,3 C 3,2 km/h (1 Bft) 100,00 %
19.10.2017 18:04 12,3 C 12,2 C 92 % 1014,5 hPa 0,0 l/m 1,6 km/h (1 Bft) O-NO 70 0 min 0,000 mm 0,0 UV-I 11 W/m 11,0 C 12,3 C 3,2 km/h (1 Bft) 100,00 %
19.10.2017 18:06 12,2 C 12,2 C 92 % 1014,4 hPa 0,0 l/m 2,2 km/h (1 Bft) O-NO 70 0 min 0,000 mm 0,0 UV-I 11 W/m 10,9 C 12,2 C 3,2 km/h (1 Bft) 98,00 %
19.10.2017 18:08 12,1 C 12,2 C 92 % 1014,5 hPa 0,0 l/m 2,4 km/h (1 Bft) O-NO 70 0 min 0,000 mm 0,0 UV-I 9 W/m 10,8 C 12,1 C 3,2 km/h (1 Bft) 100,00 %
19.10.2017 18:10 11,9 C 12,2 C 92 % 1014,5 hPa 0,0 l/m 3,0 km/h (1 Bft) O-NO 70 0 min 0,000 mm 0,0 UV-I 8 W/m 10,6 C 11,9 C 3,2 km/h (1 Bft) 100,00 %
19.10.2017 18:12 11,8 C 12,2 C 92 % 1014,5 hPa 0,0 l/m 3,0 km/h (1 Bft) O-NO 70 0 min 0,000 mm 0,0 UV-I 7 W/m 10,5 C 11,8 C 4,8 km/h (1 Bft) 100,00 %
19.10.2017 18:14 11,7 C 12,2 C 92 % 1014,6 hPa 0,0 l/m 3,9 km/h (1 Bft) O-NO 70 0 min 0,000 mm 0,0 UV-I 7 W/m 10,4 C 11,7 C 4,8 km/h (1 Bft) 100,00 %
19.10.2017 18:16 11,6 C 12,2 C 93 % 1014,5 hPa 0,0 l/m 3,2 km/h (1 Bft) O-NO 70 0 min 0,000 mm 0,0 UV-I 5 W/m 10,5 C 11,6 C 4,8 km/h (1 Bft) 98,00 %
19.10.2017 18:18 11,6 C 12,2 C 93 % 1014,5 hPa 0,0 l/m 3,2 km/h (1 Bft) O-NO 70 0 min 0,000 mm 0,0 UV-I 5 W/m 10,5 C 11,6 C 4,8 km/h (1 Bft) 100,00 %
19.10.2017 18:20 11,7 C 12,2 C 94 % 1014,6 hPa 0,0 l/m 3,9 km/h (1 Bft) O-NO 70 0 min 0,000 mm 0,0 UV-I 5 W/m 10,8 C 11,7 C 6,4 km/h (2 Bft) 100,00 %
19.10.2017 18:22 11,7 C 12,2 C 94 % 1014,5 hPa 0,0 l/m 3,4 km/h (1 Bft) O-NO 70 0 min 0,000 mm 0,0 UV-I 5 W/m 10,8 C 11,7 C 4,8 km/h (1 Bft) 98,51 %
19.10.2017 18:24 11,7 C 12,2 C 94 % 1014,6 hPa 0,0 l/m 4,2 km/h (1 Bft) O 85 0 min 0,000 mm 0,0 UV-I 0 W/m 10,8 C 11,7 C 6,4 km/h (2 Bft) 100,00 %
19.10.2017 18:26 11,7 C 12,2 C 94 % 1014,6 hPa 0,0 l/m 4,6 km/h (1 Bft) O 85 0 min 0,000 mm 0,0 UV-I 0 W/m 10,8 C 11,7 C 6,4 km/h (2 Bft) 100,00 %
19.10.2017 18:28 11,7 C 12,2 C 94 % 1014,6 hPa 0,0 l/m 4,1 km/h (1 Bft) O 85 0 min 0,000 mm 0,0 UV-I 0 W/m 10,8 C 11,7 C 4,8 km/h (1 Bft) 96,23 %
19.10.2017 18:30 11,7 C 12,2 C 94 % 1014,6 hPa 0,0 l/m 4,5 km/h (1 Bft) O-NO 70 0 min 0,000 mm 0,0 UV-I 0 W/m 10,8 C 11,7 C 6,4 km/h (2 Bft) 100,00 %
19.10.2017 18:32 11,7 C 12,2 C 94 % 1014,6 hPa 0,0 l/m 5,8 km/h (2 Bft) O-NO 78 0 min 0,000 mm 0,0 UV-I 0 W/m 10,8 C 11,7 C 8,0 km/h (2 Bft) 100,00 %
19.10.2017 18:34 11,8 C 12,2 C 94 % 1014,6 hPa 0,0 l/m 5,8 km/h (2 Bft) O 80 0 min 0,000 mm 0,0 UV-I 0 W/m 10,9 C 11,8 C 8,0 km/h (2 Bft) 97,87 %
19.10.2017 18:36 11,8 C 12,2 C 94 % 1014,6 hPa 0,0 l/m 4,7 km/h (1 Bft) O 80 0 min 0,000 mm 0,0 UV-I 0 W/m 10,9 C 11,8 C 6,4 km/h (2 Bft) 100,00 %
19.10.2017 18:38 11,8 C 12,2 C 94 % 1014,6 hPa 0,0 l/m 4,2 km/h (1 Bft) O 85 0 min 0,000 mm 0,0 UV-I 0 W/m 10,9 C 11,8 C 6,4 km/h (2 Bft) 100,00 %
19.10.2017 18:40 11,7 C 12,2 C 94 % 1014,6 hPa 0,0 l/m 4,4 km/h (1 Bft) O-NO 71 0 min 0,000 mm 0,0 UV-I 0 W/m 10,8 C 11,7 C 6,4 km/h (2 Bft) 100,00 %
19.10.2017 18:42 11,7 C 12,2 C 94 % 1014,6 hPa 0,0 l/m 3,4 km/h (1 Bft) O-NO 71 0 min 0,000 mm 0,0 UV-I 0 W/m 10,8 C 11,7 C 4,8 km/h (1 Bft) 100,00 %
19.10.2017 18:44 11,7 C 12,2 C 94 % 1014,6 hPa 0,0 l/m 3,3 km/h (1 Bft) O-NO 71 0 min 0,000 mm 0,0 UV-I 0 W/m 10,8 C 11,7 C 4,8 km/h (1 Bft) 98,00 %
19.10.2017 18:46 11,6 C 12,2 C 94 % 1014,6 hPa 0,0 l/m 2,3 km/h (1 Bft) O-NO 71 0 min 0,000 mm 0,0 UV-I 0 W/m 10,7 C 11,6 C 4,8 km/h (1 Bft) 100,00 %
19.10.2017 18:48 11,4 C 12,2 C 93 % 1014,6 hPa 0,0 l/m 3,2 km/h (1 Bft) O-NO 71 0 min 0,000 mm 0,0 UV-I 0 W/m 10,3 C 11,4 C 4,8 km/h (1 Bft) 100,00 %
19.10.2017 18:50 11,3 C 12,2 C 94 % 1014,7 hPa 0,0 l/m 3,0 km/h (1 Bft) O-NO 71 0 min 0,000 mm 0,0 UV-I 0 W/m 10,4 C 11,3 C 4,8 km/h (1 Bft) 100,00 %
19.10.2017 18:52 11,2 C 12,2 C 94 % 1014,7 hPa 0,0 l/m 3,0 km/h (1 Bft) O-NO 71 0 min 0,000 mm 0,0 UV-I 0 W/m 10,3 C 11,2 C 4,8 km/h (1 Bft) 98,00 %
19.10.2017 18:54 11,2 C 12,2 C 94 % 1014,7 hPa 0,0 l/m 3,1 km/h (1 Bft) O-NO 71 0 min 0,000 mm 0,0 UV-I 0 W/m 10,3 C 11,2 C 4,8 km/h (1 Bft) 100,00 %
19.10.2017 18:56 11,2 C 12,2 C 94 % 1014,7 hPa 0,0 l/m 2,9 km/h (1 Bft) O-NO 71 0 min 0,000 mm 0,0 UV-I 0 W/m 10,3 C 11,2 C 3,2 km/h (1 Bft) 100,00 %
19.10.2017 18:58 11,2 C 12,2 C 95 % 1014,8 hPa 0,0 l/m 1,8 km/h (1 Bft) O-NO 71 0 min 0,000 mm 0,0 UV-I 0 W/m 10,4 C 11,2 C 3,2 km/h (1 Bft) 100,00 %
19.10.2017 19:00 11,1 C 12,2 C 94 % 1014,8 hPa 0,0 l/m 2,6 km/h (1 Bft) O-NO 71 0 min 0,000 mm 0,0 UV-I 0 W/m 10,2 C 11,1 C 3,2 km/h (1 Bft) 100,00 %
19.10.2017 19:02 11,0 C 12,2 C 94 % 1014,8 hPa 0,0 l/m 3,6 km/h (1 Bft) O-NO 71 0 min 0,000 mm 0,0 UV-I 0 W/m 10,1 C 11,0 C 4,8 km/h (1 Bft) 97,56 %
19.10.2017 19:04 10,8 C 12,2 C 94 % 1014,8 hPa 0,0 l/m 3,7 km/h (1 Bft) O-NO 71 0 min 0,000 mm 0,0 UV-I 0 W/m 9,9 C 10,8 C 4,8 km/h (1 Bft) 98,11 %
19.10.2017 19:06 10,8 C 12,2 C 94 % 1014,8 hPa 0,0 l/m 3,5 km/h (1 Bft) O-NO 71 0 min 0,000 mm 0,0 UV-I 0 W/m 9,9 C 10,8 C 4,8 km/h (1 Bft) 97,22 %
19.10.2017 19:08 10,7 C 12,2 C 95 % 1014,8 hPa 0,0 l/m 3,5 km/h (1 Bft) NO 48 0 min 0,000 mm 0,0 UV-I 0 W/m 9,9 C 10,7 C 4,8 km/h (1 Bft) 96,49 %
19.10.2017 19:10 10,7 C 12,2 C 95 % 1014,8 hPa 0,0 l/m 4,0 km/h (1 Bft) NO 48 0 min 0,000 mm 0,0 UV-I 0 W/m 9,9 C 10,7 C 4,8 km/h (1 Bft) 96,00 %
19.10.2017 19:12 10,7 C 12,2 C 95 % 1014,9 hPa 0,0 l/m 3,9 km/h (1 Bft) NO 48 0 min 0,000 mm 0,0 UV-I 0 W/m 9,9 C 10,7 C 4,8 km/h (1 Bft) 97,92 %
19.10.2017 19:14 10,6 C 12,2 C 95 % 1014,9 hPa 0,0 l/m 3,7 km/h (1 Bft) NO 48 0 min 0,000 mm 0,0 UV-I 0 W/m 9,8 C 10,6 C 4,8 km/h (1 Bft) 97,37 %
19.10.2017 19:16 10,6 C 12,2 C 95 % 1014,9 hPa 0,0 l/m 3,1 km/h (1 Bft) NO 48 0 min 0,000 mm 0,0 UV-I 0 W/m 9,8 C 10,6 C 4,8 km/h (1 Bft) 94,29 %
19.10.2017 19:18 10,5 C 12,2 C 95 % 1014,9 hPa 0,0 l/m 2,8 km/h (1 Bft) NO 48 0 min 0,000 mm 0,0 UV-I 0 W/m 9,7 C 10,5 C 3,2 km/h (1 Bft) 96,43 %
19.10.2017 19:20 10,5 C 12,2 C 95 % 1014,9 hPa 0,0 l/m 3,3 km/h (1 Bft) NO 48 0 min 0,000 mm 0,0 UV-I 0 W/m 9,7 C 10,5 C 4,8 km/h (1 Bft) 98,11 %
19.10.2017 19:22 10,4 C 12,2 C 95 % 1014,8 hPa 0,0 l/m 4,0 km/h (1 Bft) NO 48 0 min 0,000 mm 0,0 UV-I 0 W/m 9,6 C 10,4 C 4,8 km/h (1 Bft) 98,00 %
19.10.2017 19:24 10,4 C 12,2 C 95 % 1014,9 hPa 0,0 l/m 3,4 km/h (1 Bft) NO 48 0 min 0,000 mm 0,0 UV-I 0 W/m 9,6 C 10,4 C 4,8 km/h (1 Bft) 97,37 %
19.10.2017 19:26 10,4 C 12,2 C 95 % 1014,9 hPa 0,0 l/m 3,4 km/h (1 Bft) NO 48 0 min 0,000 mm 0,0 UV-I 0 W/m 9,6 C 10,4 C 4,8 km/h (1 Bft) 96,23 %
19.10.2017 19:28 10,4 C 12,2 C 95 % 1014,8 hPa 0,0 l/m 3,8 km/h (1 Bft) NO 48 0 min 0,000 mm 0,0 UV-I 0 W/m 9,6 C 10,4 C 4,8 km/h (1 Bft) 93,62 %
19.10.2017 19:30 10,3 C 12,2 C 95 % 1014,9 hPa 0,0 l/m 3,7 km/h (1 Bft) NO 48 0 min 0,000 mm 0,0 UV-I 0 W/m 9,5 C 10,3 C 4,8 km/h (1 Bft) 98,00 %
19.10.2017 19:32 10,2 C 12,2 C 96 % 1014,9 hPa 0,0 l/m 4,4 km/h (1 Bft) NO 48 0 min 0,000 mm 0,0 UV-I 0 W/m 9,6 C 10,2 C 6,4 km/h (2 Bft) 97,87 %
19.10.2017 19:34 10,2 C 12,2 C 96 % 1014,9 hPa 0,0 l/m 4,7 km/h (1 Bft) NO 48 0 min 0,000 mm 0,0 UV-I 0 W/m 9,6 C 10,2 C 6,4 km/h (2 Bft) 95,12 %
19.10.2017 19:36 10,2 C 12,2 C 96 % 1014,9 hPa 0,0 l/m 5,1 km/h (1 Bft) NO 40 0 min 0,000 mm 0,0 UV-I 0 W/m 9,6 C 10,2 C 6,4 km/h (2 Bft) 96,23 %
19.10.2017 19:38 10,1 C 12,2 C 96 % 1014,8 hPa 0,0 l/m 4,9 km/h (1 Bft) NO 39 0 min 0,000 mm 0,0 UV-I 0 W/m 9,5 C 10,1 C 6,4 km/h (2 Bft) 97,37 %
19.10.2017 19:40 10,1 C 12,2 C 96 % 1014,9 hPa 0,0 l/m 4,5 km/h (1 Bft) NO 39 0 min 0,000 mm 0,0 UV-I 0 W/m 9,5 C 10,1 C 6,4 km/h (2 Bft) 98,11 %
19.10.2017 19:42 10,1 C 12,2 C 96 % 1014,9 hPa 0,0 l/m 3,9 km/h (1 Bft) NO 39 0 min 0,000 mm 0,0 UV-I 0 W/m 9,5 C 10,1 C 4,8 km/h (1 Bft) 98,00 %
19.10.2017 19:44 10,1 C 12,2 C 96 % 1014,9 hPa 0,0 l/m 3,6 km/h (1 Bft) NO 39 0 min 0,000 mm 0,0 UV-I 0 W/m 9,5 C 10,1 C 4,8 km/h (1 Bft) 97,37 %
19.10.2017 19:46 10,1 C 12,2 C 96 % 1014,9 hPa 0,0 l/m 3,5 km/h (1 Bft) NO 39 0 min 0,000 mm 0,0 UV-I 0 W/m 9,5 C 10,1 C 4,8 km/h (1 Bft) 100,00 %
19.10.2017 19:48 10,2 C 12,2 C 96 % 1014,9 hPa 0,0 l/m 4,2 km/h (1 Bft) NO 39 0 min 0,000 mm 0,0 UV-I 0 W/m 9,6 C 10,2 C 4,8 km/h (1 Bft) 91,67 %
19.10.2017 19:50 10,1 C 12,2 C 96 % 1014,8 hPa 0,0 l/m 3,7 km/h (1 Bft) NO 39 0 min 0,000 mm 0,0 UV-I 0 W/m 9,5 C 10,1 C 4,8 km/h (1 Bft) 98,08 %
19.10.2017 19:52 10,1 C 12,2 C 96 % 1014,8 hPa 0,0 l/m 3,4 km/h (1 Bft) NO 39 0 min 0,000 mm 0,0 UV-I 0 W/m 9,5 C 10,1 C 4,8 km/h (1 Bft) 97,92 %
19.10.2017 19:54 10,1 C 12,2 C 96 % 1014,9 hPa 0,0 l/m 2,8 km/h (1 Bft) NO 39 0 min 0,000 mm 0,0 UV-I 0 W/m 9,5 C 10,1 C 4,8 km/h (1 Bft) 97,56 %
19.10.2017 19:56 10,0 C 12,2 C 96 % 1014,8 hPa 0,0 l/m 2,2 km/h (1 Bft) NO 39 0 min 0,000 mm 0,0 UV-I 0 W/m 9,4 C 10,0 C 3,2 km/h (1 Bft) 97,87 %
19.10.2017 19:58 9,9 C 12,2 C 96 % 1014,8 hPa 0,0 l/m 2,2 km/h (1 Bft) NO 39 0 min 0,000 mm 0,0 UV-I 0 W/m 9,3 C 9,9 C 3,2 km/h (1 Bft) 98,00 %
19.10.2017 20:00 9,8 C 12,2 C 96 % 1014,9 hPa 0,0 l/m 2,0 km/h (1 Bft) NO 39 0 min 0,000 mm 0,0 UV-I 0 W/m 9,2 C 9,8 C 3,2 km/h (1 Bft) 95,74 %
19.10.2017 20:02 9,8 C 12,2 C 96 % 1014,9 hPa 0,0 l/m 2,0 km/h (1 Bft) NO 39 0 min 0,000 mm 0,0 UV-I 0 W/m 9,2 C 9,8 C 3,2 km/h (1 Bft) 95,12 %
19.10.2017 20:04 9,8 C 12,2 C 96 % 1014,9 hPa 0,0 l/m 2,3 km/h (1 Bft) NO 39 0 min 0,000 mm 0,0 UV-I 0 W/m 9,2 C 9,8 C 3,2 km/h (1 Bft) 97,87 %
19.10.2017 20:06 9,9 C 12,2 C 97 % 1014,9 hPa 0,0 l/m 2,7 km/h (1 Bft) NO 39 0 min 0,000 mm 0,0 UV-I 0 W/m 9,4 C 9,9 C 3,2 km/h (1 Bft) 95,74 %
19.10.2017 20:08 10,0 C 12,2 C 97 % 1014,9 hPa 0,0 l/m 2,8 km/h (1 Bft) NO 39 0 min 0,000 mm 0,0 UV-I 0 W/m 9,5 C 10,0 C 3,2 km/h (1 Bft) 97,73 %
19.10.2017 20:10 10,0 C 12,2 C 96 % 1014,9 hPa 0,0 l/m 2,5 km/h (1 Bft) NO 39 0 min 0,000 mm 0,0 UV-I 0 W/m 9,4 C 10,0 C 3,2 km/h (1 Bft) 98,00 %
19.10.2017 20:12 10,0 C 12,2 C 97 % 1014,9 hPa 0,0 l/m 2,2 km/h (1 Bft) NO 39 0 min 0,000 mm 0,0 UV-I 0 W/m 9,5 C 10,0 C 3,2 km/h (1 Bft) 97,87 %
19.10.2017 20:14 10,1 C 12,2 C 97 % 1014,8 hPa 0,0 l/m 2,4 km/h (1 Bft) NO 39 0 min 0,000 mm 0,0 UV-I 0 W/m 9,6 C 10,1 C 3,2 km/h (1 Bft) 97,87 %
19.10.2017 20:16 10,1 C 12,2 C 97 % 1014,8 hPa 0,0 l/m 1,4 km/h (1 Bft) NO 39 0 min 0,000 mm 0,0 UV-I 0 W/m 9,6 C 10,1 C 1,6 km/h (1 Bft) 95,45 %
19.10.2017 20:18 10,1 C 12,2 C 97 % 1014,8 hPa 0,0 l/m 1,9 km/h (1 Bft) NO 39 0 min 0,000 mm 0,0 UV-I 0 W/m 9,6 C 10,1 C 3,2 km/h (1 Bft) 98,21 %
19.10.2017 20:20 10,1 C 12,2 C 97 % 1014,9 hPa 0,0 l/m 1,8 km/h (1 Bft) NO 39 0 min 0,000 mm 0,0 UV-I 0 W/m 9,6 C 10,1 C 3,2 km/h (1 Bft) 97,22 %
19.10.2017 20:22 10,1 C 12,2 C 97 % 1014,9 hPa 0,0 l/m 1,8 km/h (1 Bft) NO 39 0 min 0,000 mm 0,0 UV-I 0 W/m 9,6 C 10,1 C 3,2 km/h (1 Bft) 96,15 %
19.10.2017 20:24 10,1 C 12,2 C 97 % 1014,9 hPa 0,0 l/m 0,9 km/h (0 Bft) NO 39 0 min 0,000 mm 0,0 UV-I 0 W/m 9,6 C 10,1 C 1,6 km/h (1 Bft) 96,23 %
19.10.2017 20:26 10,1 C 12,2 C 97 % 1014,9 hPa 0,0 l/m 0,0 km/h (0 Bft) NO 39 0 min 0,000 mm 0,0 UV-I 0 W/m 9,6 C 10,1 C 0,0 km/h (0 Bft) 95,74 %
19.10.2017 20:28 9,8 C 12,2 C 97 % 1014,9 hPa 0,0 l/m 0,0 km/h (0 Bft) NO 39 0 min 0,000 mm 0,0 UV-I 0 W/m 9,3 C 9,8 C 0,0 km/h (0 Bft) 100,00 %
19.10.2017 20:30 9,6 C 12,2 C 96 % 1014,9 hPa 0,0 l/m 0,0 km/h (0 Bft) NO 39 0 min 0,000 mm 0,0 UV-I 0 W/m 9,0 C 9,6 C 0,0 km/h (0 Bft) 96,00 %
19.10.2017 20:32 9,4 C 12,2 C 96 % 1014,9 hPa 0,0 l/m 0,0 km/h (0 Bft) NO 39 0 min 0,000 mm 0,0 UV-I 0 W/m 8,8 C 9,4 C 0,0 km/h (0 Bft) 97,87 %
19.10.2017 20:34 9,3 C 12,2 C 96 % 1014,9 hPa 0,0 l/m 0,0 km/h (0 Bft) NO 39 0 min 0,000 mm 0,0 UV-I 0 W/m 8,7 C 9,3 C 1,6 km/h (1 Bft) 98,00 %
19.10.2017 20:36 9,3 C 12,2 C 97 % 1014,9 hPa 0,0 l/m 0,0 km/h (0 Bft) NO 39 0 min 0,000 mm 0,0 UV-I 0 W/m 8,8 C 9,3 C 0,0 km/h (0 Bft) 97,87 %
19.10.2017 20:38 9,3 C 12,2 C 96 % 1015,0 hPa 0,0 l/m 0,2 km/h (0 Bft) NO 39 0 min 0,000 mm 0,0 UV-I 0 W/m 8,7 C 9,3 C 1,6 km/h (1 Bft) 98,08 %
19.10.2017 20:40 9,2 C 12,2 C 96 % 1014,9 hPa 0,0 l/m 0,0 km/h (0 Bft) NO 39 0 min 0,000 mm 0,0 UV-I 0 W/m 8,6 C 9,2 C 0,0 km/h (0 Bft) 97,87 %
19.10.2017 20:42 9,0 C 12,2 C 96 % 1015,0 hPa 0,0 l/m 0,0 km/h (0 Bft) NO 39 0 min 0,000 mm 0,0 UV-I 0 W/m 8,4 C 9,0 C 0,0 km/h (0 Bft) 95,74 %
19.10.2017 20:44 8,9 C 12,2 C 96 % 1015,0 hPa 0,0 l/m 0,0 km/h (0 Bft) NO 39 0 min 0,000 mm 0,0 UV-I 0 W/m 8,3 C 8,9 C 0,0 km/h (0 Bft) 100,00 %
19.10.2017 20:46 8,7 C 12,2 C 96 % 1015,1 hPa 0,0 l/m 0,0 km/h (0 Bft) NO 39 0 min 0,000 mm 0,0 UV-I 0 W/m 8,1 C 8,7 C 0,0 km/h (0 Bft) 97,14 %
19.10.2017 20:48 8,6 C 12,2 C 96 % 1015,1 hPa 0,0 l/m 0,0 km/h (0 Bft) NO 39 0 min 0,000 mm 0,0 UV-I 0 W/m 8,0 C 8,6 C 0,0 km/h (0 Bft) 100,00 %
19.10.2017 20:50 8,5 C 12,2 C 96 % 1015,1 hPa 0,0 l/m 0,5 km/h (0 Bft) NO 39 0 min 0,000 mm 0,0 UV-I 0 W/m 7,9 C 8,5 C 3,2 km/h (1 Bft) 100,00 %
19.10.2017 20:52 8,4 C 12,2 C 96 % 1015,1 hPa 0,0 l/m 3,2 km/h (1 Bft) NO 39 0 min 0,000 mm 0,0 UV-I 0 W/m 7,8 C 8,4 C 4,8 km/h (1 Bft) 100,00 %
19.10.2017 20:54 8,3 C 12,2 C 96 % 1015,1 hPa 0,0 l/m 3,9 km/h (1 Bft) NO 39 0 min 0,000 mm 0,0 UV-I 0 W/m 7,7 C 8,3 C 4,8 km/h (1 Bft) 100,00 %
19.10.2017 20:56 8,2 C 12,2 C 96 % 1015,0 hPa 0,0 l/m 2,5 km/h (1 Bft) NO 39 0 min 0,000 mm 0,0 UV-I 0 W/m 7,6 C 8,2 C 4,8 km/h (1 Bft) 100,00 %
19.10.2017 20:58 8,2 C 12,2 C 96 % 1015,0 hPa 0,0 l/m 0,0 km/h (0 Bft) NO 39 0 min 0,000 mm 0,0 UV-I 0 W/m 7,6 C 8,2 C 1,6 km/h (1 Bft) 100,00 %
19.10.2017 21:00 8,0 C 12,2 C 96 % 1015,0 hPa 0,0 l/m 0,0 km/h (0 Bft) NO 39 0 min 0,000 mm 0,0 UV-I 0 W/m 7,4 C 8,0 C 0,0 km/h (0 Bft) 100,00 %
19.10.2017 21:02 7,8 C 12,2 C 96 % 1015,0 hPa 0,0 l/m 0,2 km/h (0 Bft) NO 43 0 min 0,000 mm 0,0 UV-I 0 W/m 7,2 C 7,8 C 1,6 km/h (1 Bft) 100,00 %
19.10.2017 21:04 7,7 C 12,2 C 96 % 1015,0 hPa 0,0 l/m 0,0 km/h (0 Bft) NO 43 0 min 0,000 mm 0,0 UV-I 0 W/m 7,1 C 7,7 C 0,0 km/h (0 Bft) 97,44 %
19.10.2017 21:06 7,7 C 12,2 C 97 % 1015,0 hPa 0,0 l/m 0,4 km/h (0 Bft) NO 43 0 min 0,000 mm 0,0 UV-I 0 W/m 7,3 C 7,7 C 1,6 km/h (1 Bft) 98,00 %
19.10.2017 21:08 7,6 C 12,2 C 96 % 1015,0 hPa 0,0 l/m 0,2 km/h (0 Bft) NO 43 0 min 0,000 mm 0,0 UV-I 0 W/m 7,0 C 7,6 C 1,6 km/h (1 Bft) 100,00 %
19.10.2017 21:10 7,6 C 12,2 C 96 % 1015,0 hPa 0,0 l/m 0,0 km/h (0 Bft) NO 43 0 min 0,000 mm 0,0 UV-I 0 W/m 7,0 C 7,6 C 0,0 km/h (0 Bft) 100,00 %
19.10.2017 21:12 7,6 C 12,2 C 97 % 1015,0 hPa 0,0 l/m 0,3 km/h (0 Bft) NO 43 0 min 0,000 mm 0,0 UV-I 0 W/m 7,2 C 7,6 C 1,6 km/h (1 Bft) 100,00 %
19.10.2017 21:14 7,6 C 12,2 C 97 % 1015,0 hPa 0,0 l/m 0,0 km/h (0 Bft) NO 43 0 min 0,000 mm 0,0 UV-I 0 W/m 7,2 C 7,6 C 0,0 km/h (0 Bft) 100,00 %
19.10.2017 21:16 7,7 C 11,7 C 97 % 1015,0 hPa 0,0 l/m 0,0 km/h (0 Bft) NO 43 0 min 0,000 mm 0,0 UV-I 0 W/m 7,3 C 7,7 C 0,0 km/h (0 Bft) 100,00 %
19.10.2017 21:18 7,7 C 11,7 C 97 % 1015,1 hPa 0,0 l/m 0,0 km/h (0 Bft) NO 43 0 min 0,000 mm 0,0 UV-I 0 W/m 7,3 C 7,7 C 0,0 km/h (0 Bft) 97,14 %
19.10.2017 21:20 7,7 C 12,2 C 97 % 1015,1 hPa 0,0 l/m 0,0 km/h (0 Bft) NO 43 0 min 0,000 mm 0,0 UV-I 0 W/m 7,3 C 7,7 C 0,0 km/h (0 Bft) 100,00 %
19.10.2017 21:22 7,5 C 11,7 C 97 % 1015,2 hPa 0,0 l/m 0,0 km/h (0 Bft) NO 43 0 min 0,000 mm 0,0 UV-I 0 W/m 7,1 C 7,5 C 0,0 km/h (0 Bft) 98,00 %
19.10.2017 21:24 7,4 C 11,7 C 97 % 1015,2 hPa 0,0 l/m 1,3 km/h (1 Bft) NO 43 0 min 0,000 mm 0,0 UV-I 0 W/m 7,0 C 7,4 C 3,2 km/h (1 Bft) 95,12 %
19.10.2017 21:26 7,2 C 11,7 C 96 % 1015,2 hPa 0,0 l/m 0,8 km/h (0 Bft) NO 43 0 min 0,000 mm 0,0 UV-I 0 W/m 6,6 C 7,2 C 1,6 km/h (1 Bft) 98,00 %
19.10.2017 21:28 7,1 C 11,7 C 96 % 1015,2 hPa 0,0 l/m 0,0 km/h (0 Bft) NO 43 0 min 0,000 mm 0,0 UV-I 0 W/m 6,5 C 7,1 C 1,6 km/h (1 Bft) 98,00 %
19.10.2017 21:30 7,0 C 11,7 C 97 % 1015,2 hPa 0,0 l/m 0,1 km/h (0 Bft) NO 43 0 min 0,000 mm 0,0 UV-I 0 W/m 6,6 C 7,0 C 1,6 km/h (1 Bft) 97,14 %
19.10.2017 21:32 6,9 C 11,7 C 97 % 1015,2 hPa 0,0 l/m 0,4 km/h (0 Bft) NO 43 0 min 0,000 mm 0,0 UV-I 0 W/m 6,5 C 6,9 C 1,6 km/h (1 Bft) 96,00 %
19.10.2017 21:34 6,9 C 11,7 C 97 % 1015,2 hPa 0,0 l/m 0,0 km/h (0 Bft) NO 43 0 min 0,000 mm 0,0 UV-I 0 W/m 6,5 C 6,9 C 1,6 km/h (1 Bft) 97,87 %
19.10.2017 21:36 7,0 C 11,7 C 97 % 1015,2 hPa 0,0 l/m 0,0 km/h (0 Bft) NO 43 0 min 0,000 mm 0,0 UV-I 0 W/m 6,6 C 7,0 C 0,0 km/h (0 Bft) 97,87 %
19.10.2017 21:38 7,0 C 11,7 C 97 % 1015,2 hPa 0,0 l/m 0,0 km/h (0 Bft) NO 43 0 min 0,000 mm 0,0 UV-I 0 W/m 6,6 C 7,0 C 0,0 km/h (0 Bft) 98,00 %
19.10.2017 21:40 6,9 C 11,7 C 97 % 1015,2 hPa 0,0 l/m 0,0 km/h (0 Bft) NO 43 0 min 0,000 mm 0,0 UV-I 0 W/m 6,5 C 6,9 C 0,0 km/h (0 Bft) 98,00 %
19.10.2017 21:42 7,1 C 11,7 C 97 % 1015,2 hPa 0,0 l/m 0,0 km/h (0 Bft) NO 43 0 min 0,000 mm 0,0 UV-I 0 W/m 6,7 C 7,1 C 0,0 km/h (0 Bft) 98,00 %
19.10.2017 21:44 7,2 C 11,7 C 97 % 1015,1 hPa 0,0 l/m 0,0 km/h (0 Bft) NO 43 0 min 0,000 mm 0,0 UV-I 0 W/m 6,8 C 7,2 C 0,0 km/h (0 Bft) 97,87 %
19.10.2017 21:46 7,3 C 11,7 C 97 % 1015,2 hPa 0,0 l/m 0,0 km/h (0 Bft) NO 43 0 min 0,000 mm 0,0 UV-I 0 W/m 6,9 C 7,3 C 0,0 km/h (0 Bft) 97,37 %
19.10.2017 21:48 7,3 C 11,7 C 97 % 1015,2 hPa 0,0 l/m 0,0 km/h (0 Bft) NO 43 0 min 0,000 mm 0,0 UV-I 0 W/m 6,9 C 7,3 C 0,0 km/h (0 Bft) 95,74 %
19.10.2017 21:50 7,3 C 11,7 C 97 % 1015,2 hPa 0,0 l/m 0,3 km/h (0 Bft) NO 43 0 min 0,000 mm 0,0 UV-I 0 W/m 6,9 C 7,3 C 3,2 km/h (1 Bft) 97,56 %
19.10.2017 21:52 7,3 C 11,7 C 97 % 1015,3 hPa 0,0 l/m 2,6 km/h (1 Bft) NO 43 0 min 0,000 mm 0,0 UV-I 0 W/m 6,9 C 7,3 C 3,2 km/h (1 Bft) 94,64 %
19.10.2017 21:54 7,2 C 11,7 C 97 % 1015,2 hPa 0,0 l/m 2,7 km/h (1 Bft) NO 43 0 min 0,000 mm 0,0 UV-I 0 W/m 6,8 C 7,2 C 3,2 km/h (1 Bft) 98,00 %
19.10.2017 21:56 7,1 C 11,7 C 97 % 1015,2 hPa 0,0 l/m 3,0 km/h (1 Bft) NO 43 0 min 0,000 mm 0,0 UV-I 0 W/m 6,7 C 7,1 C 4,8 km/h (1 Bft) 98,00 %
19.10.2017 21:58 7,1 C 11,7 C 97 % 1015,2 hPa 0,0 l/m 1,3 km/h (1 Bft) NO 43 0 min 0,000 mm 0,0 UV-I 0 W/m 6,7 C 7,1 C 3,2 km/h (1 Bft) 97,37 %
19.10.2017 22:00 7,0 C 11,7 C 97 % 1015,2 hPa 0,0 l/m 2,0 km/h (1 Bft) NO 43 0 min 0,000 mm 0,0 UV-I 0 W/m 6,6 C 7,0 C 3,2 km/h (1 Bft) 95,74 %
19.10.2017 22:02 7,0 C 11,7 C 97 % 1015,2 hPa 0,0 l/m 1,7 km/h (1 Bft) NO 43 0 min 0,000 mm 0,0 UV-I 0 W/m 6,6 C 7,0 C 3,2 km/h (1 Bft) 97,73 %
19.10.2017 22:04 7,0 C 11,7 C 97 % 1015,2 hPa 0,0 l/m 0,8 km/h (0 Bft) NO 43 0 min 0,000 mm 0,0 UV-I 0 W/m 6,6 C 7,0 C 3,2 km/h (1 Bft) 100,00 %
19.10.2017 22:06 7,1 C 11,7 C 97 % 1015,2 hPa 0,0 l/m 0,5 km/h (0 Bft) NO 43 0 min 0,000 mm 0,0 UV-I 0 W/m 6,7 C 7,1 C 3,2 km/h (1 Bft) 98,11 %
19.10.2017 22:08 7,2 C 11,7 C 97 % 1015,2 hPa 0,0 l/m 0,2 km/h (0 Bft) NO 43 0 min 0,000 mm 0,0 UV-I 0 W/m 6,8 C 7,2 C 1,6 km/h (1 Bft) 100,00 %
19.10.2017 22:10 7,2 C 11,7 C 97 % 1015,2 hPa 0,0 l/m 1,1 km/h (1 Bft) NO 43 0 min 0,000 mm 0,0 UV-I 0 W/m 6,8 C 7,2 C 3,2 km/h (1 Bft) 100,00 %
19.10.2017 22:12 7,2 C 11,7 C 97 % 1015,2 hPa 0,0 l/m 0,9 km/h (0 Bft) NO 43 0 min 0,000 mm 0,0 UV-I 0 W/m 6,8 C 7,2 C 3,2 km/h (1 Bft) 100,00 %
19.10.2017 22:14 7,1 C 11,7 C 97 % 1015,2 hPa 0,0 l/m 0,7 km/h (0 Bft) NO 43 0 min 0,000 mm 0,0 UV-I 0 W/m 6,7 C 7,1 C 3,2 km/h (1 Bft) 100,00 %
19.10.2017 22:16 7,0 C 11,7 C 97 % 1015,2 hPa 0,0 l/m 0,2 km/h (0 Bft) NO 43 0 min 0,000 mm 0,0 UV-I 0 W/m 6,6 C 7,0 C 1,6 km/h (1 Bft) 100,00 %
19.10.2017 22:18 7,0 C 11,7 C 97 % 1015,2 hPa 0,0 l/m 0,0 km/h (0 Bft) NO 43 0 min 0,000 mm 0,0 UV-I 0 W/m 6,6 C 7,0 C 0,0 km/h (0 Bft) 100,00 %
19.10.2017 22:20 7,0 C 11,7 C 97 % 1015,2 hPa 0,0 l/m 0,1 km/h (0 Bft) NO 43 0 min 0,000 mm 0,0 UV-I 0 W/m 6,6 C 7,0 C 1,6 km/h (1 Bft) 100,00 %
19.10.2017 22:22 7,0 C 11,7 C 97 % 1015,2 hPa 0,0 l/m 0,0 km/h (0 Bft) NO 43 0 min 0,000 mm 0,0 UV-I 0 W/m 6,6 C 7,0 C 0,0 km/h (0 Bft) 100,00 %
19.10.2017 22:24 7,0 C 11,7 C 97 % 1015,2 hPa 0,0 l/m 0,8 km/h (0 Bft) NO 43 0 min 0,000 mm 0,0 UV-I 0 W/m 6,6 C 7,0 C 3,2 km/h (1 Bft) 100,00 %
19.10.2017 22:26 7,0 C 11,7 C 97 % 1015,2 hPa 0,0 l/m 2,0 km/h (1 Bft) NO 43 0 min 0,000 mm 0,0 UV-I 0 W/m 6,6 C 7,0 C 3,2 km/h (1 Bft) 100,00 %
19.10.2017 22:28 6,9 C 11,7 C 97 % 1015,2 hPa 0,0 l/m 1,2 km/h (1 Bft) NO 43 0 min 0,000 mm 0,0 UV-I 0 W/m 6,5 C 6,9 C 3,2 km/h (1 Bft) 100,00 %
19.10.2017 22:30 6,9 C 11,7 C 97 % 1015,2 hPa 0,0 l/m 0,0 km/h (0 Bft) NO 43 0 min 0,000 mm 0,0 UV-I 0 W/m 6,5 C 6,9 C 1,6 km/h (1 Bft) 98,11 %
19.10.2017 22:32 6,9 C 11,7 C 97 % 1015,2 hPa 0,0 l/m 0,0 km/h (0 Bft) NO 43 0 min 0,000 mm 0,0 UV-I 0 W/m 6,5 C 6,9 C 0,0 km/h (0 Bft) 100,00 %
19.10.2017 22:34 6,9 C 11,7 C 97 % 1015,2 hPa 0,0 l/m 0,0 km/h (0 Bft) NO 43 0 min 0,000 mm 0,0 UV-I 0 W/m 6,5 C 6,9 C 0,0 km/h (0 Bft) 100,00 %
19.10.2017 22:36 7,0 C 11,7 C 98 % 1015,2 hPa 0,0 l/m 0,0 km/h (0 Bft) NO 43 0 min 0,000 mm 0,0 UV-I 0 W/m 6,7 C 7,0 C 0,0 km/h (0 Bft) 100,00 %
19.10.2017 22:38 7,1 C 11,7 C 98 % 1015,2 hPa 0,0 l/m 0,0 km/h (0 Bft) NO 43 0 min 0,000 mm 0,0 UV-I 0 W/m 6,8 C 7,1 C 0,0 km/h (0 Bft) 100,00 %
19.10.2017 22:40 7,1 C 11,7 C 97 % 1015,3 hPa 0,0 l/m 0,0 km/h (0 Bft) NO 43 0 min 0,000 mm 0,0 UV-I 0 W/m 6,7 C 7,1 C 0,0 km/h (0 Bft) 100,00 %
19.10.2017 22:42 7,2 C 11,7 C 97 % 1015,4 hPa 0,0 l/m 0,0 km/h (0 Bft) NO 43 0 min 0,000 mm 0,0 UV-I 0 W/m 6,8 C 7,2 C 0,0 km/h (0 Bft) 97,87 %
19.10.2017 22:44 7,2 C 11,7 C 97 % 1015,3 hPa 0,0 l/m 0,0 km/h (0 Bft) NO 43 0 min 0,000 mm 0,0 UV-I 0 W/m 6,8 C 7,2 C 0,0 km/h (0 Bft) 100,00 %
19.10.2017 22:46 7,3 C 11,7 C 98 % 1015,4 hPa 0,0 l/m 0,0 km/h (0 Bft) NO 43 0 min 0,000 mm 0,0 UV-I 0 W/m 7,0 C 7,3 C 0,0 km/h (0 Bft) 100,00 %
19.10.2017 22:48 7,3 C 11,7 C 98 % 1015,4 hPa 0,0 l/m 0,0 km/h (0 Bft) NO 43 0 min 0,000 mm 0,0 UV-I 0 W/m 7,0 C 7,3 C 0,0 km/h (0 Bft) 100,00 %
19.10.2017 22:50 7,3 C 11,7 C 98 % 1015,4 hPa 0,0 l/m 0,0 km/h (0 Bft) NO 43 0 min 0,000 mm 0,0 UV-I 0 W/m 7,0 C 7,3 C 0,0 km/h (0 Bft) 95,74 %
19.10.2017 22:52 7,3 C 11,7 C 98 % 1015,3 hPa 0,0 l/m 0,0 km/h (0 Bft) NO 43 0 min 0,000 mm 0,0 UV-I 0 W/m 7,0 C 7,3 C 0,0 km/h (0 Bft) 100,00 %
19.10.2017 22:54 7,4 C 11,7 C 98 % 1015,3 hPa 0,0 l/m 1,1 km/h (1 Bft) NO 43 0 min 0,000 mm 0,0 UV-I 0 W/m 7,1 C 7,4 C 3,2 km/h (1 Bft) 100,00 %
19.10.2017 22:56 7,3 C 11,7 C 98 % 1015,3 hPa 0,0 l/m 2,5 km/h (1 Bft) NO 46 0 min 0,000 mm 0,0 UV-I 0 W/m 7,0 C 7,3 C 3,2 km/h (1 Bft) 100,00 %
19.10.2017 22:58 7,4 C 11,7 C 98 % 1015,3 hPa 0,0 l/m 2,9 km/h (1 Bft) O 91 0 min 0,000 mm 0,0 UV-I 0 W/m 7,1 C 7,4 C 4,8 km/h (1 Bft) 100,00 %
19.10.2017 23:00 7,6 C 11,7 C 98 % 1015,3 hPa 0,0 l/m 2,3 km/h (1 Bft) O 91 0 min 0,000 mm 0,0 UV-I 0 W/m 7,3 C 7,6 C 4,8 km/h (1 Bft) 100,00 %
19.10.2017 23:02 7,8 C 11,7 C 98 % 1015,3 hPa 0,0 l/m 1,4 km/h (1 Bft) O 91 0 min 0,000 mm 0,0 UV-I 0 W/m 7,5 C 7,8 C 3,2 km/h (1 Bft) 94,00 %
19.10.2017 23:04 7,9 C 11,7 C 98 % 1015,3 hPa 0,0 l/m 1,3 km/h (1 Bft) O 91 0 min 0,000 mm 0,0 UV-I 0 W/m 7,6 C 7,9 C 3,2 km/h (1 Bft) 97,73 %
19.10.2017 23:06 8,1 C 11,7 C 98 % 1015,3 hPa 0,0 l/m 2,7 km/h (1 Bft) O 91 0 min 0,000 mm 0,0 UV-I 0 W/m 7,8 C 8,1 C 4,8 km/h (1 Bft) 98,00 %
19.10.2017 23:08 8,3 C 11,7 C 98 % 1015,3 hPa 0,0 l/m 2,8 km/h (1 Bft) O 91 0 min 0,000 mm 0,0 UV-I 0 W/m 8,0 C 8,3 C 4,8 km/h (1 Bft) 93,62 %
19.10.2017 23:10 8,7 C 11,7 C 98 % 1015,2 hPa 0,0 l/m 3,0 km/h (1 Bft) O 90 0 min 0,000 mm 0,0 UV-I 0 W/m 8,4 C 8,7 C 4,8 km/h (1 Bft) 97,92 %
19.10.2017 23:12 8,9 C 11,7 C 98 % 1015,2 hPa 0,0 l/m 2,8 km/h (1 Bft) O 90 0 min 0,000 mm 0,0 UV-I 0 W/m 8,6 C 8,9 C 4,8 km/h (1 Bft) 95,74 %
19.10.2017 23:14 9,1 C 11,7 C 98 % 1015,2 hPa 0,0 l/m 3,2 km/h (1 Bft) O 90 0 min 0,000 mm 0,0 UV-I 0 W/m 8,8 C 9,1 C 4,8 km/h (1 Bft) 100,00 %
19.10.2017 23:16 9,1 C 11,7 C 98 % 1015,2 hPa 0,0 l/m 3,2 km/h (1 Bft) O 90 0 min 0,000 mm 0,0 UV-I 0 W/m 8,8 C 9,1 C 4,8 km/h (1 Bft) 96,43 %
19.10.2017 23:18 9,2 C 11,7 C 98 % 1015,2 hPa 0,0 l/m 3,1 km/h (1 Bft) O 90 0 min 0,000 mm 0,0 UV-I 0 W/m 8,9 C 9,2 C 4,8 km/h (1 Bft) 97,37 %
19.10.2017 23:20 9,2 C 11,7 C 98 % 1015,2 hPa 0,0 l/m 2,6 km/h (1 Bft) O 90 0 min 0,000 mm 0,0 UV-I 0 W/m 8,9 C 9,2 C 4,8 km/h (1 Bft) 98,11 %
19.10.2017 23:22 9,1 C 11,7 C 98 % 1015,3 hPa 0,0 l/m 1,3 km/h (1 Bft) O 90 0 min 0,000 mm 0,0 UV-I 0 W/m 8,8 C 9,1 C 3,2 km/h (1 Bft) 95,74 %
19.10.2017 23:24 9,1 C 11,7 C 98 % 1015,2 hPa 0,0 l/m 1,1 km/h (1 Bft) O 90 0 min 0,000 mm 0,0 UV-I 0 W/m 8,8 C 9,1 C 3,2 km/h (1 Bft) 97,37 %
19.10.2017 23:26 9,1 C 11,7 C 98 % 1015,2 hPa 0,0 l/m 0,6 km/h (0 Bft) O 90 0 min 0,000 mm 0,0 UV-I 0 W/m 8,8 C 9,1 C 1,6 km/h (1 Bft) 96,00 %
19.10.2017 23:28 9,0 C 11,7 C 98 % 1015,2 hPa 0,0 l/m 0,5 km/h (0 Bft) O 90 0 min 0,000 mm 0,0 UV-I 0 W/m 8,7 C 9,0 C 1,6 km/h (1 Bft) 98,11 %
19.10.2017 23:30 9,0 C 11,7 C 98 % 1015,2 hPa 0,0 l/m 0,4 km/h (0 Bft) O 90 0 min 0,000 mm 0,0 UV-I 0 W/m 8,7 C 9,0 C 1,6 km/h (1 Bft) 97,56 %
19.10.2017 23:32 8,8 C 11,7 C 98 % 1015,2 hPa 0,0 l/m 0,0 km/h (0 Bft) O 90 0 min 0,000 mm 0,0 UV-I 0 W/m 8,5 C 8,8 C 0,0 km/h (0 Bft) 98,11 %
19.10.2017 23:34 8,6 C 11,7 C 98 % 1015,2 hPa 0,0 l/m 0,0 km/h (0 Bft) O 90 0 min 0,000 mm 0,0 UV-I 0 W/m 8,3 C 8,6 C 0,0 km/h (0 Bft) 94,74 %
19.10.2017 23:36 8,6 C 11,7 C 98 % 1015,2 hPa 0,0 l/m 0,0 km/h (0 Bft) O 90 0 min 0,000 mm 0,0 UV-I 0 W/m 8,3 C 8,6 C 0,0 km/h (0 Bft) 95,74 %
19.10.2017 23:38 8,5 C 11,7 C 98 % 1015,2 hPa 0,0 l/m 0,1 km/h (0 Bft) O 90 0 min 0,000 mm 0,0 UV-I 0 W/m 8,2 C 8,5 C 1,6 km/h (1 Bft) 95,74 %
19.10.2017 23:40 8,5 C 11,7 C 98 % 1015,2 hPa 0,0 l/m 0,6 km/h (0 Bft) O 90 0 min 0,000 mm 0,0 UV-I 0 W/m 8,2 C 8,5 C 1,6 km/h (1 Bft) 94,00 %
19.10.2017 23:42 8,4 C 11,7 C 98 % 1015,1 hPa 0,0 l/m 0,4 km/h (0 Bft) O 90 0 min 0,000 mm 0,0 UV-I 0 W/m 8,1 C 8,4 C 1,6 km/h (1 Bft) 93,62 %
19.10.2017 23:44 8,4 C 11,7 C 98 % 1015,1 hPa 0,0 l/m 0,0 km/h (0 Bft) O 90 0 min 0,000 mm 0,0 UV-I 0 W/m 8,1 C 8,4 C 0,0 km/h (0 Bft) 95,83 %
19.10.2017 23:46 8,3 C 11,7 C 98 % 1015,0 hPa 0,0 l/m 0,0 km/h (0 Bft) O 90 0 min 0,000 mm 0,0 UV-I 0 W/m 8,0 C 8,3 C 0,0 km/h (0 Bft) 96,15 %
19.10.2017 23:48 8,3 C 11,7 C 98 % 1015,0 hPa 0,0 l/m 0,0 km/h (0 Bft) O 90 0 min 0,000 mm 0,0 UV-I 0 W/m 8,0 C 8,3 C 0,0 km/h (0 Bft) 93,62 %
19.10.2017 23:50 8,3 C 11,7 C 98 % 1015,0 hPa 0,0 l/m 0,0 km/h (0 Bft) O 90 0 min 0,000 mm 0,0 UV-I 0 W/m 8,0 C 8,3 C 0,0 km/h (0 Bft) 97,22 %
19.10.2017 23:52 8,2 C 11,7 C 98 % 1015,1 hPa 0,0 l/m 0,1 km/h (0 Bft) O 90 0 min 0,000 mm 0,0 UV-I 0 W/m 7,9 C 8,2 C 1,6 km/h (1 Bft) 94,00 %
19.10.2017 23:54 8,1 C 11,7 C 98 % 1015,0 hPa 0,0 l/m 1,1 km/h (1 Bft) O 90 0 min 0,000 mm 0,0 UV-I 0 W/m 7,8 C 8,1 C 1,6 km/h (1 Bft) 96,00 %
19.10.2017 23:56 7,8 C 11,7 C 97 % 1015,1 hPa 0,0 l/m 1,6 km/h (1 Bft) O 90 0 min 0,000 mm 0,0 UV-I 0 W/m 7,4 C 7,8 C 3,2 km/h (1 Bft) 95,12 %
19.10.2017 23:58 7,6 C 11,7 C 97 % 1015,1 hPa 0,0 l/m 1,5 km/h (1 Bft) O 90 0 min 0,000 mm 0,0 UV-I 0 W/m 7,2 C 7,6 C 3,2 km/h (1 Bft) 94,34 %
_ Min-Zeit 01:38 02:24 15:58 17:46 - 00:02 - - - - - - 01:38 01:38 00:02 16:54
Minimum _ 6,9 C 11,7 C 87 % 1014,4 hPa - 0,0 km/h (0 Bft) - - - - - - 6,5 C 6,9 C 0,0 km/h (0 Bft) 90,00 %
_ Max-Zeit 16:36 00:00 00:36 11:16 04:34 14:10 - - 10:50 15:00 14:22 14:26 16:48 16:36 14:50 00:32
Maximum _ 13,8 C 12,2 C 98 % 1017,2 hPa 0,2 l/m 6,8 km/h
O-NO (2 Bft)
- - 2 min 0,203 mm 1,5 UV-I 538 W/m 11,8 C 13,8 C 11,3 km/h
O-NO (2 Bft)
100,00 %
Durchschnitt _ 9,3 C 11,9 C 96 % 1015,6 hPa #0,4 l/m 1,9 km/h (1 Bft) O-NO - #4:52 h #0,991 mm 1,0 UV-I 184 W/m 8,7 C 9,3 C 3,5 km/h (1 Bft) 98,05 %